<?xml version="1.0" encoding="UTF-8" standalone="no" ?>
<gpx xmlns="http://www.topografix.com/GPX/1/1" xmlns:xsi="http://www.w3.org/2001/XMLSchema-instance" xsi:schemaLocation="http://www.topografix.com/GPX/1/1 http://www.topografix.com/GPX/1/1/gpx.xsd" version="1.1" creator="VisuGPX - https://www.visugpx.com">
  <metadata>
    <name>Lagunas Sajama</name>
    <desc><![CDATA[grp_trc:2025 10 14 Lagunas Sajama]]></desc>
  </metadata>
  <trk>
    <name><![CDATA[2025 10 14 Lagunas Sajama]]></name>
    <cmt><![CDATA[08:01:21]]></cmt>
    <desc><![CDATA[comment ...]]></desc>
    <trkseg>
      <trkpt lat="-18.09947" lon="-69.02951">
        <ele>4377</ele>
        <time>2025-10-14T12:01:21Z</time>
      </trkpt>
      <trkpt lat="-18.09945" lon="-69.02951">
        <ele>4378</ele>
        <time>2025-10-14T12:01:23Z</time>
      </trkpt>
      <trkpt lat="-18.09941" lon="-69.02951">
        <ele>4380</ele>
        <time>2025-10-14T12:01:29Z</time>
      </trkpt>
      <trkpt lat="-18.09937" lon="-69.02951">
        <ele>4381</ele>
        <time>2025-10-14T12:01:37Z</time>
      </trkpt>
      <trkpt lat="-18.09926" lon="-69.02946">
        <ele>4379</ele>
        <time>2025-10-14T12:01:51Z</time>
      </trkpt>
      <trkpt lat="-18.09923" lon="-69.02943">
        <ele>4379</ele>
        <time>2025-10-14T12:01:55Z</time>
      </trkpt>
      <trkpt lat="-18.09921" lon="-69.0294">
        <ele>4379</ele>
        <time>2025-10-14T12:01:59Z</time>
      </trkpt>
      <trkpt lat="-18.09919" lon="-69.02933">
        <ele>4379</ele>
        <time>2025-10-14T12:02:07Z</time>
      </trkpt>
      <trkpt lat="-18.09913" lon="-69.02921">
        <ele>4378</ele>
        <time>2025-10-14T12:02:21Z</time>
      </trkpt>
      <trkpt lat="-18.09911" lon="-69.02917">
        <ele>4378</ele>
        <time>2025-10-14T12:02:27Z</time>
      </trkpt>
      <trkpt lat="-18.09904" lon="-69.02914">
        <ele>4378</ele>
        <time>2025-10-14T12:02:41Z</time>
      </trkpt>
      <trkpt lat="-18.09901" lon="-69.02912">
        <ele>4378</ele>
        <time>2025-10-14T12:02:45Z</time>
      </trkpt>
      <trkpt lat="-18.09898" lon="-69.0291">
        <ele>4379</ele>
        <time>2025-10-14T12:02:49Z</time>
      </trkpt>
      <trkpt lat="-18.09896" lon="-69.02907">
        <ele>4379</ele>
        <time>2025-10-14T12:02:53Z</time>
      </trkpt>
      <trkpt lat="-18.09894" lon="-69.02904">
        <ele>4378</ele>
        <time>2025-10-14T12:02:57Z</time>
      </trkpt>
      <trkpt lat="-18.09889" lon="-69.02898">
        <ele>4378</ele>
        <time>2025-10-14T12:03:05Z</time>
      </trkpt>
      <trkpt lat="-18.09887" lon="-69.02895">
        <ele>4378</ele>
        <time>2025-10-14T12:03:09Z</time>
      </trkpt>
      <trkpt lat="-18.09884" lon="-69.02892">
        <ele>4377</ele>
        <time>2025-10-14T12:03:13Z</time>
      </trkpt>
      <trkpt lat="-18.09881" lon="-69.02889">
        <ele>4377</ele>
        <time>2025-10-14T12:03:19Z</time>
      </trkpt>
      <trkpt lat="-18.09878" lon="-69.02888">
        <ele>4376</ele>
        <time>2025-10-14T12:03:29Z</time>
      </trkpt>
      <trkpt lat="-18.09875" lon="-69.02886">
        <ele>4376</ele>
        <time>2025-10-14T12:03:35Z</time>
      </trkpt>
      <trkpt lat="-18.09863" lon="-69.02877">
        <ele>4378</ele>
        <time>2025-10-14T12:03:53Z</time>
      </trkpt>
      <trkpt lat="-18.0986" lon="-69.0288">
        <ele>4379</ele>
        <time>2025-10-14T12:04:09Z</time>
      </trkpt>
      <trkpt lat="-18.09861" lon="-69.02882">
        <ele>4381</ele>
        <time>2025-10-14T12:04:31Z</time>
      </trkpt>
      <trkpt lat="-18.09865" lon="-69.02882">
        <ele>4381</ele>
        <time>2025-10-14T12:04:47Z</time>
      </trkpt>
      <trkpt lat="-18.09863" lon="-69.02878">
        <ele>4380</ele>
        <time>2025-10-14T12:05:17Z</time>
      </trkpt>
      <trkpt lat="-18.09859" lon="-69.02877">
        <ele>4380</ele>
        <time>2025-10-14T12:05:21Z</time>
      </trkpt>
      <trkpt lat="-18.09856" lon="-69.02879">
        <ele>4380</ele>
        <time>2025-10-14T12:05:25Z</time>
      </trkpt>
      <trkpt lat="-18.09848" lon="-69.02882">
        <ele>4380</ele>
        <time>2025-10-14T12:05:34Z</time>
      </trkpt>
      <trkpt lat="-18.09844" lon="-69.02883">
        <ele>4380</ele>
        <time>2025-10-14T12:05:40Z</time>
      </trkpt>
      <trkpt lat="-18.09841" lon="-69.02882">
        <ele>4381</ele>
        <time>2025-10-14T12:05:44Z</time>
      </trkpt>
      <trkpt lat="-18.09837" lon="-69.02882">
        <ele>4382</ele>
        <time>2025-10-14T12:05:48Z</time>
      </trkpt>
      <trkpt lat="-18.09834" lon="-69.0288">
        <ele>4383</ele>
        <time>2025-10-14T12:05:54Z</time>
      </trkpt>
      <trkpt lat="-18.09829" lon="-69.02881">
        <ele>4384</ele>
        <time>2025-10-14T12:06:08Z</time>
      </trkpt>
      <trkpt lat="-18.09826" lon="-69.02882">
        <ele>4384</ele>
        <time>2025-10-14T12:06:56Z</time>
      </trkpt>
      <trkpt lat="-18.09819" lon="-69.02886">
        <ele>4385</ele>
        <time>2025-10-14T12:07:12Z</time>
      </trkpt>
      <trkpt lat="-18.09825" lon="-69.02881">
        <ele>4385</ele>
        <time>2025-10-14T12:07:30Z</time>
      </trkpt>
      <trkpt lat="-18.09824" lon="-69.02882">
        <ele>4384</ele>
        <time>2025-10-14T12:08:03Z</time>
      </trkpt>
      <trkpt lat="-18.09821" lon="-69.02886">
        <ele>4384</ele>
        <time>2025-10-14T12:08:11Z</time>
      </trkpt>
      <trkpt lat="-18.09818" lon="-69.0289">
        <ele>4384</ele>
        <time>2025-10-14T12:08:19Z</time>
      </trkpt>
      <trkpt lat="-18.09811" lon="-69.02893">
        <ele>4385</ele>
        <time>2025-10-14T12:08:29Z</time>
      </trkpt>
      <trkpt lat="-18.09805" lon="-69.02897">
        <ele>4384</ele>
        <time>2025-10-14T12:09:11Z</time>
      </trkpt>
      <trkpt lat="-18.09799" lon="-69.02903">
        <ele>4383</ele>
        <time>2025-10-14T12:09:25Z</time>
      </trkpt>
      <trkpt lat="-18.0979" lon="-69.02912">
        <ele>4383</ele>
        <time>2025-10-14T12:09:37Z</time>
      </trkpt>
      <trkpt lat="-18.09789" lon="-69.02916">
        <ele>4382</ele>
        <time>2025-10-14T12:09:41Z</time>
      </trkpt>
      <trkpt lat="-18.09791" lon="-69.0292">
        <ele>4382</ele>
        <time>2025-10-14T12:09:47Z</time>
      </trkpt>
      <trkpt lat="-18.09786" lon="-69.02923">
        <ele>4382</ele>
        <time>2025-10-14T12:10:14Z</time>
      </trkpt>
      <trkpt lat="-18.09783" lon="-69.02927">
        <ele>4383</ele>
        <time>2025-10-14T12:10:17Z</time>
      </trkpt>
      <trkpt lat="-18.09776" lon="-69.02939">
        <ele>4383</ele>
        <time>2025-10-14T12:10:30Z</time>
      </trkpt>
      <trkpt lat="-18.09768" lon="-69.02946">
        <ele>4384</ele>
        <time>2025-10-14T12:10:38Z</time>
      </trkpt>
      <trkpt lat="-18.09765" lon="-69.02955">
        <ele>4384</ele>
        <time>2025-10-14T12:10:46Z</time>
      </trkpt>
      <trkpt lat="-18.0975" lon="-69.02966">
        <ele>4384</ele>
        <time>2025-10-14T12:11:02Z</time>
      </trkpt>
      <trkpt lat="-18.09747" lon="-69.02968">
        <ele>4384</ele>
        <time>2025-10-14T12:11:06Z</time>
      </trkpt>
      <trkpt lat="-18.09745" lon="-69.02976">
        <ele>4385</ele>
        <time>2025-10-14T12:11:14Z</time>
      </trkpt>
      <trkpt lat="-18.09747" lon="-69.02981">
        <ele>4385</ele>
        <time>2025-10-14T12:11:20Z</time>
      </trkpt>
      <trkpt lat="-18.09744" lon="-69.02984">
        <ele>4385</ele>
        <time>2025-10-14T12:11:24Z</time>
      </trkpt>
      <trkpt lat="-18.09737" lon="-69.0299">
        <ele>4385</ele>
        <time>2025-10-14T12:11:48Z</time>
      </trkpt>
      <trkpt lat="-18.09728" lon="-69.02999">
        <ele>4387</ele>
        <time>2025-10-14T12:12:00Z</time>
      </trkpt>
      <trkpt lat="-18.09718" lon="-69.03014">
        <ele>4388</ele>
        <time>2025-10-14T12:12:16Z</time>
      </trkpt>
      <trkpt lat="-18.09716" lon="-69.03023">
        <ele>4389</ele>
        <time>2025-10-14T12:12:24Z</time>
      </trkpt>
      <trkpt lat="-18.09716" lon="-69.03031">
        <ele>4389</ele>
        <time>2025-10-14T12:12:32Z</time>
      </trkpt>
      <trkpt lat="-18.09712" lon="-69.03038">
        <ele>4389</ele>
        <time>2025-10-14T12:12:40Z</time>
      </trkpt>
      <trkpt lat="-18.09705" lon="-69.03048">
        <ele>4390</ele>
        <time>2025-10-14T12:12:52Z</time>
      </trkpt>
      <trkpt lat="-18.09703" lon="-69.03051">
        <ele>4390</ele>
        <time>2025-10-14T12:12:56Z</time>
      </trkpt>
      <trkpt lat="-18.09703" lon="-69.03056">
        <ele>4390</ele>
        <time>2025-10-14T12:13:00Z</time>
      </trkpt>
      <trkpt lat="-18.09703" lon="-69.0306">
        <ele>4390</ele>
        <time>2025-10-14T12:13:04Z</time>
      </trkpt>
      <trkpt lat="-18.09705" lon="-69.03067">
        <ele>4391</ele>
        <time>2025-10-14T12:13:12Z</time>
      </trkpt>
      <trkpt lat="-18.09704" lon="-69.03075">
        <ele>4392</ele>
        <time>2025-10-14T12:13:20Z</time>
      </trkpt>
      <trkpt lat="-18.09704" lon="-69.03083">
        <ele>4393</ele>
        <time>2025-10-14T12:13:28Z</time>
      </trkpt>
      <trkpt lat="-18.09703" lon="-69.03087">
        <ele>4393</ele>
        <time>2025-10-14T12:13:32Z</time>
      </trkpt>
      <trkpt lat="-18.097" lon="-69.03091">
        <ele>4392</ele>
        <time>2025-10-14T12:13:38Z</time>
      </trkpt>
      <trkpt lat="-18.09697" lon="-69.03094">
        <ele>4392</ele>
        <time>2025-10-14T12:13:42Z</time>
      </trkpt>
      <trkpt lat="-18.0969" lon="-69.03103">
        <ele>4394</ele>
        <time>2025-10-14T12:13:55Z</time>
      </trkpt>
      <trkpt lat="-18.09688" lon="-69.03106">
        <ele>4395</ele>
        <time>2025-10-14T12:14:01Z</time>
      </trkpt>
      <trkpt lat="-18.09678" lon="-69.03122">
        <ele>4396</ele>
        <time>2025-10-14T12:14:29Z</time>
      </trkpt>
      <trkpt lat="-18.09675" lon="-69.03148">
        <ele>4395</ele>
        <time>2025-10-14T12:14:55Z</time>
      </trkpt>
      <trkpt lat="-18.09674" lon="-69.03152">
        <ele>4396</ele>
        <time>2025-10-14T12:15:03Z</time>
      </trkpt>
      <trkpt lat="-18.09671" lon="-69.0316">
        <ele>4396</ele>
        <time>2025-10-14T12:15:11Z</time>
      </trkpt>
      <trkpt lat="-18.09671" lon="-69.03165">
        <ele>4395</ele>
        <time>2025-10-14T12:15:39Z</time>
      </trkpt>
      <trkpt lat="-18.09664" lon="-69.03172">
        <ele>4395</ele>
        <time>2025-10-14T12:15:48Z</time>
      </trkpt>
      <trkpt lat="-18.09662" lon="-69.03176">
        <ele>4395</ele>
        <time>2025-10-14T12:15:53Z</time>
      </trkpt>
      <trkpt lat="-18.09663" lon="-69.03184">
        <ele>4394</ele>
        <time>2025-10-14T12:16:01Z</time>
      </trkpt>
      <trkpt lat="-18.09662" lon="-69.03188">
        <ele>4394</ele>
        <time>2025-10-14T12:16:07Z</time>
      </trkpt>
      <trkpt lat="-18.09666" lon="-69.03186">
        <ele>4393</ele>
        <time>2025-10-14T12:16:11Z</time>
      </trkpt>
      <trkpt lat="-18.0967" lon="-69.03183">
        <ele>4392</ele>
        <time>2025-10-14T12:16:15Z</time>
      </trkpt>
      <trkpt lat="-18.09673" lon="-69.03185">
        <ele>4392</ele>
        <time>2025-10-14T12:16:19Z</time>
      </trkpt>
      <trkpt lat="-18.09675" lon="-69.03189">
        <ele>4392</ele>
        <time>2025-10-14T12:16:23Z</time>
      </trkpt>
      <trkpt lat="-18.09674" lon="-69.03193">
        <ele>4392</ele>
        <time>2025-10-14T12:16:27Z</time>
      </trkpt>
      <trkpt lat="-18.0967" lon="-69.03202">
        <ele>4395</ele>
        <time>2025-10-14T12:16:45Z</time>
      </trkpt>
      <trkpt lat="-18.09669" lon="-69.0322">
        <ele>4396</ele>
        <time>2025-10-14T12:17:05Z</time>
      </trkpt>
      <trkpt lat="-18.0967" lon="-69.03225">
        <ele>4396</ele>
        <time>2025-10-14T12:17:13Z</time>
      </trkpt>
      <trkpt lat="-18.09669" lon="-69.03229">
        <ele>4396</ele>
        <time>2025-10-14T12:17:17Z</time>
      </trkpt>
      <trkpt lat="-18.09659" lon="-69.03243">
        <ele>4396</ele>
        <time>2025-10-14T12:17:33Z</time>
      </trkpt>
      <trkpt lat="-18.09657" lon="-69.03247">
        <ele>4396</ele>
        <time>2025-10-14T12:17:37Z</time>
      </trkpt>
      <trkpt lat="-18.09647" lon="-69.03264">
        <ele>4396</ele>
        <time>2025-10-14T12:17:55Z</time>
      </trkpt>
      <trkpt lat="-18.09643" lon="-69.03266">
        <ele>4396</ele>
        <time>2025-10-14T12:17:58Z</time>
      </trkpt>
      <trkpt lat="-18.09629" lon="-69.03288">
        <ele>4396</ele>
        <time>2025-10-14T12:18:29Z</time>
      </trkpt>
      <trkpt lat="-18.09622" lon="-69.03299">
        <ele>4396</ele>
        <time>2025-10-14T12:18:41Z</time>
      </trkpt>
      <trkpt lat="-18.0962" lon="-69.03302">
        <ele>4396</ele>
        <time>2025-10-14T12:18:45Z</time>
      </trkpt>
      <trkpt lat="-18.09611" lon="-69.03323">
        <ele>4397</ele>
        <time>2025-10-14T12:19:05Z</time>
      </trkpt>
      <trkpt lat="-18.09584" lon="-69.03342">
        <ele>4399</ele>
        <time>2025-10-14T12:19:37Z</time>
      </trkpt>
      <trkpt lat="-18.09575" lon="-69.0335">
        <ele>4398</ele>
        <time>2025-10-14T12:19:49Z</time>
      </trkpt>
      <trkpt lat="-18.09572" lon="-69.03353">
        <ele>4398</ele>
        <time>2025-10-14T12:19:55Z</time>
      </trkpt>
      <trkpt lat="-18.09568" lon="-69.03354">
        <ele>4399</ele>
        <time>2025-10-14T12:20:23Z</time>
      </trkpt>
      <trkpt lat="-18.09544" lon="-69.03372">
        <ele>4401</ele>
        <time>2025-10-14T12:20:53Z</time>
      </trkpt>
      <trkpt lat="-18.09537" lon="-69.03377">
        <ele>4401</ele>
        <time>2025-10-14T12:21:01Z</time>
      </trkpt>
      <trkpt lat="-18.09534" lon="-69.03379">
        <ele>4401</ele>
        <time>2025-10-14T12:21:05Z</time>
      </trkpt>
      <trkpt lat="-18.09531" lon="-69.0338">
        <ele>4402</ele>
        <time>2025-10-14T12:21:09Z</time>
      </trkpt>
      <trkpt lat="-18.09525" lon="-69.03387">
        <ele>4402</ele>
        <time>2025-10-14T12:21:17Z</time>
      </trkpt>
      <trkpt lat="-18.09515" lon="-69.03393">
        <ele>4401</ele>
        <time>2025-10-14T12:21:29Z</time>
      </trkpt>
      <trkpt lat="-18.09509" lon="-69.03398">
        <ele>4402</ele>
        <time>2025-10-14T12:21:37Z</time>
      </trkpt>
      <trkpt lat="-18.09489" lon="-69.03425">
        <ele>4405</ele>
        <time>2025-10-14T12:22:09Z</time>
      </trkpt>
      <trkpt lat="-18.09479" lon="-69.03441">
        <ele>4405</ele>
        <time>2025-10-14T12:22:29Z</time>
      </trkpt>
      <trkpt lat="-18.09476" lon="-69.03449">
        <ele>4404</ele>
        <time>2025-10-14T12:22:37Z</time>
      </trkpt>
      <trkpt lat="-18.09474" lon="-69.03453">
        <ele>4404</ele>
        <time>2025-10-14T12:22:41Z</time>
      </trkpt>
      <trkpt lat="-18.09472" lon="-69.03458">
        <ele>4404</ele>
        <time>2025-10-14T12:22:45Z</time>
      </trkpt>
      <trkpt lat="-18.09472" lon="-69.03463">
        <ele>4404</ele>
        <time>2025-10-14T12:22:49Z</time>
      </trkpt>
      <trkpt lat="-18.09468" lon="-69.03467">
        <ele>4401</ele>
        <time>2025-10-14T12:22:53Z</time>
      </trkpt>
      <trkpt lat="-18.09468" lon="-69.03463">
        <ele>4401</ele>
        <time>2025-10-14T12:22:57Z</time>
      </trkpt>
      <trkpt lat="-18.09473" lon="-69.03458">
        <ele>4401</ele>
        <time>2025-10-14T12:23:03Z</time>
      </trkpt>
      <trkpt lat="-18.09472" lon="-69.03461">
        <ele>4403</ele>
        <time>2025-10-14T12:23:16Z</time>
      </trkpt>
      <trkpt lat="-18.0947" lon="-69.03465">
        <ele>4404</ele>
        <time>2025-10-14T12:24:06Z</time>
      </trkpt>
      <trkpt lat="-18.09469" lon="-69.03469">
        <ele>4404</ele>
        <time>2025-10-14T12:24:16Z</time>
      </trkpt>
      <trkpt lat="-18.09461" lon="-69.03482">
        <ele>4407</ele>
        <time>2025-10-14T12:24:50Z</time>
      </trkpt>
      <trkpt lat="-18.09449" lon="-69.03498">
        <ele>4408</ele>
        <time>2025-10-14T12:25:20Z</time>
      </trkpt>
      <trkpt lat="-18.09432" lon="-69.03516">
        <ele>4408</ele>
        <time>2025-10-14T12:25:52Z</time>
      </trkpt>
      <trkpt lat="-18.09414" lon="-69.03536">
        <ele>4408</ele>
        <time>2025-10-14T12:26:22Z</time>
      </trkpt>
      <trkpt lat="-18.09409" lon="-69.03541">
        <ele>4409</ele>
        <time>2025-10-14T12:26:30Z</time>
      </trkpt>
      <trkpt lat="-18.09406" lon="-69.03545">
        <ele>4410</ele>
        <time>2025-10-14T12:26:36Z</time>
      </trkpt>
      <trkpt lat="-18.09403" lon="-69.03549">
        <ele>4410</ele>
        <time>2025-10-14T12:26:42Z</time>
      </trkpt>
      <trkpt lat="-18.09399" lon="-69.03552">
        <ele>4410</ele>
        <time>2025-10-14T12:26:48Z</time>
      </trkpt>
      <trkpt lat="-18.09383" lon="-69.03573">
        <ele>4410</ele>
        <time>2025-10-14T12:27:20Z</time>
      </trkpt>
      <trkpt lat="-18.0936" lon="-69.03598">
        <ele>4408</ele>
        <time>2025-10-14T12:27:52Z</time>
      </trkpt>
      <trkpt lat="-18.09339" lon="-69.03622">
        <ele>4408</ele>
        <time>2025-10-14T12:28:24Z</time>
      </trkpt>
      <trkpt lat="-18.0932" lon="-69.03644">
        <ele>4408</ele>
        <time>2025-10-14T12:28:52Z</time>
      </trkpt>
      <trkpt lat="-18.09295" lon="-69.03665">
        <ele>4409</ele>
        <time>2025-10-14T12:29:26Z</time>
      </trkpt>
      <trkpt lat="-18.09285" lon="-69.03671">
        <ele>4409</ele>
        <time>2025-10-14T12:29:38Z</time>
      </trkpt>
      <trkpt lat="-18.09278" lon="-69.03675">
        <ele>4410</ele>
        <time>2025-10-14T12:29:46Z</time>
      </trkpt>
      <trkpt lat="-18.09271" lon="-69.03682">
        <ele>4411</ele>
        <time>2025-10-14T12:29:58Z</time>
      </trkpt>
      <trkpt lat="-18.09258" lon="-69.03698">
        <ele>4413</ele>
        <time>2025-10-14T12:30:22Z</time>
      </trkpt>
      <trkpt lat="-18.09251" lon="-69.03706">
        <ele>4412</ele>
        <time>2025-10-14T12:30:34Z</time>
      </trkpt>
      <trkpt lat="-18.09245" lon="-69.03715">
        <ele>4412</ele>
        <time>2025-10-14T12:30:46Z</time>
      </trkpt>
      <trkpt lat="-18.09243" lon="-69.03719">
        <ele>4412</ele>
        <time>2025-10-14T12:30:50Z</time>
      </trkpt>
      <trkpt lat="-18.09241" lon="-69.03722">
        <ele>4412</ele>
        <time>2025-10-14T12:30:54Z</time>
      </trkpt>
      <trkpt lat="-18.09241" lon="-69.03722">
        <ele>4412</ele>
        <time>2025-10-14T12:31:00Z</time>
      </trkpt>
      <trkpt lat="-18.09237" lon="-69.03726">
        <ele>4413</ele>
        <time>2025-10-14T12:31:04Z</time>
      </trkpt>
      <trkpt lat="-18.09224" lon="-69.03755">
        <ele>4414</ele>
        <time>2025-10-14T12:31:36Z</time>
      </trkpt>
      <trkpt lat="-18.09219" lon="-69.03766">
        <ele>4415</ele>
        <time>2025-10-14T12:31:50Z</time>
      </trkpt>
      <trkpt lat="-18.09218" lon="-69.0377">
        <ele>4415</ele>
        <time>2025-10-14T12:31:54Z</time>
      </trkpt>
      <trkpt lat="-18.09217" lon="-69.03774">
        <ele>4416</ele>
        <time>2025-10-14T12:31:58Z</time>
      </trkpt>
      <trkpt lat="-18.09214" lon="-69.03776">
        <ele>4416</ele>
        <time>2025-10-14T12:32:02Z</time>
      </trkpt>
      <trkpt lat="-18.09212" lon="-69.03783">
        <ele>4418</ele>
        <time>2025-10-14T12:32:10Z</time>
      </trkpt>
      <trkpt lat="-18.09204" lon="-69.03806">
        <ele>4422</ele>
        <time>2025-10-14T12:32:38Z</time>
      </trkpt>
      <trkpt lat="-18.092" lon="-69.03814">
        <ele>4422</ele>
        <time>2025-10-14T12:32:50Z</time>
      </trkpt>
      <trkpt lat="-18.09191" lon="-69.03842">
        <ele>4424</ele>
        <time>2025-10-14T12:33:20Z</time>
      </trkpt>
      <trkpt lat="-18.0919" lon="-69.0385">
        <ele>4424</ele>
        <time>2025-10-14T12:33:28Z</time>
      </trkpt>
      <trkpt lat="-18.09188" lon="-69.03882">
        <ele>4422</ele>
        <time>2025-10-14T12:34:00Z</time>
      </trkpt>
      <trkpt lat="-18.09187" lon="-69.03894">
        <ele>4422</ele>
        <time>2025-10-14T12:34:12Z</time>
      </trkpt>
      <trkpt lat="-18.0919" lon="-69.03927">
        <ele>4422</ele>
        <time>2025-10-14T12:34:44Z</time>
      </trkpt>
      <trkpt lat="-18.0919" lon="-69.03931">
        <ele>4422</ele>
        <time>2025-10-14T12:34:50Z</time>
      </trkpt>
      <trkpt lat="-18.09189" lon="-69.03943">
        <ele>4424</ele>
        <time>2025-10-14T12:35:28Z</time>
      </trkpt>
      <trkpt lat="-18.09186" lon="-69.03964">
        <ele>4425</ele>
        <time>2025-10-14T12:35:50Z</time>
      </trkpt>
      <trkpt lat="-18.09187" lon="-69.03968">
        <ele>4425</ele>
        <time>2025-10-14T12:35:54Z</time>
      </trkpt>
      <trkpt lat="-18.09186" lon="-69.03972">
        <ele>4425</ele>
        <time>2025-10-14T12:36:18Z</time>
      </trkpt>
      <trkpt lat="-18.09185" lon="-69.03981">
        <ele>4426</ele>
        <time>2025-10-14T12:36:26Z</time>
      </trkpt>
      <trkpt lat="-18.09183" lon="-69.03998">
        <ele>4428</ele>
        <time>2025-10-14T12:36:42Z</time>
      </trkpt>
      <trkpt lat="-18.09183" lon="-69.04002">
        <ele>4428</ele>
        <time>2025-10-14T12:36:46Z</time>
      </trkpt>
      <trkpt lat="-18.09179" lon="-69.04019">
        <ele>4430</ele>
        <time>2025-10-14T12:37:02Z</time>
      </trkpt>
      <trkpt lat="-18.09175" lon="-69.04046">
        <ele>4430</ele>
        <time>2025-10-14T12:37:26Z</time>
      </trkpt>
      <trkpt lat="-18.09174" lon="-69.0405">
        <ele>4430</ele>
        <time>2025-10-14T12:37:30Z</time>
      </trkpt>
      <trkpt lat="-18.09174" lon="-69.04058">
        <ele>4429</ele>
        <time>2025-10-14T12:37:38Z</time>
      </trkpt>
      <trkpt lat="-18.09172" lon="-69.04061">
        <ele>4430</ele>
        <time>2025-10-14T12:37:54Z</time>
      </trkpt>
      <trkpt lat="-18.09172" lon="-69.04066">
        <ele>4430</ele>
        <time>2025-10-14T12:38:00Z</time>
      </trkpt>
      <trkpt lat="-18.09164" lon="-69.04094">
        <ele>4431</ele>
        <time>2025-10-14T12:38:30Z</time>
      </trkpt>
      <trkpt lat="-18.09154" lon="-69.04127">
        <ele>4431</ele>
        <time>2025-10-14T12:39:04Z</time>
      </trkpt>
      <trkpt lat="-18.09143" lon="-69.04156">
        <ele>4433</ele>
        <time>2025-10-14T12:39:34Z</time>
      </trkpt>
      <trkpt lat="-18.09132" lon="-69.04187">
        <ele>4433</ele>
        <time>2025-10-14T12:40:06Z</time>
      </trkpt>
      <trkpt lat="-18.09128" lon="-69.04194">
        <ele>4433</ele>
        <time>2025-10-14T12:40:14Z</time>
      </trkpt>
      <trkpt lat="-18.09126" lon="-69.04197">
        <ele>4434</ele>
        <time>2025-10-14T12:40:18Z</time>
      </trkpt>
      <trkpt lat="-18.09124" lon="-69.04201">
        <ele>4434</ele>
        <time>2025-10-14T12:40:22Z</time>
      </trkpt>
      <trkpt lat="-18.09117" lon="-69.04212">
        <ele>4433</ele>
        <time>2025-10-14T12:40:34Z</time>
      </trkpt>
      <trkpt lat="-18.091" lon="-69.04239">
        <ele>4434</ele>
        <time>2025-10-14T12:41:06Z</time>
      </trkpt>
      <trkpt lat="-18.09079" lon="-69.04263">
        <ele>4434</ele>
        <time>2025-10-14T12:41:36Z</time>
      </trkpt>
      <trkpt lat="-18.09058" lon="-69.04291">
        <ele>4435</ele>
        <time>2025-10-14T12:42:08Z</time>
      </trkpt>
      <trkpt lat="-18.09049" lon="-69.04302">
        <ele>4435</ele>
        <time>2025-10-14T12:42:20Z</time>
      </trkpt>
      <trkpt lat="-18.09043" lon="-69.04308">
        <ele>4435</ele>
        <time>2025-10-14T12:42:28Z</time>
      </trkpt>
      <trkpt lat="-18.09023" lon="-69.04334">
        <ele>4436</ele>
        <time>2025-10-14T12:43:00Z</time>
      </trkpt>
      <trkpt lat="-18.08999" lon="-69.04361">
        <ele>4435</ele>
        <time>2025-10-14T12:43:32Z</time>
      </trkpt>
      <trkpt lat="-18.08977" lon="-69.04387">
        <ele>4435</ele>
        <time>2025-10-14T12:44:04Z</time>
      </trkpt>
      <trkpt lat="-18.08954" lon="-69.04413">
        <ele>4437</ele>
        <time>2025-10-14T12:44:36Z</time>
      </trkpt>
      <trkpt lat="-18.08936" lon="-69.0443">
        <ele>4437</ele>
        <time>2025-10-14T12:45:00Z</time>
      </trkpt>
      <trkpt lat="-18.08907" lon="-69.04446">
        <ele>4439</ele>
        <time>2025-10-14T12:45:32Z</time>
      </trkpt>
      <trkpt lat="-18.08904" lon="-69.04448">
        <ele>4439</ele>
        <time>2025-10-14T12:45:36Z</time>
      </trkpt>
      <trkpt lat="-18.08898" lon="-69.04455">
        <ele>4440</ele>
        <time>2025-10-14T12:45:46Z</time>
      </trkpt>
      <trkpt lat="-18.08897" lon="-69.04459">
        <ele>4440</ele>
        <time>2025-10-14T12:45:50Z</time>
      </trkpt>
      <trkpt lat="-18.08896" lon="-69.04463">
        <ele>4441</ele>
        <time>2025-10-14T12:45:56Z</time>
      </trkpt>
      <trkpt lat="-18.08872" lon="-69.04486">
        <ele>4441</ele>
        <time>2025-10-14T12:46:28Z</time>
      </trkpt>
      <trkpt lat="-18.08859" lon="-69.04501">
        <ele>4440</ele>
        <time>2025-10-14T12:46:48Z</time>
      </trkpt>
      <trkpt lat="-18.08854" lon="-69.04516">
        <ele>4440</ele>
        <time>2025-10-14T12:47:04Z</time>
      </trkpt>
      <trkpt lat="-18.08853" lon="-69.04524">
        <ele>4439</ele>
        <time>2025-10-14T12:47:12Z</time>
      </trkpt>
      <trkpt lat="-18.08853" lon="-69.04528">
        <ele>4439</ele>
        <time>2025-10-14T12:47:16Z</time>
      </trkpt>
      <trkpt lat="-18.08852" lon="-69.04538">
        <ele>4441</ele>
        <time>2025-10-14T12:47:24Z</time>
      </trkpt>
      <trkpt lat="-18.0885" lon="-69.04545">
        <ele>4440</ele>
        <time>2025-10-14T12:47:32Z</time>
      </trkpt>
      <trkpt lat="-18.0883" lon="-69.04569">
        <ele>4442</ele>
        <time>2025-10-14T12:48:04Z</time>
      </trkpt>
      <trkpt lat="-18.08828" lon="-69.04572">
        <ele>4442</ele>
        <time>2025-10-14T12:48:08Z</time>
      </trkpt>
      <trkpt lat="-18.08812" lon="-69.04595">
        <ele>4444</ele>
        <time>2025-10-14T12:48:36Z</time>
      </trkpt>
      <trkpt lat="-18.08805" lon="-69.04607">
        <ele>4443</ele>
        <time>2025-10-14T12:48:50Z</time>
      </trkpt>
      <trkpt lat="-18.08785" lon="-69.04633">
        <ele>4443</ele>
        <time>2025-10-14T12:49:23Z</time>
      </trkpt>
      <trkpt lat="-18.08767" lon="-69.04661">
        <ele>4445</ele>
        <time>2025-10-14T12:49:55Z</time>
      </trkpt>
      <trkpt lat="-18.08753" lon="-69.04691">
        <ele>4443</ele>
        <time>2025-10-14T12:50:27Z</time>
      </trkpt>
      <trkpt lat="-18.08748" lon="-69.04697">
        <ele>4444</ele>
        <time>2025-10-14T12:50:35Z</time>
      </trkpt>
      <trkpt lat="-18.08746" lon="-69.047">
        <ele>4444</ele>
        <time>2025-10-14T12:50:39Z</time>
      </trkpt>
      <trkpt lat="-18.08744" lon="-69.04704">
        <ele>4444</ele>
        <time>2025-10-14T12:50:43Z</time>
      </trkpt>
      <trkpt lat="-18.08737" lon="-69.0472">
        <ele>4445</ele>
        <time>2025-10-14T12:50:59Z</time>
      </trkpt>
      <trkpt lat="-18.08728" lon="-69.04734">
        <ele>4448</ele>
        <time>2025-10-14T12:51:17Z</time>
      </trkpt>
      <trkpt lat="-18.08721" lon="-69.04739">
        <ele>4448</ele>
        <time>2025-10-14T12:51:25Z</time>
      </trkpt>
      <trkpt lat="-18.08717" lon="-69.0474">
        <ele>4449</ele>
        <time>2025-10-14T12:51:31Z</time>
      </trkpt>
      <trkpt lat="-18.08712" lon="-69.04741">
        <ele>4450</ele>
        <time>2025-10-14T12:51:37Z</time>
      </trkpt>
      <trkpt lat="-18.0871" lon="-69.04744">
        <ele>4452</ele>
        <time>2025-10-14T12:51:43Z</time>
      </trkpt>
      <trkpt lat="-18.08708" lon="-69.04748">
        <ele>4453</ele>
        <time>2025-10-14T12:51:49Z</time>
      </trkpt>
      <trkpt lat="-18.0871" lon="-69.04751">
        <ele>4453</ele>
        <time>2025-10-14T12:51:53Z</time>
      </trkpt>
      <trkpt lat="-18.08709" lon="-69.04755">
        <ele>4452</ele>
        <time>2025-10-14T12:52:05Z</time>
      </trkpt>
      <trkpt lat="-18.08707" lon="-69.04759">
        <ele>4452</ele>
        <time>2025-10-14T12:52:13Z</time>
      </trkpt>
      <trkpt lat="-18.08704" lon="-69.04762">
        <ele>4452</ele>
        <time>2025-10-14T12:52:19Z</time>
      </trkpt>
      <trkpt lat="-18.08687" lon="-69.04783">
        <ele>4453</ele>
        <time>2025-10-14T12:52:51Z</time>
      </trkpt>
      <trkpt lat="-18.08684" lon="-69.04787">
        <ele>4453</ele>
        <time>2025-10-14T12:52:57Z</time>
      </trkpt>
      <trkpt lat="-18.08679" lon="-69.04788">
        <ele>4453</ele>
        <time>2025-10-14T12:53:03Z</time>
      </trkpt>
      <trkpt lat="-18.08676" lon="-69.0479">
        <ele>4453</ele>
        <time>2025-10-14T12:53:07Z</time>
      </trkpt>
      <trkpt lat="-18.08651" lon="-69.048">
        <ele>4456</ele>
        <time>2025-10-14T12:53:39Z</time>
      </trkpt>
      <trkpt lat="-18.08648" lon="-69.04802">
        <ele>4456</ele>
        <time>2025-10-14T12:53:43Z</time>
      </trkpt>
      <trkpt lat="-18.08637" lon="-69.04805">
        <ele>4456</ele>
        <time>2025-10-14T12:53:55Z</time>
      </trkpt>
      <trkpt lat="-18.08634" lon="-69.04806">
        <ele>4456</ele>
        <time>2025-10-14T12:53:59Z</time>
      </trkpt>
      <trkpt lat="-18.08619" lon="-69.0481">
        <ele>4457</ele>
        <time>2025-10-14T12:54:17Z</time>
      </trkpt>
      <trkpt lat="-18.08616" lon="-69.04811">
        <ele>4457</ele>
        <time>2025-10-14T12:54:21Z</time>
      </trkpt>
      <trkpt lat="-18.08613" lon="-69.04814">
        <ele>4457</ele>
        <time>2025-10-14T12:54:25Z</time>
      </trkpt>
      <trkpt lat="-18.08589" lon="-69.04825">
        <ele>4459</ele>
        <time>2025-10-14T12:54:55Z</time>
      </trkpt>
      <trkpt lat="-18.08575" lon="-69.04831">
        <ele>4459</ele>
        <time>2025-10-14T12:55:11Z</time>
      </trkpt>
      <trkpt lat="-18.0855" lon="-69.04848">
        <ele>4458</ele>
        <time>2025-10-14T12:55:43Z</time>
      </trkpt>
      <trkpt lat="-18.08547" lon="-69.0485">
        <ele>4459</ele>
        <time>2025-10-14T12:55:47Z</time>
      </trkpt>
      <trkpt lat="-18.08545" lon="-69.04854">
        <ele>4459</ele>
        <time>2025-10-14T12:55:51Z</time>
      </trkpt>
      <trkpt lat="-18.08525" lon="-69.0487">
        <ele>4461</ele>
        <time>2025-10-14T12:56:21Z</time>
      </trkpt>
      <trkpt lat="-18.08511" lon="-69.04886">
        <ele>4460</ele>
        <time>2025-10-14T12:56:43Z</time>
      </trkpt>
      <trkpt lat="-18.08508" lon="-69.04889">
        <ele>4461</ele>
        <time>2025-10-14T12:56:49Z</time>
      </trkpt>
      <trkpt lat="-18.08503" lon="-69.04894">
        <ele>4460</ele>
        <time>2025-10-14T12:56:57Z</time>
      </trkpt>
      <trkpt lat="-18.08488" lon="-69.04913">
        <ele>4460</ele>
        <time>2025-10-14T12:57:23Z</time>
      </trkpt>
      <trkpt lat="-18.08479" lon="-69.04921">
        <ele>4462</ele>
        <time>2025-10-14T12:57:39Z</time>
      </trkpt>
      <trkpt lat="-18.08464" lon="-69.04943">
        <ele>4465</ele>
        <time>2025-10-14T12:58:09Z</time>
      </trkpt>
      <trkpt lat="-18.08462" lon="-69.04947">
        <ele>4466</ele>
        <time>2025-10-14T12:58:13Z</time>
      </trkpt>
      <trkpt lat="-18.08461" lon="-69.0495">
        <ele>4466</ele>
        <time>2025-10-14T12:58:17Z</time>
      </trkpt>
      <trkpt lat="-18.08456" lon="-69.04962">
        <ele>4466</ele>
        <time>2025-10-14T12:58:31Z</time>
      </trkpt>
      <trkpt lat="-18.08455" lon="-69.04974">
        <ele>4464</ele>
        <time>2025-10-14T12:58:45Z</time>
      </trkpt>
      <trkpt lat="-18.08444" lon="-69.04993">
        <ele>4463</ele>
        <time>2025-10-14T12:59:11Z</time>
      </trkpt>
      <trkpt lat="-18.08446" lon="-69.05001">
        <ele>4461</ele>
        <time>2025-10-14T12:59:21Z</time>
      </trkpt>
      <trkpt lat="-18.0845" lon="-69.05012">
        <ele>4459</ele>
        <time>2025-10-14T12:59:33Z</time>
      </trkpt>
      <trkpt lat="-18.0845" lon="-69.05017">
        <ele>4459</ele>
        <time>2025-10-14T12:59:39Z</time>
      </trkpt>
      <trkpt lat="-18.08448" lon="-69.0502">
        <ele>4460</ele>
        <time>2025-10-14T12:59:43Z</time>
      </trkpt>
      <trkpt lat="-18.08441" lon="-69.05023">
        <ele>4461</ele>
        <time>2025-10-14T12:59:51Z</time>
      </trkpt>
      <trkpt lat="-18.08437" lon="-69.05023">
        <ele>4462</ele>
        <time>2025-10-14T12:59:55Z</time>
      </trkpt>
      <trkpt lat="-18.08433" lon="-69.05021">
        <ele>4463</ele>
        <time>2025-10-14T13:00:01Z</time>
      </trkpt>
      <trkpt lat="-18.08428" lon="-69.05021">
        <ele>4464</ele>
        <time>2025-10-14T13:00:07Z</time>
      </trkpt>
      <trkpt lat="-18.0842" lon="-69.05029">
        <ele>4467</ele>
        <time>2025-10-14T13:00:25Z</time>
      </trkpt>
      <trkpt lat="-18.08419" lon="-69.05034">
        <ele>4467</ele>
        <time>2025-10-14T13:00:31Z</time>
      </trkpt>
      <trkpt lat="-18.08417" lon="-69.05037">
        <ele>4468</ele>
        <time>2025-10-14T13:00:37Z</time>
      </trkpt>
      <trkpt lat="-18.08414" lon="-69.05039">
        <ele>4470</ele>
        <time>2025-10-14T13:00:45Z</time>
      </trkpt>
      <trkpt lat="-18.0841" lon="-69.05051">
        <ele>4471</ele>
        <time>2025-10-14T13:01:03Z</time>
      </trkpt>
      <trkpt lat="-18.08406" lon="-69.05059">
        <ele>4472</ele>
        <time>2025-10-14T13:01:15Z</time>
      </trkpt>
      <trkpt lat="-18.08405" lon="-69.05063">
        <ele>4472</ele>
        <time>2025-10-14T13:01:23Z</time>
      </trkpt>
      <trkpt lat="-18.08394" lon="-69.05083">
        <ele>4473</ele>
        <time>2025-10-14T13:01:53Z</time>
      </trkpt>
      <trkpt lat="-18.08383" lon="-69.05106">
        <ele>4475</ele>
        <time>2025-10-14T13:02:29Z</time>
      </trkpt>
      <trkpt lat="-18.08376" lon="-69.05117">
        <ele>4475</ele>
        <time>2025-10-14T13:02:45Z</time>
      </trkpt>
      <trkpt lat="-18.08363" lon="-69.05136">
        <ele>4477</ele>
        <time>2025-10-14T13:03:15Z</time>
      </trkpt>
      <trkpt lat="-18.08361" lon="-69.05139">
        <ele>4477</ele>
        <time>2025-10-14T13:03:19Z</time>
      </trkpt>
      <trkpt lat="-18.08354" lon="-69.05158">
        <ele>4475</ele>
        <time>2025-10-14T13:03:43Z</time>
      </trkpt>
      <trkpt lat="-18.08354" lon="-69.05162">
        <ele>4475</ele>
        <time>2025-10-14T13:03:47Z</time>
      </trkpt>
      <trkpt lat="-18.08351" lon="-69.05164">
        <ele>4475</ele>
        <time>2025-10-14T13:03:51Z</time>
      </trkpt>
      <trkpt lat="-18.08347" lon="-69.05162">
        <ele>4478</ele>
        <time>2025-10-14T13:03:59Z</time>
      </trkpt>
      <trkpt lat="-18.08332" lon="-69.05165">
        <ele>4484</ele>
        <time>2025-10-14T13:04:29Z</time>
      </trkpt>
      <trkpt lat="-18.08326" lon="-69.05168">
        <ele>4486</ele>
        <time>2025-10-14T13:04:43Z</time>
      </trkpt>
      <trkpt lat="-18.08323" lon="-69.05172">
        <ele>4486</ele>
        <time>2025-10-14T13:04:49Z</time>
      </trkpt>
      <trkpt lat="-18.08322" lon="-69.05175">
        <ele>4486</ele>
        <time>2025-10-14T13:04:55Z</time>
      </trkpt>
      <trkpt lat="-18.08323" lon="-69.0518">
        <ele>4486</ele>
        <time>2025-10-14T13:05:01Z</time>
      </trkpt>
      <trkpt lat="-18.08321" lon="-69.05183">
        <ele>4489</ele>
        <time>2025-10-14T13:05:25Z</time>
      </trkpt>
      <trkpt lat="-18.08322" lon="-69.05188">
        <ele>4490</ele>
        <time>2025-10-14T13:05:33Z</time>
      </trkpt>
      <trkpt lat="-18.08319" lon="-69.05195">
        <ele>4494</ele>
        <time>2025-10-14T13:05:53Z</time>
      </trkpt>
      <trkpt lat="-18.08316" lon="-69.05202">
        <ele>4496</ele>
        <time>2025-10-14T13:06:09Z</time>
      </trkpt>
      <trkpt lat="-18.08314" lon="-69.05206">
        <ele>4498</ele>
        <time>2025-10-14T13:06:17Z</time>
      </trkpt>
      <trkpt lat="-18.08314" lon="-69.05209">
        <ele>4498</ele>
        <time>2025-10-14T13:06:33Z</time>
      </trkpt>
      <trkpt lat="-18.0831" lon="-69.05217">
        <ele>4499</ele>
        <time>2025-10-14T13:06:55Z</time>
      </trkpt>
      <trkpt lat="-18.08304" lon="-69.05223">
        <ele>4500</ele>
        <time>2025-10-14T13:07:13Z</time>
      </trkpt>
      <trkpt lat="-18.08303" lon="-69.05227">
        <ele>4501</ele>
        <time>2025-10-14T13:07:21Z</time>
      </trkpt>
      <trkpt lat="-18.08294" lon="-69.0524">
        <ele>4505</ele>
        <time>2025-10-14T13:07:51Z</time>
      </trkpt>
      <trkpt lat="-18.0829" lon="-69.05247">
        <ele>4506</ele>
        <time>2025-10-14T13:08:05Z</time>
      </trkpt>
      <trkpt lat="-18.08287" lon="-69.05249">
        <ele>4506</ele>
        <time>2025-10-14T13:08:11Z</time>
      </trkpt>
      <trkpt lat="-18.08283" lon="-69.05248">
        <ele>4507</ele>
        <time>2025-10-14T13:08:15Z</time>
      </trkpt>
      <trkpt lat="-18.08281" lon="-69.05251">
        <ele>4507</ele>
        <time>2025-10-14T13:08:23Z</time>
      </trkpt>
      <trkpt lat="-18.08277" lon="-69.05251">
        <ele>4507</ele>
        <time>2025-10-14T13:08:35Z</time>
      </trkpt>
      <trkpt lat="-18.08274" lon="-69.0525">
        <ele>4507</ele>
        <time>2025-10-14T13:08:43Z</time>
      </trkpt>
      <trkpt lat="-18.08266" lon="-69.05255">
        <ele>4508</ele>
        <time>2025-10-14T13:08:55Z</time>
      </trkpt>
      <trkpt lat="-18.08262" lon="-69.05255">
        <ele>4508</ele>
        <time>2025-10-14T13:09:07Z</time>
      </trkpt>
      <trkpt lat="-18.0826" lon="-69.05259">
        <ele>4509</ele>
        <time>2025-10-14T13:09:25Z</time>
      </trkpt>
      <trkpt lat="-18.08257" lon="-69.0526">
        <ele>4509</ele>
        <time>2025-10-14T13:09:36Z</time>
      </trkpt>
      <trkpt lat="-18.08254" lon="-69.05262">
        <ele>4509</ele>
        <time>2025-10-14T13:09:42Z</time>
      </trkpt>
      <trkpt lat="-18.0825" lon="-69.05264">
        <ele>4509</ele>
        <time>2025-10-14T13:09:48Z</time>
      </trkpt>
      <trkpt lat="-18.08248" lon="-69.05268">
        <ele>4509</ele>
        <time>2025-10-14T13:09:54Z</time>
      </trkpt>
      <trkpt lat="-18.0825" lon="-69.05277">
        <ele>4509</ele>
        <time>2025-10-14T13:10:06Z</time>
      </trkpt>
      <trkpt lat="-18.08248" lon="-69.05285">
        <ele>4510</ele>
        <time>2025-10-14T13:10:20Z</time>
      </trkpt>
      <trkpt lat="-18.08245" lon="-69.05289">
        <ele>4510</ele>
        <time>2025-10-14T13:10:26Z</time>
      </trkpt>
      <trkpt lat="-18.08242" lon="-69.05291">
        <ele>4510</ele>
        <time>2025-10-14T13:10:32Z</time>
      </trkpt>
      <trkpt lat="-18.08239" lon="-69.05292">
        <ele>4511</ele>
        <time>2025-10-14T13:10:36Z</time>
      </trkpt>
      <trkpt lat="-18.08229" lon="-69.053">
        <ele>4511</ele>
        <time>2025-10-14T13:10:52Z</time>
      </trkpt>
      <trkpt lat="-18.08223" lon="-69.05308">
        <ele>4510</ele>
        <time>2025-10-14T13:11:04Z</time>
      </trkpt>
      <trkpt lat="-18.08204" lon="-69.05326">
        <ele>4509</ele>
        <time>2025-10-14T13:11:36Z</time>
      </trkpt>
      <trkpt lat="-18.08193" lon="-69.05337">
        <ele>4509</ele>
        <time>2025-10-14T13:11:56Z</time>
      </trkpt>
      <trkpt lat="-18.08191" lon="-69.05341">
        <ele>4509</ele>
        <time>2025-10-14T13:12:02Z</time>
      </trkpt>
      <trkpt lat="-18.08189" lon="-69.05346">
        <ele>4509</ele>
        <time>2025-10-14T13:12:08Z</time>
      </trkpt>
      <trkpt lat="-18.08187" lon="-69.05349">
        <ele>4512</ele>
        <time>2025-10-14T13:12:38Z</time>
      </trkpt>
      <trkpt lat="-18.08187" lon="-69.05353">
        <ele>4513</ele>
        <time>2025-10-14T13:12:52Z</time>
      </trkpt>
      <trkpt lat="-18.08186" lon="-69.05357">
        <ele>4514</ele>
        <time>2025-10-14T13:12:58Z</time>
      </trkpt>
      <trkpt lat="-18.08187" lon="-69.05361">
        <ele>4515</ele>
        <time>2025-10-14T13:13:04Z</time>
      </trkpt>
      <trkpt lat="-18.08187" lon="-69.05364">
        <ele>4515</ele>
        <time>2025-10-14T13:13:14Z</time>
      </trkpt>
      <trkpt lat="-18.08185" lon="-69.05368">
        <ele>4516</ele>
        <time>2025-10-14T13:13:30Z</time>
      </trkpt>
      <trkpt lat="-18.08182" lon="-69.05367">
        <ele>4516</ele>
        <time>2025-10-14T13:13:46Z</time>
      </trkpt>
      <trkpt lat="-18.08178" lon="-69.05369">
        <ele>4517</ele>
        <time>2025-10-14T13:13:52Z</time>
      </trkpt>
      <trkpt lat="-18.08174" lon="-69.05369">
        <ele>4519</ele>
        <time>2025-10-14T13:14:02Z</time>
      </trkpt>
      <trkpt lat="-18.08167" lon="-69.05372">
        <ele>4522</ele>
        <time>2025-10-14T13:14:16Z</time>
      </trkpt>
      <trkpt lat="-18.08164" lon="-69.05376">
        <ele>4523</ele>
        <time>2025-10-14T13:14:24Z</time>
      </trkpt>
      <trkpt lat="-18.0816" lon="-69.05378">
        <ele>4525</ele>
        <time>2025-10-14T13:14:32Z</time>
      </trkpt>
      <trkpt lat="-18.08155" lon="-69.05383">
        <ele>4526</ele>
        <time>2025-10-14T13:14:46Z</time>
      </trkpt>
      <trkpt lat="-18.08156" lon="-69.05387">
        <ele>4526</ele>
        <time>2025-10-14T13:14:54Z</time>
      </trkpt>
      <trkpt lat="-18.08158" lon="-69.05391">
        <ele>4527</ele>
        <time>2025-10-14T13:15:02Z</time>
      </trkpt>
      <trkpt lat="-18.08157" lon="-69.054">
        <ele>4528</ele>
        <time>2025-10-14T13:15:20Z</time>
      </trkpt>
      <trkpt lat="-18.08157" lon="-69.05404">
        <ele>4528</ele>
        <time>2025-10-14T13:15:30Z</time>
      </trkpt>
      <trkpt lat="-18.08154" lon="-69.05407">
        <ele>4529</ele>
        <time>2025-10-14T13:15:40Z</time>
      </trkpt>
      <trkpt lat="-18.0815" lon="-69.05409">
        <ele>4530</ele>
        <time>2025-10-14T13:15:48Z</time>
      </trkpt>
      <trkpt lat="-18.08148" lon="-69.05412">
        <ele>4532</ele>
        <time>2025-10-14T13:15:56Z</time>
      </trkpt>
      <trkpt lat="-18.08149" lon="-69.05416">
        <ele>4532</ele>
        <time>2025-10-14T13:16:04Z</time>
      </trkpt>
      <trkpt lat="-18.0815" lon="-69.05424">
        <ele>4532</ele>
        <time>2025-10-14T13:16:22Z</time>
      </trkpt>
      <trkpt lat="-18.08149" lon="-69.05428">
        <ele>4533</ele>
        <time>2025-10-14T13:16:32Z</time>
      </trkpt>
      <trkpt lat="-18.08149" lon="-69.05432">
        <ele>4535</ele>
        <time>2025-10-14T13:16:42Z</time>
      </trkpt>
      <trkpt lat="-18.08146" lon="-69.05435">
        <ele>4534</ele>
        <time>2025-10-14T13:17:06Z</time>
      </trkpt>
      <trkpt lat="-18.08146" lon="-69.05439">
        <ele>4535</ele>
        <time>2025-10-14T13:17:16Z</time>
      </trkpt>
      <trkpt lat="-18.08146" lon="-69.05443">
        <ele>4536</ele>
        <time>2025-10-14T13:17:26Z</time>
      </trkpt>
      <trkpt lat="-18.08148" lon="-69.05446">
        <ele>4537</ele>
        <time>2025-10-14T13:17:34Z</time>
      </trkpt>
      <trkpt lat="-18.08144" lon="-69.05449">
        <ele>4538</ele>
        <time>2025-10-14T13:17:46Z</time>
      </trkpt>
      <trkpt lat="-18.0814" lon="-69.0545">
        <ele>4540</ele>
        <time>2025-10-14T13:17:54Z</time>
      </trkpt>
      <trkpt lat="-18.08137" lon="-69.05452">
        <ele>4541</ele>
        <time>2025-10-14T13:18:02Z</time>
      </trkpt>
      <trkpt lat="-18.08136" lon="-69.05456">
        <ele>4542</ele>
        <time>2025-10-14T13:18:12Z</time>
      </trkpt>
      <trkpt lat="-18.08133" lon="-69.05464">
        <ele>4543</ele>
        <time>2025-10-14T13:18:26Z</time>
      </trkpt>
      <trkpt lat="-18.0813" lon="-69.05472">
        <ele>4544</ele>
        <time>2025-10-14T13:18:42Z</time>
      </trkpt>
      <trkpt lat="-18.08129" lon="-69.05475">
        <ele>4545</ele>
        <time>2025-10-14T13:18:50Z</time>
      </trkpt>
      <trkpt lat="-18.0813" lon="-69.05479">
        <ele>4547</ele>
        <time>2025-10-14T13:18:58Z</time>
      </trkpt>
      <trkpt lat="-18.08129" lon="-69.05487">
        <ele>4547</ele>
        <time>2025-10-14T13:19:16Z</time>
      </trkpt>
      <trkpt lat="-18.08129" lon="-69.05491">
        <ele>4548</ele>
        <time>2025-10-14T13:19:24Z</time>
      </trkpt>
      <trkpt lat="-18.08129" lon="-69.05499">
        <ele>4549</ele>
        <time>2025-10-14T13:19:42Z</time>
      </trkpt>
      <trkpt lat="-18.08131" lon="-69.05503">
        <ele>4550</ele>
        <time>2025-10-14T13:19:50Z</time>
      </trkpt>
      <trkpt lat="-18.0813" lon="-69.05507">
        <ele>4550</ele>
        <time>2025-10-14T13:20:02Z</time>
      </trkpt>
      <trkpt lat="-18.08123" lon="-69.05511">
        <ele>4552</ele>
        <time>2025-10-14T13:20:18Z</time>
      </trkpt>
      <trkpt lat="-18.08125" lon="-69.0552">
        <ele>4553</ele>
        <time>2025-10-14T13:20:32Z</time>
      </trkpt>
      <trkpt lat="-18.08127" lon="-69.05523">
        <ele>4553</ele>
        <time>2025-10-14T13:20:38Z</time>
      </trkpt>
      <trkpt lat="-18.0813" lon="-69.05525">
        <ele>4553</ele>
        <time>2025-10-14T13:20:44Z</time>
      </trkpt>
      <trkpt lat="-18.08133" lon="-69.05528">
        <ele>4553</ele>
        <time>2025-10-14T13:20:52Z</time>
      </trkpt>
      <trkpt lat="-18.08134" lon="-69.05533">
        <ele>4553</ele>
        <time>2025-10-14T13:21:00Z</time>
      </trkpt>
      <trkpt lat="-18.08135" lon="-69.05536">
        <ele>4553</ele>
        <time>2025-10-14T13:21:08Z</time>
      </trkpt>
      <trkpt lat="-18.08136" lon="-69.0554">
        <ele>4554</ele>
        <time>2025-10-14T13:21:16Z</time>
      </trkpt>
      <trkpt lat="-18.08138" lon="-69.05556">
        <ele>4557</ele>
        <time>2025-10-14T13:21:48Z</time>
      </trkpt>
      <trkpt lat="-18.08139" lon="-69.05565">
        <ele>4558</ele>
        <time>2025-10-14T13:22:02Z</time>
      </trkpt>
      <trkpt lat="-18.0814" lon="-69.05569">
        <ele>4559</ele>
        <time>2025-10-14T13:22:10Z</time>
      </trkpt>
      <trkpt lat="-18.0814" lon="-69.05581">
        <ele>4562</ele>
        <time>2025-10-14T13:22:34Z</time>
      </trkpt>
      <trkpt lat="-18.08141" lon="-69.05585">
        <ele>4563</ele>
        <time>2025-10-14T13:22:50Z</time>
      </trkpt>
      <trkpt lat="-18.08143" lon="-69.05588">
        <ele>4564</ele>
        <time>2025-10-14T13:23:06Z</time>
      </trkpt>
      <trkpt lat="-18.08143" lon="-69.05593">
        <ele>4565</ele>
        <time>2025-10-14T13:27:42Z</time>
      </trkpt>
      <trkpt lat="-18.08138" lon="-69.05606">
        <ele>4566</ele>
        <time>2025-10-14T13:28:00Z</time>
      </trkpt>
      <trkpt lat="-18.08138" lon="-69.0561">
        <ele>4566</ele>
        <time>2025-10-14T13:28:06Z</time>
      </trkpt>
      <trkpt lat="-18.08139" lon="-69.05618">
        <ele>4566</ele>
        <time>2025-10-14T13:28:16Z</time>
      </trkpt>
      <trkpt lat="-18.08137" lon="-69.05622">
        <ele>4566</ele>
        <time>2025-10-14T13:28:22Z</time>
      </trkpt>
      <trkpt lat="-18.08136" lon="-69.05626">
        <ele>4566</ele>
        <time>2025-10-14T13:28:28Z</time>
      </trkpt>
      <trkpt lat="-18.08133" lon="-69.05629">
        <ele>4566</ele>
        <time>2025-10-14T13:28:36Z</time>
      </trkpt>
      <trkpt lat="-18.08128" lon="-69.0564">
        <ele>4568</ele>
        <time>2025-10-14T13:29:02Z</time>
      </trkpt>
      <trkpt lat="-18.08128" lon="-69.05645">
        <ele>4569</ele>
        <time>2025-10-14T13:29:10Z</time>
      </trkpt>
      <trkpt lat="-18.08126" lon="-69.05649">
        <ele>4569</ele>
        <time>2025-10-14T13:29:18Z</time>
      </trkpt>
      <trkpt lat="-18.08126" lon="-69.05653">
        <ele>4571</ele>
        <time>2025-10-14T13:29:24Z</time>
      </trkpt>
      <trkpt lat="-18.08125" lon="-69.05657">
        <ele>4571</ele>
        <time>2025-10-14T13:29:32Z</time>
      </trkpt>
      <trkpt lat="-18.08122" lon="-69.0566">
        <ele>4570</ele>
        <time>2025-10-14T13:29:42Z</time>
      </trkpt>
      <trkpt lat="-18.08121" lon="-69.05663">
        <ele>4571</ele>
        <time>2025-10-14T13:29:52Z</time>
      </trkpt>
      <trkpt lat="-18.08118" lon="-69.05667">
        <ele>4571</ele>
        <time>2025-10-14T13:30:02Z</time>
      </trkpt>
      <trkpt lat="-18.08116" lon="-69.0567">
        <ele>4572</ele>
        <time>2025-10-14T13:30:12Z</time>
      </trkpt>
      <trkpt lat="-18.08115" lon="-69.05674">
        <ele>4573</ele>
        <time>2025-10-14T13:30:22Z</time>
      </trkpt>
      <trkpt lat="-18.08114" lon="-69.05679">
        <ele>4574</ele>
        <time>2025-10-14T13:30:30Z</time>
      </trkpt>
      <trkpt lat="-18.08112" lon="-69.05687">
        <ele>4576</ele>
        <time>2025-10-14T13:30:48Z</time>
      </trkpt>
      <trkpt lat="-18.08113" lon="-69.0569">
        <ele>4577</ele>
        <time>2025-10-14T13:31:16Z</time>
      </trkpt>
      <trkpt lat="-18.08107" lon="-69.05702">
        <ele>4581</ele>
        <time>2025-10-14T13:31:48Z</time>
      </trkpt>
      <trkpt lat="-18.08104" lon="-69.05705">
        <ele>4582</ele>
        <time>2025-10-14T13:31:58Z</time>
      </trkpt>
      <trkpt lat="-18.08103" lon="-69.05709">
        <ele>4583</ele>
        <time>2025-10-14T13:32:06Z</time>
      </trkpt>
      <trkpt lat="-18.08099" lon="-69.05716">
        <ele>4585</ele>
        <time>2025-10-14T13:32:28Z</time>
      </trkpt>
      <trkpt lat="-18.08097" lon="-69.05719">
        <ele>4587</ele>
        <time>2025-10-14T13:32:38Z</time>
      </trkpt>
      <trkpt lat="-18.08095" lon="-69.05723">
        <ele>4588</ele>
        <time>2025-10-14T13:32:48Z</time>
      </trkpt>
      <trkpt lat="-18.08085" lon="-69.05735">
        <ele>4590</ele>
        <time>2025-10-14T13:33:22Z</time>
      </trkpt>
      <trkpt lat="-18.08076" lon="-69.05749">
        <ele>4593</ele>
        <time>2025-10-14T13:33:54Z</time>
      </trkpt>
      <trkpt lat="-18.08073" lon="-69.05753">
        <ele>4594</ele>
        <time>2025-10-14T13:34:02Z</time>
      </trkpt>
      <trkpt lat="-18.08071" lon="-69.05756">
        <ele>4595</ele>
        <time>2025-10-14T13:34:08Z</time>
      </trkpt>
      <trkpt lat="-18.0806" lon="-69.05759">
        <ele>4598</ele>
        <time>2025-10-14T13:34:34Z</time>
      </trkpt>
      <trkpt lat="-18.08056" lon="-69.05765">
        <ele>4599</ele>
        <time>2025-10-14T13:34:50Z</time>
      </trkpt>
      <trkpt lat="-18.08052" lon="-69.05765">
        <ele>4601</ele>
        <time>2025-10-14T13:35:00Z</time>
      </trkpt>
      <trkpt lat="-18.08046" lon="-69.0577">
        <ele>4603</ele>
        <time>2025-10-14T13:35:18Z</time>
      </trkpt>
      <trkpt lat="-18.08043" lon="-69.05772">
        <ele>4603</ele>
        <time>2025-10-14T13:35:26Z</time>
      </trkpt>
      <trkpt lat="-18.08031" lon="-69.05781">
        <ele>4608</ele>
        <time>2025-10-14T13:36:02Z</time>
      </trkpt>
      <trkpt lat="-18.0803" lon="-69.05785">
        <ele>4610</ele>
        <time>2025-10-14T13:36:14Z</time>
      </trkpt>
      <trkpt lat="-18.08014" lon="-69.05793">
        <ele>4613</ele>
        <time>2025-10-14T13:36:46Z</time>
      </trkpt>
      <trkpt lat="-18.0801" lon="-69.05793">
        <ele>4614</ele>
        <time>2025-10-14T13:36:54Z</time>
      </trkpt>
      <trkpt lat="-18.07997" lon="-69.05802">
        <ele>4615</ele>
        <time>2025-10-14T13:37:26Z</time>
      </trkpt>
      <trkpt lat="-18.07985" lon="-69.05812">
        <ele>4619</ele>
        <time>2025-10-14T13:37:56Z</time>
      </trkpt>
      <trkpt lat="-18.0798" lon="-69.05818">
        <ele>4620</ele>
        <time>2025-10-14T13:38:12Z</time>
      </trkpt>
      <trkpt lat="-18.07977" lon="-69.0582">
        <ele>4620</ele>
        <time>2025-10-14T13:38:20Z</time>
      </trkpt>
      <trkpt lat="-18.07974" lon="-69.05823">
        <ele>4621</ele>
        <time>2025-10-14T13:38:28Z</time>
      </trkpt>
      <trkpt lat="-18.07968" lon="-69.05828">
        <ele>4622</ele>
        <time>2025-10-14T13:38:44Z</time>
      </trkpt>
      <trkpt lat="-18.07957" lon="-69.0584">
        <ele>4625</ele>
        <time>2025-10-14T13:39:16Z</time>
      </trkpt>
      <trkpt lat="-18.07951" lon="-69.05847">
        <ele>4626</ele>
        <time>2025-10-14T13:39:58Z</time>
      </trkpt>
      <trkpt lat="-18.07948" lon="-69.05848">
        <ele>4626</ele>
        <time>2025-10-14T13:40:04Z</time>
      </trkpt>
      <trkpt lat="-18.07944" lon="-69.05849">
        <ele>4627</ele>
        <time>2025-10-14T13:40:12Z</time>
      </trkpt>
      <trkpt lat="-18.07942" lon="-69.05853">
        <ele>4629</ele>
        <time>2025-10-14T13:40:20Z</time>
      </trkpt>
      <trkpt lat="-18.07939" lon="-69.05855">
        <ele>4629</ele>
        <time>2025-10-14T13:40:26Z</time>
      </trkpt>
      <trkpt lat="-18.07936" lon="-69.05856">
        <ele>4630</ele>
        <time>2025-10-14T13:40:32Z</time>
      </trkpt>
      <trkpt lat="-18.07932" lon="-69.05859">
        <ele>4631</ele>
        <time>2025-10-14T13:40:40Z</time>
      </trkpt>
      <trkpt lat="-18.07929" lon="-69.05862">
        <ele>4632</ele>
        <time>2025-10-14T13:40:58Z</time>
      </trkpt>
      <trkpt lat="-18.07925" lon="-69.05865">
        <ele>4634</ele>
        <time>2025-10-14T13:41:04Z</time>
      </trkpt>
      <trkpt lat="-18.07922" lon="-69.05869">
        <ele>4635</ele>
        <time>2025-10-14T13:41:12Z</time>
      </trkpt>
      <trkpt lat="-18.07908" lon="-69.05878">
        <ele>4637</ele>
        <time>2025-10-14T13:41:44Z</time>
      </trkpt>
      <trkpt lat="-18.07905" lon="-69.0588">
        <ele>4639</ele>
        <time>2025-10-14T13:41:50Z</time>
      </trkpt>
      <trkpt lat="-18.07896" lon="-69.05887">
        <ele>4641</ele>
        <time>2025-10-14T13:42:12Z</time>
      </trkpt>
      <trkpt lat="-18.07886" lon="-69.05894">
        <ele>4644</ele>
        <time>2025-10-14T13:42:34Z</time>
      </trkpt>
      <trkpt lat="-18.07883" lon="-69.05897">
        <ele>4645</ele>
        <time>2025-10-14T13:42:42Z</time>
      </trkpt>
      <trkpt lat="-18.07867" lon="-69.05911">
        <ele>4648</ele>
        <time>2025-10-14T13:43:18Z</time>
      </trkpt>
      <trkpt lat="-18.07864" lon="-69.05914">
        <ele>4648</ele>
        <time>2025-10-14T13:43:26Z</time>
      </trkpt>
      <trkpt lat="-18.07857" lon="-69.05917">
        <ele>4650</ele>
        <time>2025-10-14T13:43:40Z</time>
      </trkpt>
      <trkpt lat="-18.07855" lon="-69.0592">
        <ele>4650</ele>
        <time>2025-10-14T13:43:46Z</time>
      </trkpt>
      <trkpt lat="-18.07849" lon="-69.0593">
        <ele>4651</ele>
        <time>2025-10-14T13:44:06Z</time>
      </trkpt>
      <trkpt lat="-18.07841" lon="-69.0594">
        <ele>4653</ele>
        <time>2025-10-14T13:44:30Z</time>
      </trkpt>
      <trkpt lat="-18.07839" lon="-69.05944">
        <ele>4654</ele>
        <time>2025-10-14T13:44:38Z</time>
      </trkpt>
      <trkpt lat="-18.07838" lon="-69.05948">
        <ele>4654</ele>
        <time>2025-10-14T13:44:46Z</time>
      </trkpt>
      <trkpt lat="-18.0783" lon="-69.05963">
        <ele>4656</ele>
        <time>2025-10-14T13:45:18Z</time>
      </trkpt>
      <trkpt lat="-18.07821" lon="-69.05978">
        <ele>4659</ele>
        <time>2025-10-14T13:45:48Z</time>
      </trkpt>
      <trkpt lat="-18.07819" lon="-69.05981">
        <ele>4659</ele>
        <time>2025-10-14T13:45:54Z</time>
      </trkpt>
      <trkpt lat="-18.07818" lon="-69.05984">
        <ele>4660</ele>
        <time>2025-10-14T13:46:00Z</time>
      </trkpt>
      <trkpt lat="-18.07815" lon="-69.05988">
        <ele>4660</ele>
        <time>2025-10-14T13:46:08Z</time>
      </trkpt>
      <trkpt lat="-18.07813" lon="-69.05992">
        <ele>4661</ele>
        <time>2025-10-14T13:46:16Z</time>
      </trkpt>
      <trkpt lat="-18.07812" lon="-69.05995">
        <ele>4662</ele>
        <time>2025-10-14T13:46:22Z</time>
      </trkpt>
      <trkpt lat="-18.07809" lon="-69.06002">
        <ele>4662</ele>
        <time>2025-10-14T13:46:34Z</time>
      </trkpt>
      <trkpt lat="-18.07806" lon="-69.06009">
        <ele>4663</ele>
        <time>2025-10-14T13:46:46Z</time>
      </trkpt>
      <trkpt lat="-18.07799" lon="-69.06029">
        <ele>4664</ele>
        <time>2025-10-14T13:47:19Z</time>
      </trkpt>
      <trkpt lat="-18.07794" lon="-69.06042">
        <ele>4666</ele>
        <time>2025-10-14T13:47:41Z</time>
      </trkpt>
      <trkpt lat="-18.07791" lon="-69.06044">
        <ele>4666</ele>
        <time>2025-10-14T13:47:47Z</time>
      </trkpt>
      <trkpt lat="-18.0779" lon="-69.06048">
        <ele>4668</ele>
        <time>2025-10-14T13:47:53Z</time>
      </trkpt>
      <trkpt lat="-18.07787" lon="-69.06054">
        <ele>4669</ele>
        <time>2025-10-14T13:48:05Z</time>
      </trkpt>
      <trkpt lat="-18.07778" lon="-69.06073">
        <ele>4673</ele>
        <time>2025-10-14T13:48:39Z</time>
      </trkpt>
      <trkpt lat="-18.07776" lon="-69.06076">
        <ele>4674</ele>
        <time>2025-10-14T13:48:47Z</time>
      </trkpt>
      <trkpt lat="-18.07774" lon="-69.0608">
        <ele>4675</ele>
        <time>2025-10-14T13:48:55Z</time>
      </trkpt>
      <trkpt lat="-18.07773" lon="-69.06084">
        <ele>4675</ele>
        <time>2025-10-14T13:49:03Z</time>
      </trkpt>
      <trkpt lat="-18.07771" lon="-69.06088">
        <ele>4676</ele>
        <time>2025-10-14T13:49:11Z</time>
      </trkpt>
      <trkpt lat="-18.07769" lon="-69.06092">
        <ele>4677</ele>
        <time>2025-10-14T13:49:19Z</time>
      </trkpt>
      <trkpt lat="-18.07769" lon="-69.06096">
        <ele>4678</ele>
        <time>2025-10-14T13:49:27Z</time>
      </trkpt>
      <trkpt lat="-18.07768" lon="-69.06101">
        <ele>4678</ele>
        <time>2025-10-14T13:49:35Z</time>
      </trkpt>
      <trkpt lat="-18.07767" lon="-69.06104">
        <ele>4679</ele>
        <time>2025-10-14T13:49:41Z</time>
      </trkpt>
      <trkpt lat="-18.07767" lon="-69.06108">
        <ele>4680</ele>
        <time>2025-10-14T13:49:49Z</time>
      </trkpt>
      <trkpt lat="-18.07768" lon="-69.06112">
        <ele>4680</ele>
        <time>2025-10-14T13:49:55Z</time>
      </trkpt>
      <trkpt lat="-18.07766" lon="-69.06116">
        <ele>4680</ele>
        <time>2025-10-14T13:50:03Z</time>
      </trkpt>
      <trkpt lat="-18.07765" lon="-69.0612">
        <ele>4681</ele>
        <time>2025-10-14T13:50:11Z</time>
      </trkpt>
      <trkpt lat="-18.07765" lon="-69.06124">
        <ele>4681</ele>
        <time>2025-10-14T13:50:17Z</time>
      </trkpt>
      <trkpt lat="-18.07762" lon="-69.06141">
        <ele>4685</ele>
        <time>2025-10-14T13:50:49Z</time>
      </trkpt>
      <trkpt lat="-18.0776" lon="-69.06156">
        <ele>4689</ele>
        <time>2025-10-14T13:51:23Z</time>
      </trkpt>
      <trkpt lat="-18.07756" lon="-69.06172">
        <ele>4693</ele>
        <time>2025-10-14T13:51:57Z</time>
      </trkpt>
      <trkpt lat="-18.07753" lon="-69.06183">
        <ele>4694</ele>
        <time>2025-10-14T13:52:19Z</time>
      </trkpt>
      <trkpt lat="-18.07751" lon="-69.06187">
        <ele>4695</ele>
        <time>2025-10-14T13:52:27Z</time>
      </trkpt>
      <trkpt lat="-18.0775" lon="-69.0619">
        <ele>4695</ele>
        <time>2025-10-14T13:52:35Z</time>
      </trkpt>
      <trkpt lat="-18.0775" lon="-69.06194">
        <ele>4695</ele>
        <time>2025-10-14T13:52:43Z</time>
      </trkpt>
      <trkpt lat="-18.07749" lon="-69.06198">
        <ele>4696</ele>
        <time>2025-10-14T13:52:51Z</time>
      </trkpt>
      <trkpt lat="-18.07751" lon="-69.06201">
        <ele>4699</ele>
        <time>2025-10-14T13:53:07Z</time>
      </trkpt>
      <trkpt lat="-18.0775" lon="-69.06209">
        <ele>4701</ele>
        <time>2025-10-14T13:53:32Z</time>
      </trkpt>
      <trkpt lat="-18.0775" lon="-69.06218">
        <ele>4702</ele>
        <time>2025-10-14T13:53:45Z</time>
      </trkpt>
      <trkpt lat="-18.07749" lon="-69.06221">
        <ele>4702</ele>
        <time>2025-10-14T13:53:51Z</time>
      </trkpt>
      <trkpt lat="-18.07746" lon="-69.0623">
        <ele>4703</ele>
        <time>2025-10-14T13:54:09Z</time>
      </trkpt>
      <trkpt lat="-18.07745" lon="-69.06234">
        <ele>4704</ele>
        <time>2025-10-14T13:54:17Z</time>
      </trkpt>
      <trkpt lat="-18.07746" lon="-69.06242">
        <ele>4705</ele>
        <time>2025-10-14T13:54:33Z</time>
      </trkpt>
      <trkpt lat="-18.07746" lon="-69.06246">
        <ele>4705</ele>
        <time>2025-10-14T13:54:41Z</time>
      </trkpt>
      <trkpt lat="-18.07745" lon="-69.06251">
        <ele>4705</ele>
        <time>2025-10-14T13:54:49Z</time>
      </trkpt>
      <trkpt lat="-18.07745" lon="-69.06255">
        <ele>4705</ele>
        <time>2025-10-14T13:54:55Z</time>
      </trkpt>
      <trkpt lat="-18.07745" lon="-69.06258">
        <ele>4705</ele>
        <time>2025-10-14T13:55:01Z</time>
      </trkpt>
      <trkpt lat="-18.07745" lon="-69.06263">
        <ele>4705</ele>
        <time>2025-10-14T13:55:09Z</time>
      </trkpt>
      <trkpt lat="-18.07744" lon="-69.06272">
        <ele>4706</ele>
        <time>2025-10-14T13:55:23Z</time>
      </trkpt>
      <trkpt lat="-18.07743" lon="-69.0628">
        <ele>4707</ele>
        <time>2025-10-14T13:55:35Z</time>
      </trkpt>
      <trkpt lat="-18.07743" lon="-69.06283">
        <ele>4707</ele>
        <time>2025-10-14T13:55:41Z</time>
      </trkpt>
      <trkpt lat="-18.07737" lon="-69.06298">
        <ele>4711</ele>
        <time>2025-10-14T13:56:11Z</time>
      </trkpt>
      <trkpt lat="-18.07737" lon="-69.06303">
        <ele>4712</ele>
        <time>2025-10-14T13:56:17Z</time>
      </trkpt>
      <trkpt lat="-18.07738" lon="-69.06307">
        <ele>4712</ele>
        <time>2025-10-14T13:56:23Z</time>
      </trkpt>
      <trkpt lat="-18.07736" lon="-69.06311">
        <ele>4712</ele>
        <time>2025-10-14T13:56:31Z</time>
      </trkpt>
      <trkpt lat="-18.07736" lon="-69.06315">
        <ele>4714</ele>
        <time>2025-10-14T13:56:37Z</time>
      </trkpt>
      <trkpt lat="-18.07735" lon="-69.06319">
        <ele>4714</ele>
        <time>2025-10-14T13:56:45Z</time>
      </trkpt>
      <trkpt lat="-18.07735" lon="-69.06324">
        <ele>4715</ele>
        <time>2025-10-14T13:56:55Z</time>
      </trkpt>
      <trkpt lat="-18.07734" lon="-69.06328">
        <ele>4715</ele>
        <time>2025-10-14T13:57:03Z</time>
      </trkpt>
      <trkpt lat="-18.07733" lon="-69.06333">
        <ele>4716</ele>
        <time>2025-10-14T13:57:11Z</time>
      </trkpt>
      <trkpt lat="-18.07734" lon="-69.06337">
        <ele>4716</ele>
        <time>2025-10-14T13:57:19Z</time>
      </trkpt>
      <trkpt lat="-18.07727" lon="-69.06353">
        <ele>4718</ele>
        <time>2025-10-14T13:57:45Z</time>
      </trkpt>
      <trkpt lat="-18.07725" lon="-69.06356">
        <ele>4718</ele>
        <time>2025-10-14T13:57:51Z</time>
      </trkpt>
      <trkpt lat="-18.07724" lon="-69.06359">
        <ele>4719</ele>
        <time>2025-10-14T13:57:57Z</time>
      </trkpt>
      <trkpt lat="-18.07721" lon="-69.06366">
        <ele>4719</ele>
        <time>2025-10-14T13:58:11Z</time>
      </trkpt>
      <trkpt lat="-18.07718" lon="-69.06374">
        <ele>4721</ele>
        <time>2025-10-14T13:58:25Z</time>
      </trkpt>
      <trkpt lat="-18.07713" lon="-69.06386">
        <ele>4723</ele>
        <time>2025-10-14T13:58:45Z</time>
      </trkpt>
      <trkpt lat="-18.07708" lon="-69.06401">
        <ele>4725</ele>
        <time>2025-10-14T13:59:11Z</time>
      </trkpt>
      <trkpt lat="-18.07705" lon="-69.06405">
        <ele>4725</ele>
        <time>2025-10-14T13:59:19Z</time>
      </trkpt>
      <trkpt lat="-18.07705" lon="-69.06409">
        <ele>4726</ele>
        <time>2025-10-14T13:59:27Z</time>
      </trkpt>
      <trkpt lat="-18.07704" lon="-69.06413">
        <ele>4726</ele>
        <time>2025-10-14T13:59:33Z</time>
      </trkpt>
      <trkpt lat="-18.07698" lon="-69.06418">
        <ele>4727</ele>
        <time>2025-10-14T13:59:45Z</time>
      </trkpt>
      <trkpt lat="-18.07695" lon="-69.06421">
        <ele>4727</ele>
        <time>2025-10-14T13:59:51Z</time>
      </trkpt>
      <trkpt lat="-18.07692" lon="-69.06424">
        <ele>4727</ele>
        <time>2025-10-14T13:59:57Z</time>
      </trkpt>
      <trkpt lat="-18.0769" lon="-69.06427">
        <ele>4728</ele>
        <time>2025-10-14T14:00:03Z</time>
      </trkpt>
      <trkpt lat="-18.07687" lon="-69.0643">
        <ele>4728</ele>
        <time>2025-10-14T14:00:09Z</time>
      </trkpt>
      <trkpt lat="-18.07681" lon="-69.06441">
        <ele>4729</ele>
        <time>2025-10-14T14:00:27Z</time>
      </trkpt>
      <trkpt lat="-18.07679" lon="-69.06445">
        <ele>4729</ele>
        <time>2025-10-14T14:00:33Z</time>
      </trkpt>
      <trkpt lat="-18.07669" lon="-69.06461">
        <ele>4731</ele>
        <time>2025-10-14T14:00:57Z</time>
      </trkpt>
      <trkpt lat="-18.07668" lon="-69.06465">
        <ele>4731</ele>
        <time>2025-10-14T14:01:01Z</time>
      </trkpt>
      <trkpt lat="-18.07666" lon="-69.0647">
        <ele>4731</ele>
        <time>2025-10-14T14:01:07Z</time>
      </trkpt>
      <trkpt lat="-18.07663" lon="-69.06486">
        <ele>4732</ele>
        <time>2025-10-14T14:01:31Z</time>
      </trkpt>
      <trkpt lat="-18.07666" lon="-69.06499">
        <ele>4731</ele>
        <time>2025-10-14T14:01:55Z</time>
      </trkpt>
      <trkpt lat="-18.0767" lon="-69.06506">
        <ele>4731</ele>
        <time>2025-10-14T14:02:07Z</time>
      </trkpt>
      <trkpt lat="-18.07676" lon="-69.06512">
        <ele>4730</ele>
        <time>2025-10-14T14:02:19Z</time>
      </trkpt>
      <trkpt lat="-18.07682" lon="-69.06518">
        <ele>4731</ele>
        <time>2025-10-14T14:02:33Z</time>
      </trkpt>
      <trkpt lat="-18.07686" lon="-69.0652">
        <ele>4732</ele>
        <time>2025-10-14T14:02:39Z</time>
      </trkpt>
      <trkpt lat="-18.07689" lon="-69.06521">
        <ele>4735</ele>
        <time>2025-10-14T14:02:47Z</time>
      </trkpt>
      <trkpt lat="-18.07693" lon="-69.06522">
        <ele>4739</ele>
        <time>2025-10-14T14:02:57Z</time>
      </trkpt>
      <trkpt lat="-18.07696" lon="-69.06525">
        <ele>4740</ele>
        <time>2025-10-14T14:03:03Z</time>
      </trkpt>
      <trkpt lat="-18.07702" lon="-69.0653">
        <ele>4743</ele>
        <time>2025-10-14T14:03:21Z</time>
      </trkpt>
      <trkpt lat="-18.07702" lon="-69.06534">
        <ele>4745</ele>
        <time>2025-10-14T14:03:35Z</time>
      </trkpt>
      <trkpt lat="-18.07699" lon="-69.06535">
        <ele>4745</ele>
        <time>2025-10-14T14:03:45Z</time>
      </trkpt>
      <trkpt lat="-18.07698" lon="-69.06539">
        <ele>4749</ele>
        <time>2025-10-14T14:04:01Z</time>
      </trkpt>
      <trkpt lat="-18.07697" lon="-69.06543">
        <ele>4750</ele>
        <time>2025-10-14T14:04:09Z</time>
      </trkpt>
      <trkpt lat="-18.07694" lon="-69.06544">
        <ele>4750</ele>
        <time>2025-10-14T14:04:17Z</time>
      </trkpt>
      <trkpt lat="-18.07687" lon="-69.06548">
        <ele>4752</ele>
        <time>2025-10-14T14:04:33Z</time>
      </trkpt>
      <trkpt lat="-18.07684" lon="-69.06551">
        <ele>4753</ele>
        <time>2025-10-14T14:04:45Z</time>
      </trkpt>
      <trkpt lat="-18.07681" lon="-69.06563">
        <ele>4754</ele>
        <time>2025-10-14T14:05:07Z</time>
      </trkpt>
      <trkpt lat="-18.07676" lon="-69.06578">
        <ele>4757</ele>
        <time>2025-10-14T14:05:39Z</time>
      </trkpt>
      <trkpt lat="-18.07675" lon="-69.06582">
        <ele>4758</ele>
        <time>2025-10-14T14:05:47Z</time>
      </trkpt>
      <trkpt lat="-18.07674" lon="-69.06586">
        <ele>4758</ele>
        <time>2025-10-14T14:05:53Z</time>
      </trkpt>
      <trkpt lat="-18.07672" lon="-69.0659">
        <ele>4759</ele>
        <time>2025-10-14T14:06:01Z</time>
      </trkpt>
      <trkpt lat="-18.07672" lon="-69.06594">
        <ele>4759</ele>
        <time>2025-10-14T14:06:09Z</time>
      </trkpt>
      <trkpt lat="-18.07669" lon="-69.06602">
        <ele>4760</ele>
        <time>2025-10-14T14:06:23Z</time>
      </trkpt>
      <trkpt lat="-18.07661" lon="-69.06607">
        <ele>4760</ele>
        <time>2025-10-14T14:06:37Z</time>
      </trkpt>
      <trkpt lat="-18.07656" lon="-69.06612">
        <ele>4760</ele>
        <time>2025-10-14T14:06:49Z</time>
      </trkpt>
      <trkpt lat="-18.07654" lon="-69.06615">
        <ele>4761</ele>
        <time>2025-10-14T14:06:55Z</time>
      </trkpt>
      <trkpt lat="-18.07652" lon="-69.06619">
        <ele>4762</ele>
        <time>2025-10-14T14:07:03Z</time>
      </trkpt>
      <trkpt lat="-18.07649" lon="-69.06622">
        <ele>4762</ele>
        <time>2025-10-14T14:07:09Z</time>
      </trkpt>
      <trkpt lat="-18.07647" lon="-69.06625">
        <ele>4762</ele>
        <time>2025-10-14T14:07:17Z</time>
      </trkpt>
      <trkpt lat="-18.07645" lon="-69.06638">
        <ele>4763</ele>
        <time>2025-10-14T14:07:39Z</time>
      </trkpt>
      <trkpt lat="-18.07646" lon="-69.06642">
        <ele>4764</ele>
        <time>2025-10-14T14:07:47Z</time>
      </trkpt>
      <trkpt lat="-18.07645" lon="-69.06646">
        <ele>4765</ele>
        <time>2025-10-14T14:07:53Z</time>
      </trkpt>
      <trkpt lat="-18.07645" lon="-69.06651">
        <ele>4765</ele>
        <time>2025-10-14T14:07:59Z</time>
      </trkpt>
      <trkpt lat="-18.07643" lon="-69.06655">
        <ele>4765</ele>
        <time>2025-10-14T14:08:05Z</time>
      </trkpt>
      <trkpt lat="-18.0764" lon="-69.06664">
        <ele>4766</ele>
        <time>2025-10-14T14:08:17Z</time>
      </trkpt>
      <trkpt lat="-18.07632" lon="-69.06688">
        <ele>4766</ele>
        <time>2025-10-14T14:08:51Z</time>
      </trkpt>
      <trkpt lat="-18.0763" lon="-69.06696">
        <ele>4766</ele>
        <time>2025-10-14T14:09:01Z</time>
      </trkpt>
      <trkpt lat="-18.07631" lon="-69.06711">
        <ele>4768</ele>
        <time>2025-10-14T14:09:19Z</time>
      </trkpt>
      <trkpt lat="-18.07631" lon="-69.0672">
        <ele>4769</ele>
        <time>2025-10-14T14:09:40Z</time>
      </trkpt>
      <trkpt lat="-18.0763" lon="-69.06725">
        <ele>4770</ele>
        <time>2025-10-14T14:09:46Z</time>
      </trkpt>
      <trkpt lat="-18.07628" lon="-69.06729">
        <ele>4771</ele>
        <time>2025-10-14T14:09:52Z</time>
      </trkpt>
      <trkpt lat="-18.07625" lon="-69.06747">
        <ele>4774</ele>
        <time>2025-10-14T14:10:14Z</time>
      </trkpt>
      <trkpt lat="-18.07617" lon="-69.06761">
        <ele>4771</ele>
        <time>2025-10-14T14:10:38Z</time>
      </trkpt>
      <trkpt lat="-18.07616" lon="-69.06765">
        <ele>4772</ele>
        <time>2025-10-14T14:10:44Z</time>
      </trkpt>
      <trkpt lat="-18.07614" lon="-69.06774">
        <ele>4774</ele>
        <time>2025-10-14T14:10:56Z</time>
      </trkpt>
      <trkpt lat="-18.07614" lon="-69.06778">
        <ele>4774</ele>
        <time>2025-10-14T14:11:10Z</time>
      </trkpt>
      <trkpt lat="-18.0761" lon="-69.06782">
        <ele>4775</ele>
        <time>2025-10-14T14:11:21Z</time>
      </trkpt>
      <trkpt lat="-18.07608" lon="-69.06786">
        <ele>4776</ele>
        <time>2025-10-14T14:11:27Z</time>
      </trkpt>
      <trkpt lat="-18.0761" lon="-69.06796">
        <ele>4775</ele>
        <time>2025-10-14T14:11:39Z</time>
      </trkpt>
      <trkpt lat="-18.07606" lon="-69.06803">
        <ele>4774</ele>
        <time>2025-10-14T14:11:53Z</time>
      </trkpt>
      <trkpt lat="-18.07605" lon="-69.06807">
        <ele>4774</ele>
        <time>2025-10-14T14:11:59Z</time>
      </trkpt>
      <trkpt lat="-18.07607" lon="-69.06811">
        <ele>4776</ele>
        <time>2025-10-14T14:12:05Z</time>
      </trkpt>
      <trkpt lat="-18.07608" lon="-69.06818">
        <ele>4777</ele>
        <time>2025-10-14T14:12:17Z</time>
      </trkpt>
      <trkpt lat="-18.07607" lon="-69.06828">
        <ele>4776</ele>
        <time>2025-10-14T14:12:33Z</time>
      </trkpt>
      <trkpt lat="-18.07609" lon="-69.06832">
        <ele>4776</ele>
        <time>2025-10-14T14:12:41Z</time>
      </trkpt>
      <trkpt lat="-18.07612" lon="-69.06839">
        <ele>4780</ele>
        <time>2025-10-14T14:13:01Z</time>
      </trkpt>
      <trkpt lat="-18.07611" lon="-69.06843">
        <ele>4782</ele>
        <time>2025-10-14T14:13:11Z</time>
      </trkpt>
      <trkpt lat="-18.0761" lon="-69.06848">
        <ele>4785</ele>
        <time>2025-10-14T14:13:19Z</time>
      </trkpt>
      <trkpt lat="-18.07611" lon="-69.06856">
        <ele>4786</ele>
        <time>2025-10-14T14:13:33Z</time>
      </trkpt>
      <trkpt lat="-18.0761" lon="-69.0686">
        <ele>4787</ele>
        <time>2025-10-14T14:13:41Z</time>
      </trkpt>
      <trkpt lat="-18.07609" lon="-69.06864">
        <ele>4789</ele>
        <time>2025-10-14T14:13:51Z</time>
      </trkpt>
      <trkpt lat="-18.07602" lon="-69.0688">
        <ele>4793</ele>
        <time>2025-10-14T14:14:25Z</time>
      </trkpt>
      <trkpt lat="-18.076" lon="-69.06885">
        <ele>4795</ele>
        <time>2025-10-14T14:14:33Z</time>
      </trkpt>
      <trkpt lat="-18.07599" lon="-69.06897">
        <ele>4798</ele>
        <time>2025-10-14T14:14:53Z</time>
      </trkpt>
      <trkpt lat="-18.07599" lon="-69.06909">
        <ele>4799</ele>
        <time>2025-10-14T14:15:15Z</time>
      </trkpt>
      <trkpt lat="-18.07601" lon="-69.06913">
        <ele>4800</ele>
        <time>2025-10-14T14:15:21Z</time>
      </trkpt>
      <trkpt lat="-18.07605" lon="-69.0692">
        <ele>4798</ele>
        <time>2025-10-14T14:15:35Z</time>
      </trkpt>
      <trkpt lat="-18.07607" lon="-69.06924">
        <ele>4799</ele>
        <time>2025-10-14T14:15:43Z</time>
      </trkpt>
      <trkpt lat="-18.0761" lon="-69.06926">
        <ele>4799</ele>
        <time>2025-10-14T14:15:49Z</time>
      </trkpt>
      <trkpt lat="-18.07613" lon="-69.06929">
        <ele>4799</ele>
        <time>2025-10-14T14:15:57Z</time>
      </trkpt>
      <trkpt lat="-18.07618" lon="-69.06935">
        <ele>4803</ele>
        <time>2025-10-14T14:16:13Z</time>
      </trkpt>
      <trkpt lat="-18.07621" lon="-69.06943">
        <ele>4806</ele>
        <time>2025-10-14T14:16:25Z</time>
      </trkpt>
      <trkpt lat="-18.07621" lon="-69.06948">
        <ele>4807</ele>
        <time>2025-10-14T14:16:31Z</time>
      </trkpt>
      <trkpt lat="-18.07618" lon="-69.06949">
        <ele>4806</ele>
        <time>2025-10-14T14:16:37Z</time>
      </trkpt>
      <trkpt lat="-18.07622" lon="-69.06952">
        <ele>4808</ele>
        <time>2025-10-14T14:17:23Z</time>
      </trkpt>
      <trkpt lat="-18.07623" lon="-69.06956">
        <ele>4809</ele>
        <time>2025-10-14T14:17:29Z</time>
      </trkpt>
      <trkpt lat="-18.07623" lon="-69.06975">
        <ele>4810</ele>
        <time>2025-10-14T14:17:59Z</time>
      </trkpt>
      <trkpt lat="-18.07623" lon="-69.06981">
        <ele>4810</ele>
        <time>2025-10-14T14:18:03Z</time>
      </trkpt>
      <trkpt lat="-18.07623" lon="-69.06985">
        <ele>4810</ele>
        <time>2025-10-14T14:18:08Z</time>
      </trkpt>
      <trkpt lat="-18.07624" lon="-69.06991">
        <ele>4810</ele>
        <time>2025-10-14T14:18:29Z</time>
      </trkpt>
      <trkpt lat="-18.07624" lon="-69.07001">
        <ele>4812</ele>
        <time>2025-10-14T14:18:49Z</time>
      </trkpt>
      <trkpt lat="-18.07624" lon="-69.07011">
        <ele>4815</ele>
        <time>2025-10-14T14:19:01Z</time>
      </trkpt>
      <trkpt lat="-18.07623" lon="-69.07015">
        <ele>4815</ele>
        <time>2025-10-14T14:19:09Z</time>
      </trkpt>
      <trkpt lat="-18.07622" lon="-69.07018">
        <ele>4816</ele>
        <time>2025-10-14T14:19:17Z</time>
      </trkpt>
      <trkpt lat="-18.07622" lon="-69.07026">
        <ele>4816</ele>
        <time>2025-10-14T14:19:31Z</time>
      </trkpt>
      <trkpt lat="-18.07622" lon="-69.0703">
        <ele>4817</ele>
        <time>2025-10-14T14:19:39Z</time>
      </trkpt>
      <trkpt lat="-18.07622" lon="-69.07034">
        <ele>4818</ele>
        <time>2025-10-14T14:19:53Z</time>
      </trkpt>
      <trkpt lat="-18.07622" lon="-69.07038">
        <ele>4819</ele>
        <time>2025-10-14T14:20:01Z</time>
      </trkpt>
      <trkpt lat="-18.07619" lon="-69.07049">
        <ele>4820</ele>
        <time>2025-10-14T14:20:23Z</time>
      </trkpt>
      <trkpt lat="-18.07619" lon="-69.07053">
        <ele>4821</ele>
        <time>2025-10-14T14:20:31Z</time>
      </trkpt>
      <trkpt lat="-18.07609" lon="-69.07066">
        <ele>4825</ele>
        <time>2025-10-14T14:20:59Z</time>
      </trkpt>
      <trkpt lat="-18.07602" lon="-69.07075">
        <ele>4828</ele>
        <time>2025-10-14T14:21:17Z</time>
      </trkpt>
      <trkpt lat="-18.07586" lon="-69.07087">
        <ele>4834</ele>
        <time>2025-10-14T14:21:53Z</time>
      </trkpt>
      <trkpt lat="-18.0758" lon="-69.07091">
        <ele>4835</ele>
        <time>2025-10-14T14:22:09Z</time>
      </trkpt>
      <trkpt lat="-18.07577" lon="-69.07093">
        <ele>4835</ele>
        <time>2025-10-14T14:22:17Z</time>
      </trkpt>
      <trkpt lat="-18.07573" lon="-69.07092">
        <ele>4837</ele>
        <time>2025-10-14T14:22:29Z</time>
      </trkpt>
      <trkpt lat="-18.07571" lon="-69.07095">
        <ele>4837</ele>
        <time>2025-10-14T14:22:39Z</time>
      </trkpt>
      <trkpt lat="-18.07568" lon="-69.07098">
        <ele>4838</ele>
        <time>2025-10-14T14:22:49Z</time>
      </trkpt>
      <trkpt lat="-18.07564" lon="-69.071">
        <ele>4839</ele>
        <time>2025-10-14T14:23:01Z</time>
      </trkpt>
      <trkpt lat="-18.0756" lon="-69.07098">
        <ele>4841</ele>
        <time>2025-10-14T14:23:13Z</time>
      </trkpt>
      <trkpt lat="-18.0756" lon="-69.07102">
        <ele>4841</ele>
        <time>2025-10-14T14:23:23Z</time>
      </trkpt>
      <trkpt lat="-18.07556" lon="-69.07102">
        <ele>4842</ele>
        <time>2025-10-14T14:23:31Z</time>
      </trkpt>
      <trkpt lat="-18.07552" lon="-69.07102">
        <ele>4843</ele>
        <time>2025-10-14T14:23:39Z</time>
      </trkpt>
      <trkpt lat="-18.07539" lon="-69.07113">
        <ele>4846</ele>
        <time>2025-10-14T14:24:09Z</time>
      </trkpt>
      <trkpt lat="-18.07535" lon="-69.0712">
        <ele>4848</ele>
        <time>2025-10-14T14:24:25Z</time>
      </trkpt>
      <trkpt lat="-18.07529" lon="-69.07127">
        <ele>4850</ele>
        <time>2025-10-14T14:24:45Z</time>
      </trkpt>
      <trkpt lat="-18.07529" lon="-69.07131">
        <ele>4850</ele>
        <time>2025-10-14T14:24:55Z</time>
      </trkpt>
      <trkpt lat="-18.07529" lon="-69.07135">
        <ele>4850</ele>
        <time>2025-10-14T14:25:01Z</time>
      </trkpt>
      <trkpt lat="-18.07529" lon="-69.07135">
        <ele>4851</ele>
        <time>2025-10-14T14:30:15Z</time>
      </trkpt>
      <trkpt lat="-18.07527" lon="-69.07132">
        <ele>4851</ele>
        <time>2025-10-14T14:30:49Z</time>
      </trkpt>
      <trkpt lat="-18.07523" lon="-69.07131">
        <ele>4852</ele>
        <time>2025-10-14T14:30:55Z</time>
      </trkpt>
      <trkpt lat="-18.07519" lon="-69.07132">
        <ele>4853</ele>
        <time>2025-10-14T14:31:11Z</time>
      </trkpt>
      <trkpt lat="-18.07515" lon="-69.07133">
        <ele>4854</ele>
        <time>2025-10-14T14:31:17Z</time>
      </trkpt>
      <trkpt lat="-18.07511" lon="-69.07132">
        <ele>4855</ele>
        <time>2025-10-14T14:31:27Z</time>
      </trkpt>
      <trkpt lat="-18.07508" lon="-69.07129">
        <ele>4855</ele>
        <time>2025-10-14T14:31:37Z</time>
      </trkpt>
      <trkpt lat="-18.07505" lon="-69.07131">
        <ele>4856</ele>
        <time>2025-10-14T14:31:58Z</time>
      </trkpt>
      <trkpt lat="-18.07503" lon="-69.07129">
        <ele>4857</ele>
        <time>2025-10-14T14:33:00Z</time>
      </trkpt>
      <trkpt lat="-18.07499" lon="-69.07131">
        <ele>4856</ele>
        <time>2025-10-14T14:33:40Z</time>
      </trkpt>
      <trkpt lat="-18.07496" lon="-69.07132">
        <ele>4856</ele>
        <time>2025-10-14T14:35:45Z</time>
      </trkpt>
      <trkpt lat="-18.07497" lon="-69.07131">
        <ele>4856</ele>
        <time>2025-10-14T14:36:25Z</time>
      </trkpt>
      <trkpt lat="-18.07492" lon="-69.07131">
        <ele>4856</ele>
        <time>2025-10-14T14:36:53Z</time>
      </trkpt>
      <trkpt lat="-18.07488" lon="-69.07129">
        <ele>4855</ele>
        <time>2025-10-14T14:36:57Z</time>
      </trkpt>
      <trkpt lat="-18.0748" lon="-69.07127">
        <ele>4853</ele>
        <time>2025-10-14T14:37:07Z</time>
      </trkpt>
      <trkpt lat="-18.07471" lon="-69.07126">
        <ele>4850</ele>
        <time>2025-10-14T14:37:19Z</time>
      </trkpt>
      <trkpt lat="-18.07467" lon="-69.07128">
        <ele>4849</ele>
        <time>2025-10-14T14:37:25Z</time>
      </trkpt>
      <trkpt lat="-18.07455" lon="-69.07132">
        <ele>4849</ele>
        <time>2025-10-14T14:37:37Z</time>
      </trkpt>
      <trkpt lat="-18.07452" lon="-69.07132">
        <ele>4848</ele>
        <time>2025-10-14T14:37:41Z</time>
      </trkpt>
      <trkpt lat="-18.0742" lon="-69.0714">
        <ele>4848</ele>
        <time>2025-10-14T14:38:13Z</time>
      </trkpt>
      <trkpt lat="-18.07416" lon="-69.07141">
        <ele>4849</ele>
        <time>2025-10-14T14:38:17Z</time>
      </trkpt>
      <trkpt lat="-18.07386" lon="-69.0716">
        <ele>4848</ele>
        <time>2025-10-14T14:38:49Z</time>
      </trkpt>
      <trkpt lat="-18.07373" lon="-69.07168">
        <ele>4848</ele>
        <time>2025-10-14T14:39:05Z</time>
      </trkpt>
      <trkpt lat="-18.07366" lon="-69.07173">
        <ele>4847</ele>
        <time>2025-10-14T14:39:13Z</time>
      </trkpt>
      <trkpt lat="-18.07364" lon="-69.07175">
        <ele>4847</ele>
        <time>2025-10-14T14:39:17Z</time>
      </trkpt>
      <trkpt lat="-18.0736" lon="-69.07178">
        <ele>4847</ele>
        <time>2025-10-14T14:39:23Z</time>
      </trkpt>
      <trkpt lat="-18.0736" lon="-69.07182">
        <ele>4848</ele>
        <time>2025-10-14T14:39:27Z</time>
      </trkpt>
      <trkpt lat="-18.07358" lon="-69.07185">
        <ele>4848</ele>
        <time>2025-10-14T14:39:31Z</time>
      </trkpt>
      <trkpt lat="-18.07355" lon="-69.07187">
        <ele>4849</ele>
        <time>2025-10-14T14:39:47Z</time>
      </trkpt>
      <trkpt lat="-18.0735" lon="-69.07187">
        <ele>4850</ele>
        <time>2025-10-14T14:39:51Z</time>
      </trkpt>
      <trkpt lat="-18.07344" lon="-69.07191">
        <ele>4850</ele>
        <time>2025-10-14T14:39:59Z</time>
      </trkpt>
      <trkpt lat="-18.07333" lon="-69.07197">
        <ele>4849</ele>
        <time>2025-10-14T14:40:19Z</time>
      </trkpt>
      <trkpt lat="-18.07329" lon="-69.07197">
        <ele>4849</ele>
        <time>2025-10-14T14:40:23Z</time>
      </trkpt>
      <trkpt lat="-18.07325" lon="-69.07198">
        <ele>4848</ele>
        <time>2025-10-14T14:40:29Z</time>
      </trkpt>
      <trkpt lat="-18.0732" lon="-69.07197">
        <ele>4848</ele>
        <time>2025-10-14T14:40:35Z</time>
      </trkpt>
      <trkpt lat="-18.07316" lon="-69.07197">
        <ele>4847</ele>
        <time>2025-10-14T14:40:39Z</time>
      </trkpt>
      <trkpt lat="-18.07303" lon="-69.07206">
        <ele>4846</ele>
        <time>2025-10-14T14:40:55Z</time>
      </trkpt>
      <trkpt lat="-18.07295" lon="-69.07208">
        <ele>4846</ele>
        <time>2025-10-14T14:41:03Z</time>
      </trkpt>
      <trkpt lat="-18.07292" lon="-69.0721">
        <ele>4846</ele>
        <time>2025-10-14T14:41:07Z</time>
      </trkpt>
      <trkpt lat="-18.07285" lon="-69.07213">
        <ele>4845</ele>
        <time>2025-10-14T14:41:15Z</time>
      </trkpt>
      <trkpt lat="-18.07273" lon="-69.07219">
        <ele>4842</ele>
        <time>2025-10-14T14:41:27Z</time>
      </trkpt>
      <trkpt lat="-18.07265" lon="-69.07221">
        <ele>4841</ele>
        <time>2025-10-14T14:41:35Z</time>
      </trkpt>
      <trkpt lat="-18.07242" lon="-69.07232">
        <ele>4840</ele>
        <time>2025-10-14T14:41:59Z</time>
      </trkpt>
      <trkpt lat="-18.07239" lon="-69.07235">
        <ele>4840</ele>
        <time>2025-10-14T14:42:03Z</time>
      </trkpt>
      <trkpt lat="-18.07236" lon="-69.07237">
        <ele>4841</ele>
        <time>2025-10-14T14:42:07Z</time>
      </trkpt>
      <trkpt lat="-18.07232" lon="-69.07239">
        <ele>4841</ele>
        <time>2025-10-14T14:42:11Z</time>
      </trkpt>
      <trkpt lat="-18.07225" lon="-69.07242">
        <ele>4841</ele>
        <time>2025-10-14T14:42:19Z</time>
      </trkpt>
      <trkpt lat="-18.07222" lon="-69.07245">
        <ele>4842</ele>
        <time>2025-10-14T14:42:23Z</time>
      </trkpt>
      <trkpt lat="-18.07219" lon="-69.07247">
        <ele>4842</ele>
        <time>2025-10-14T14:42:27Z</time>
      </trkpt>
      <trkpt lat="-18.07213" lon="-69.0725">
        <ele>4842</ele>
        <time>2025-10-14T14:42:35Z</time>
      </trkpt>
      <trkpt lat="-18.07209" lon="-69.07251">
        <ele>4841</ele>
        <time>2025-10-14T14:42:39Z</time>
      </trkpt>
      <trkpt lat="-18.07201" lon="-69.07253">
        <ele>4840</ele>
        <time>2025-10-14T14:42:47Z</time>
      </trkpt>
      <trkpt lat="-18.07197" lon="-69.07255">
        <ele>4839</ele>
        <time>2025-10-14T14:42:51Z</time>
      </trkpt>
      <trkpt lat="-18.07189" lon="-69.07256">
        <ele>4839</ele>
        <time>2025-10-14T14:42:59Z</time>
      </trkpt>
      <trkpt lat="-18.07176" lon="-69.07264">
        <ele>4840</ele>
        <time>2025-10-14T14:43:15Z</time>
      </trkpt>
      <trkpt lat="-18.07158" lon="-69.07271">
        <ele>4839</ele>
        <time>2025-10-14T14:43:35Z</time>
      </trkpt>
      <trkpt lat="-18.07156" lon="-69.07274">
        <ele>4839</ele>
        <time>2025-10-14T14:43:41Z</time>
      </trkpt>
      <trkpt lat="-18.07148" lon="-69.07278">
        <ele>4839</ele>
        <time>2025-10-14T14:43:55Z</time>
      </trkpt>
      <trkpt lat="-18.07144" lon="-69.07279">
        <ele>4839</ele>
        <time>2025-10-14T14:44:03Z</time>
      </trkpt>
      <trkpt lat="-18.0714" lon="-69.0728">
        <ele>4839</ele>
        <time>2025-10-14T14:44:09Z</time>
      </trkpt>
      <trkpt lat="-18.07132" lon="-69.07281">
        <ele>4838</ele>
        <time>2025-10-14T14:44:19Z</time>
      </trkpt>
      <trkpt lat="-18.07124" lon="-69.0728">
        <ele>4837</ele>
        <time>2025-10-14T14:44:27Z</time>
      </trkpt>
      <trkpt lat="-18.07121" lon="-69.07281">
        <ele>4837</ele>
        <time>2025-10-14T14:44:31Z</time>
      </trkpt>
      <trkpt lat="-18.07112" lon="-69.07281">
        <ele>4836</ele>
        <time>2025-10-14T14:44:41Z</time>
      </trkpt>
      <trkpt lat="-18.07108" lon="-69.0728">
        <ele>4835</ele>
        <time>2025-10-14T14:44:45Z</time>
      </trkpt>
      <trkpt lat="-18.071" lon="-69.07279">
        <ele>4835</ele>
        <time>2025-10-14T14:44:53Z</time>
      </trkpt>
      <trkpt lat="-18.07097" lon="-69.07278">
        <ele>4835</ele>
        <time>2025-10-14T14:44:57Z</time>
      </trkpt>
      <trkpt lat="-18.07086" lon="-69.07278">
        <ele>4833</ele>
        <time>2025-10-14T14:45:09Z</time>
      </trkpt>
      <trkpt lat="-18.07082" lon="-69.07278">
        <ele>4833</ele>
        <time>2025-10-14T14:45:13Z</time>
      </trkpt>
      <trkpt lat="-18.0708" lon="-69.07281">
        <ele>4832</ele>
        <time>2025-10-14T14:45:17Z</time>
      </trkpt>
      <trkpt lat="-18.07077" lon="-69.07284">
        <ele>4832</ele>
        <time>2025-10-14T14:45:23Z</time>
      </trkpt>
      <trkpt lat="-18.07073" lon="-69.07285">
        <ele>4830</ele>
        <time>2025-10-14T14:45:29Z</time>
      </trkpt>
      <trkpt lat="-18.0707" lon="-69.07287">
        <ele>4830</ele>
        <time>2025-10-14T14:45:33Z</time>
      </trkpt>
      <trkpt lat="-18.07066" lon="-69.0729">
        <ele>4829</ele>
        <time>2025-10-14T14:45:39Z</time>
      </trkpt>
      <trkpt lat="-18.07063" lon="-69.07291">
        <ele>4829</ele>
        <time>2025-10-14T14:45:43Z</time>
      </trkpt>
      <trkpt lat="-18.07061" lon="-69.07294">
        <ele>4829</ele>
        <time>2025-10-14T14:45:51Z</time>
      </trkpt>
      <trkpt lat="-18.0706" lon="-69.07292">
        <ele>4827</ele>
        <time>2025-10-14T14:46:30Z</time>
      </trkpt>
      <trkpt lat="-18.07065" lon="-69.07291">
        <ele>4826</ele>
        <time>2025-10-14T14:46:40Z</time>
      </trkpt>
      <trkpt lat="-18.07067" lon="-69.07294">
        <ele>4826</ele>
        <time>2025-10-14T14:46:48Z</time>
      </trkpt>
      <trkpt lat="-18.07063" lon="-69.07295">
        <ele>4827</ele>
        <time>2025-10-14T14:47:56Z</time>
      </trkpt>
      <trkpt lat="-18.07058" lon="-69.07292">
        <ele>4827</ele>
        <time>2025-10-14T14:48:02Z</time>
      </trkpt>
      <trkpt lat="-18.07054" lon="-69.07293">
        <ele>4827</ele>
        <time>2025-10-14T14:48:06Z</time>
      </trkpt>
      <trkpt lat="-18.07046" lon="-69.07291">
        <ele>4827</ele>
        <time>2025-10-14T14:48:16Z</time>
      </trkpt>
      <trkpt lat="-18.07037" lon="-69.07289">
        <ele>4826</ele>
        <time>2025-10-14T14:48:24Z</time>
      </trkpt>
      <trkpt lat="-18.07032" lon="-69.07288">
        <ele>4826</ele>
        <time>2025-10-14T14:48:28Z</time>
      </trkpt>
      <trkpt lat="-18.07029" lon="-69.0729">
        <ele>4825</ele>
        <time>2025-10-14T14:48:32Z</time>
      </trkpt>
      <trkpt lat="-18.07025" lon="-69.0729">
        <ele>4825</ele>
        <time>2025-10-14T14:48:36Z</time>
      </trkpt>
      <trkpt lat="-18.07021" lon="-69.07289">
        <ele>4824</ele>
        <time>2025-10-14T14:48:40Z</time>
      </trkpt>
      <trkpt lat="-18.07005" lon="-69.0729">
        <ele>4822</ele>
        <time>2025-10-14T14:48:56Z</time>
      </trkpt>
      <trkpt lat="-18.07001" lon="-69.07292">
        <ele>4822</ele>
        <time>2025-10-14T14:49:00Z</time>
      </trkpt>
      <trkpt lat="-18.06993" lon="-69.07292">
        <ele>4823</ele>
        <time>2025-10-14T14:49:08Z</time>
      </trkpt>
      <trkpt lat="-18.06978" lon="-69.07291">
        <ele>4822</ele>
        <time>2025-10-14T14:49:24Z</time>
      </trkpt>
      <trkpt lat="-18.06974" lon="-69.07291">
        <ele>4823</ele>
        <time>2025-10-14T14:49:30Z</time>
      </trkpt>
      <trkpt lat="-18.06967" lon="-69.07286">
        <ele>4822</ele>
        <time>2025-10-14T14:49:42Z</time>
      </trkpt>
      <trkpt lat="-18.06965" lon="-69.07284">
        <ele>4822</ele>
        <time>2025-10-14T14:49:46Z</time>
      </trkpt>
      <trkpt lat="-18.06961" lon="-69.0728">
        <ele>4822</ele>
        <time>2025-10-14T14:49:52Z</time>
      </trkpt>
      <trkpt lat="-18.06958" lon="-69.0728">
        <ele>4821</ele>
        <time>2025-10-14T14:49:56Z</time>
      </trkpt>
      <trkpt lat="-18.06953" lon="-69.0728">
        <ele>4821</ele>
        <time>2025-10-14T14:50:02Z</time>
      </trkpt>
      <trkpt lat="-18.0695" lon="-69.07281">
        <ele>4821</ele>
        <time>2025-10-14T14:50:06Z</time>
      </trkpt>
      <trkpt lat="-18.06943" lon="-69.07282">
        <ele>4821</ele>
        <time>2025-10-14T14:50:14Z</time>
      </trkpt>
      <trkpt lat="-18.06939" lon="-69.07283">
        <ele>4822</ele>
        <time>2025-10-14T14:50:20Z</time>
      </trkpt>
      <trkpt lat="-18.06935" lon="-69.07282">
        <ele>4823</ele>
        <time>2025-10-14T14:50:26Z</time>
      </trkpt>
      <trkpt lat="-18.06927" lon="-69.07281">
        <ele>4823</ele>
        <time>2025-10-14T14:51:00Z</time>
      </trkpt>
      <trkpt lat="-18.06915" lon="-69.0728">
        <ele>4825</ele>
        <time>2025-10-14T14:51:16Z</time>
      </trkpt>
      <trkpt lat="-18.06902" lon="-69.07276">
        <ele>4826</ele>
        <time>2025-10-14T14:51:32Z</time>
      </trkpt>
      <trkpt lat="-18.06895" lon="-69.07273">
        <ele>4826</ele>
        <time>2025-10-14T14:51:40Z</time>
      </trkpt>
      <trkpt lat="-18.06882" lon="-69.07269">
        <ele>4826</ele>
        <time>2025-10-14T14:51:56Z</time>
      </trkpt>
      <trkpt lat="-18.06875" lon="-69.07267">
        <ele>4826</ele>
        <time>2025-10-14T14:52:04Z</time>
      </trkpt>
      <trkpt lat="-18.06863" lon="-69.07265">
        <ele>4828</ele>
        <time>2025-10-14T14:52:16Z</time>
      </trkpt>
      <trkpt lat="-18.0686" lon="-69.07266">
        <ele>4829</ele>
        <time>2025-10-14T14:52:20Z</time>
      </trkpt>
      <trkpt lat="-18.06856" lon="-69.07265">
        <ele>4829</ele>
        <time>2025-10-14T14:52:30Z</time>
      </trkpt>
      <trkpt lat="-18.06853" lon="-69.07262">
        <ele>4828</ele>
        <time>2025-10-14T14:53:16Z</time>
      </trkpt>
      <trkpt lat="-18.06848" lon="-69.0726">
        <ele>4829</ele>
        <time>2025-10-14T14:53:22Z</time>
      </trkpt>
      <trkpt lat="-18.06845" lon="-69.07258">
        <ele>4829</ele>
        <time>2025-10-14T14:53:26Z</time>
      </trkpt>
      <trkpt lat="-18.06843" lon="-69.07256">
        <ele>4828</ele>
        <time>2025-10-14T14:53:30Z</time>
      </trkpt>
      <trkpt lat="-18.06837" lon="-69.07255">
        <ele>4828</ele>
        <time>2025-10-14T14:53:36Z</time>
      </trkpt>
      <trkpt lat="-18.06834" lon="-69.07252">
        <ele>4827</ele>
        <time>2025-10-14T14:53:42Z</time>
      </trkpt>
      <trkpt lat="-18.0683" lon="-69.0725">
        <ele>4828</ele>
        <time>2025-10-14T14:53:48Z</time>
      </trkpt>
      <trkpt lat="-18.06827" lon="-69.0725">
        <ele>4829</ele>
        <time>2025-10-14T14:53:56Z</time>
      </trkpt>
      <trkpt lat="-18.06824" lon="-69.07247">
        <ele>4829</ele>
        <time>2025-10-14T14:54:04Z</time>
      </trkpt>
      <trkpt lat="-18.0682" lon="-69.07246">
        <ele>4830</ele>
        <time>2025-10-14T14:54:12Z</time>
      </trkpt>
      <trkpt lat="-18.06817" lon="-69.07245">
        <ele>4831</ele>
        <time>2025-10-14T14:55:20Z</time>
      </trkpt>
      <trkpt lat="-18.06816" lon="-69.07241">
        <ele>4835</ele>
        <time>2025-10-14T14:55:32Z</time>
      </trkpt>
      <trkpt lat="-18.06812" lon="-69.0724">
        <ele>4837</ele>
        <time>2025-10-14T14:55:50Z</time>
      </trkpt>
      <trkpt lat="-18.06809" lon="-69.07242">
        <ele>4837</ele>
        <time>2025-10-14T14:55:57Z</time>
      </trkpt>
      <trkpt lat="-18.06795" lon="-69.07233">
        <ele>4833</ele>
        <time>2025-10-14T14:56:23Z</time>
      </trkpt>
      <trkpt lat="-18.06792" lon="-69.0723">
        <ele>4833</ele>
        <time>2025-10-14T14:56:29Z</time>
      </trkpt>
      <trkpt lat="-18.06789" lon="-69.07228">
        <ele>4833</ele>
        <time>2025-10-14T14:57:11Z</time>
      </trkpt>
      <trkpt lat="-18.06786" lon="-69.07226">
        <ele>4833</ele>
        <time>2025-10-14T14:57:19Z</time>
      </trkpt>
      <trkpt lat="-18.06782" lon="-69.07225">
        <ele>4834</ele>
        <time>2025-10-14T14:58:17Z</time>
      </trkpt>
      <trkpt lat="-18.06775" lon="-69.0722">
        <ele>4833</ele>
        <time>2025-10-14T14:58:31Z</time>
      </trkpt>
      <trkpt lat="-18.06768" lon="-69.07215">
        <ele>4833</ele>
        <time>2025-10-14T14:58:41Z</time>
      </trkpt>
      <trkpt lat="-18.06765" lon="-69.07213">
        <ele>4833</ele>
        <time>2025-10-14T14:58:47Z</time>
      </trkpt>
      <trkpt lat="-18.06758" lon="-69.07209">
        <ele>4834</ele>
        <time>2025-10-14T14:58:57Z</time>
      </trkpt>
      <trkpt lat="-18.06749" lon="-69.07206">
        <ele>4834</ele>
        <time>2025-10-14T14:59:13Z</time>
      </trkpt>
      <trkpt lat="-18.06744" lon="-69.07201">
        <ele>4834</ele>
        <time>2025-10-14T14:59:21Z</time>
      </trkpt>
      <trkpt lat="-18.06737" lon="-69.07194">
        <ele>4834</ele>
        <time>2025-10-14T14:59:33Z</time>
      </trkpt>
      <trkpt lat="-18.06733" lon="-69.07191">
        <ele>4835</ele>
        <time>2025-10-14T14:59:39Z</time>
      </trkpt>
      <trkpt lat="-18.06729" lon="-69.07183">
        <ele>4837</ele>
        <time>2025-10-14T14:59:51Z</time>
      </trkpt>
      <trkpt lat="-18.06726" lon="-69.0718">
        <ele>4838</ele>
        <time>2025-10-14T14:59:59Z</time>
      </trkpt>
      <trkpt lat="-18.06723" lon="-69.07179">
        <ele>4838</ele>
        <time>2025-10-14T15:00:05Z</time>
      </trkpt>
      <trkpt lat="-18.0672" lon="-69.07175">
        <ele>4838</ele>
        <time>2025-10-14T15:00:11Z</time>
      </trkpt>
      <trkpt lat="-18.06719" lon="-69.07172">
        <ele>4839</ele>
        <time>2025-10-14T15:00:17Z</time>
      </trkpt>
      <trkpt lat="-18.06716" lon="-69.07169">
        <ele>4839</ele>
        <time>2025-10-14T15:00:23Z</time>
      </trkpt>
      <trkpt lat="-18.0671" lon="-69.0716">
        <ele>4841</ele>
        <time>2025-10-14T15:00:41Z</time>
      </trkpt>
      <trkpt lat="-18.06707" lon="-69.07157">
        <ele>4841</ele>
        <time>2025-10-14T15:00:47Z</time>
      </trkpt>
      <trkpt lat="-18.067" lon="-69.0715">
        <ele>4841</ele>
        <time>2025-10-14T15:01:05Z</time>
      </trkpt>
      <trkpt lat="-18.06698" lon="-69.07145">
        <ele>4842</ele>
        <time>2025-10-14T15:01:13Z</time>
      </trkpt>
      <trkpt lat="-18.06695" lon="-69.07142">
        <ele>4842</ele>
        <time>2025-10-14T15:01:19Z</time>
      </trkpt>
      <trkpt lat="-18.06691" lon="-69.0714">
        <ele>4843</ele>
        <time>2025-10-14T15:01:25Z</time>
      </trkpt>
      <trkpt lat="-18.06688" lon="-69.07137">
        <ele>4845</ele>
        <time>2025-10-14T15:01:33Z</time>
      </trkpt>
      <trkpt lat="-18.06686" lon="-69.07134">
        <ele>4846</ele>
        <time>2025-10-14T15:01:41Z</time>
      </trkpt>
      <trkpt lat="-18.06687" lon="-69.0713">
        <ele>4846</ele>
        <time>2025-10-14T15:01:47Z</time>
      </trkpt>
      <trkpt lat="-18.06685" lon="-69.07126">
        <ele>4845</ele>
        <time>2025-10-14T15:01:53Z</time>
      </trkpt>
      <trkpt lat="-18.06683" lon="-69.07119">
        <ele>4846</ele>
        <time>2025-10-14T15:02:05Z</time>
      </trkpt>
      <trkpt lat="-18.0668" lon="-69.07115">
        <ele>4846</ele>
        <time>2025-10-14T15:02:13Z</time>
      </trkpt>
      <trkpt lat="-18.06679" lon="-69.07111">
        <ele>4847</ele>
        <time>2025-10-14T15:02:21Z</time>
      </trkpt>
      <trkpt lat="-18.06676" lon="-69.07108">
        <ele>4847</ele>
        <time>2025-10-14T15:02:27Z</time>
      </trkpt>
      <trkpt lat="-18.06673" lon="-69.07106">
        <ele>4848</ele>
        <time>2025-10-14T15:02:33Z</time>
      </trkpt>
      <trkpt lat="-18.0667" lon="-69.07104">
        <ele>4849</ele>
        <time>2025-10-14T15:02:41Z</time>
      </trkpt>
      <trkpt lat="-18.06667" lon="-69.07097">
        <ele>4853</ele>
        <time>2025-10-14T15:03:01Z</time>
      </trkpt>
      <trkpt lat="-18.06666" lon="-69.07088">
        <ele>4855</ele>
        <time>2025-10-14T15:03:19Z</time>
      </trkpt>
      <trkpt lat="-18.06663" lon="-69.07085">
        <ele>4856</ele>
        <time>2025-10-14T15:04:05Z</time>
      </trkpt>
      <trkpt lat="-18.06662" lon="-69.0708">
        <ele>4855</ele>
        <time>2025-10-14T15:04:11Z</time>
      </trkpt>
      <trkpt lat="-18.06661" lon="-69.07077">
        <ele>4855</ele>
        <time>2025-10-14T15:04:17Z</time>
      </trkpt>
      <trkpt lat="-18.06662" lon="-69.07068">
        <ele>4857</ele>
        <time>2025-10-14T15:04:29Z</time>
      </trkpt>
      <trkpt lat="-18.06661" lon="-69.07065">
        <ele>4857</ele>
        <time>2025-10-14T15:04:35Z</time>
      </trkpt>
      <trkpt lat="-18.06661" lon="-69.07057">
        <ele>4859</ele>
        <time>2025-10-14T15:04:47Z</time>
      </trkpt>
      <trkpt lat="-18.06663" lon="-69.07053">
        <ele>4860</ele>
        <time>2025-10-14T15:04:55Z</time>
      </trkpt>
      <trkpt lat="-18.06663" lon="-69.07044">
        <ele>4863</ele>
        <time>2025-10-14T15:05:11Z</time>
      </trkpt>
      <trkpt lat="-18.06661" lon="-69.0704">
        <ele>4865</ele>
        <time>2025-10-14T15:05:19Z</time>
      </trkpt>
      <trkpt lat="-18.06657" lon="-69.0704">
        <ele>4866</ele>
        <time>2025-10-14T15:05:27Z</time>
      </trkpt>
      <trkpt lat="-18.06656" lon="-69.07036">
        <ele>4867</ele>
        <time>2025-10-14T15:05:39Z</time>
      </trkpt>
      <trkpt lat="-18.06655" lon="-69.07033">
        <ele>4868</ele>
        <time>2025-10-14T15:05:47Z</time>
      </trkpt>
      <trkpt lat="-18.06654" lon="-69.07029">
        <ele>4870</ele>
        <time>2025-10-14T15:06:03Z</time>
      </trkpt>
      <trkpt lat="-18.06655" lon="-69.07026">
        <ele>4870</ele>
        <time>2025-10-14T15:06:11Z</time>
      </trkpt>
      <trkpt lat="-18.06657" lon="-69.07022">
        <ele>4872</ele>
        <time>2025-10-14T15:06:21Z</time>
      </trkpt>
      <trkpt lat="-18.06655" lon="-69.07018">
        <ele>4872</ele>
        <time>2025-10-14T15:06:29Z</time>
      </trkpt>
      <trkpt lat="-18.06652" lon="-69.07016">
        <ele>4873</ele>
        <time>2025-10-14T15:06:35Z</time>
      </trkpt>
      <trkpt lat="-18.06652" lon="-69.07012">
        <ele>4874</ele>
        <time>2025-10-14T15:06:45Z</time>
      </trkpt>
      <trkpt lat="-18.0665" lon="-69.07009">
        <ele>4875</ele>
        <time>2025-10-14T15:06:53Z</time>
      </trkpt>
      <trkpt lat="-18.06648" lon="-69.07006">
        <ele>4876</ele>
        <time>2025-10-14T15:07:03Z</time>
      </trkpt>
      <trkpt lat="-18.06648" lon="-69.07002">
        <ele>4879</ele>
        <time>2025-10-14T15:07:13Z</time>
      </trkpt>
      <trkpt lat="-18.06646" lon="-69.06999">
        <ele>4879</ele>
        <time>2025-10-14T15:07:21Z</time>
      </trkpt>
      <trkpt lat="-18.06645" lon="-69.0699">
        <ele>4881</ele>
        <time>2025-10-14T15:07:41Z</time>
      </trkpt>
      <trkpt lat="-18.06643" lon="-69.06987">
        <ele>4883</ele>
        <time>2025-10-14T15:07:51Z</time>
      </trkpt>
      <trkpt lat="-18.06639" lon="-69.06987">
        <ele>4884</ele>
        <time>2025-10-14T15:07:59Z</time>
      </trkpt>
      <trkpt lat="-18.06636" lon="-69.06986">
        <ele>4886</ele>
        <time>2025-10-14T15:08:05Z</time>
      </trkpt>
      <trkpt lat="-18.06634" lon="-69.06983">
        <ele>4888</ele>
        <time>2025-10-14T15:08:19Z</time>
      </trkpt>
      <trkpt lat="-18.06631" lon="-69.0698">
        <ele>4888</ele>
        <time>2025-10-14T15:08:29Z</time>
      </trkpt>
      <trkpt lat="-18.06628" lon="-69.06978">
        <ele>4888</ele>
        <time>2025-10-14T15:08:37Z</time>
      </trkpt>
      <trkpt lat="-18.06625" lon="-69.06977">
        <ele>4892</ele>
        <time>2025-10-14T15:08:53Z</time>
      </trkpt>
      <trkpt lat="-18.06624" lon="-69.06974">
        <ele>4893</ele>
        <time>2025-10-14T15:09:05Z</time>
      </trkpt>
      <trkpt lat="-18.06625" lon="-69.0697">
        <ele>4894</ele>
        <time>2025-10-14T15:09:17Z</time>
      </trkpt>
      <trkpt lat="-18.06624" lon="-69.06966">
        <ele>4896</ele>
        <time>2025-10-14T15:09:25Z</time>
      </trkpt>
      <trkpt lat="-18.06621" lon="-69.06964">
        <ele>4897</ele>
        <time>2025-10-14T15:09:45Z</time>
      </trkpt>
      <trkpt lat="-18.0662" lon="-69.0696">
        <ele>4899</ele>
        <time>2025-10-14T15:09:55Z</time>
      </trkpt>
      <trkpt lat="-18.06618" lon="-69.06956">
        <ele>4900</ele>
        <time>2025-10-14T15:10:03Z</time>
      </trkpt>
      <trkpt lat="-18.06618" lon="-69.06952">
        <ele>4900</ele>
        <time>2025-10-14T15:10:11Z</time>
      </trkpt>
      <trkpt lat="-18.06615" lon="-69.06949">
        <ele>4900</ele>
        <time>2025-10-14T15:10:19Z</time>
      </trkpt>
      <trkpt lat="-18.06613" lon="-69.06945">
        <ele>4900</ele>
        <time>2025-10-14T15:10:29Z</time>
      </trkpt>
      <trkpt lat="-18.06612" lon="-69.06941">
        <ele>4900</ele>
        <time>2025-10-14T15:10:37Z</time>
      </trkpt>
      <trkpt lat="-18.06598" lon="-69.06931">
        <ele>4904</ele>
        <time>2025-10-14T15:11:09Z</time>
      </trkpt>
      <trkpt lat="-18.06597" lon="-69.06927">
        <ele>4904</ele>
        <time>2025-10-14T15:11:17Z</time>
      </trkpt>
      <trkpt lat="-18.06595" lon="-69.06914">
        <ele>4904</ele>
        <time>2025-10-14T15:11:37Z</time>
      </trkpt>
      <trkpt lat="-18.06594" lon="-69.06911">
        <ele>4904</ele>
        <time>2025-10-14T15:11:43Z</time>
      </trkpt>
      <trkpt lat="-18.06591" lon="-69.06909">
        <ele>4905</ele>
        <time>2025-10-14T15:11:55Z</time>
      </trkpt>
      <trkpt lat="-18.06588" lon="-69.06912">
        <ele>4906</ele>
        <time>2025-10-14T15:12:37Z</time>
      </trkpt>
      <trkpt lat="-18.06589" lon="-69.06912">
        <ele>4911</ele>
        <time>2025-10-14T15:14:41Z</time>
      </trkpt>
      <trkpt lat="-18.06589" lon="-69.06908">
        <ele>4911</ele>
        <time>2025-10-14T15:14:49Z</time>
      </trkpt>
      <trkpt lat="-18.06589" lon="-69.069">
        <ele>4909</ele>
        <time>2025-10-14T15:15:03Z</time>
      </trkpt>
      <trkpt lat="-18.06585" lon="-69.06896">
        <ele>4909</ele>
        <time>2025-10-14T15:15:09Z</time>
      </trkpt>
      <trkpt lat="-18.06584" lon="-69.06892">
        <ele>4909</ele>
        <time>2025-10-14T15:15:15Z</time>
      </trkpt>
      <trkpt lat="-18.06578" lon="-69.06885">
        <ele>4907</ele>
        <time>2025-10-14T15:15:27Z</time>
      </trkpt>
      <trkpt lat="-18.06562" lon="-69.06865">
        <ele>4909</ele>
        <time>2025-10-14T15:15:59Z</time>
      </trkpt>
      <trkpt lat="-18.06562" lon="-69.06861">
        <ele>4909</ele>
        <time>2025-10-14T15:16:05Z</time>
      </trkpt>
      <trkpt lat="-18.06559" lon="-69.06853">
        <ele>4910</ele>
        <time>2025-10-14T15:16:15Z</time>
      </trkpt>
      <trkpt lat="-18.06557" lon="-69.0685">
        <ele>4912</ele>
        <time>2025-10-14T15:16:21Z</time>
      </trkpt>
      <trkpt lat="-18.06556" lon="-69.06845">
        <ele>4912</ele>
        <time>2025-10-14T15:16:25Z</time>
      </trkpt>
      <trkpt lat="-18.06554" lon="-69.06841">
        <ele>4911</ele>
        <time>2025-10-14T15:16:43Z</time>
      </trkpt>
      <trkpt lat="-18.06551" lon="-69.06829">
        <ele>4909</ele>
        <time>2025-10-14T15:16:59Z</time>
      </trkpt>
      <trkpt lat="-18.0655" lon="-69.06818">
        <ele>4909</ele>
        <time>2025-10-14T15:17:17Z</time>
      </trkpt>
      <trkpt lat="-18.06548" lon="-69.06815">
        <ele>4909</ele>
        <time>2025-10-14T15:17:27Z</time>
      </trkpt>
      <trkpt lat="-18.06546" lon="-69.06806">
        <ele>4909</ele>
        <time>2025-10-14T15:17:37Z</time>
      </trkpt>
      <trkpt lat="-18.06545" lon="-69.06803">
        <ele>4909</ele>
        <time>2025-10-14T15:17:41Z</time>
      </trkpt>
      <trkpt lat="-18.06546" lon="-69.06799">
        <ele>4910</ele>
        <time>2025-10-14T15:17:47Z</time>
      </trkpt>
      <trkpt lat="-18.0654" lon="-69.06784">
        <ele>4910</ele>
        <time>2025-10-14T15:18:05Z</time>
      </trkpt>
      <trkpt lat="-18.06538" lon="-69.06777">
        <ele>4910</ele>
        <time>2025-10-14T15:18:13Z</time>
      </trkpt>
      <trkpt lat="-18.06536" lon="-69.06773">
        <ele>4910</ele>
        <time>2025-10-14T15:18:17Z</time>
      </trkpt>
      <trkpt lat="-18.06534" lon="-69.0677">
        <ele>4910</ele>
        <time>2025-10-14T15:18:21Z</time>
      </trkpt>
      <trkpt lat="-18.06532" lon="-69.06763">
        <ele>4910</ele>
        <time>2025-10-14T15:18:29Z</time>
      </trkpt>
      <trkpt lat="-18.06528" lon="-69.06752">
        <ele>4910</ele>
        <time>2025-10-14T15:18:41Z</time>
      </trkpt>
      <trkpt lat="-18.06525" lon="-69.06744">
        <ele>4910</ele>
        <time>2025-10-14T15:18:51Z</time>
      </trkpt>
      <trkpt lat="-18.06521" lon="-69.06731">
        <ele>4910</ele>
        <time>2025-10-14T15:19:09Z</time>
      </trkpt>
      <trkpt lat="-18.06519" lon="-69.06727">
        <ele>4910</ele>
        <time>2025-10-14T15:19:15Z</time>
      </trkpt>
      <trkpt lat="-18.06517" lon="-69.06729">
        <ele>4912</ele>
        <time>2025-10-14T15:20:07Z</time>
      </trkpt>
      <trkpt lat="-18.06515" lon="-69.06726">
        <ele>4912</ele>
        <time>2025-10-14T15:22:00Z</time>
      </trkpt>
      <trkpt lat="-18.06512" lon="-69.06696">
        <ele>4909</ele>
        <time>2025-10-14T15:22:30Z</time>
      </trkpt>
      <trkpt lat="-18.06511" lon="-69.06688">
        <ele>4908</ele>
        <time>2025-10-14T15:22:38Z</time>
      </trkpt>
      <trkpt lat="-18.0651" lon="-69.06672">
        <ele>4908</ele>
        <time>2025-10-14T15:22:54Z</time>
      </trkpt>
      <trkpt lat="-18.06508" lon="-69.0666">
        <ele>4908</ele>
        <time>2025-10-14T15:23:06Z</time>
      </trkpt>
      <trkpt lat="-18.06506" lon="-69.06656">
        <ele>4908</ele>
        <time>2025-10-14T15:23:10Z</time>
      </trkpt>
      <trkpt lat="-18.06505" lon="-69.06651">
        <ele>4908</ele>
        <time>2025-10-14T15:23:16Z</time>
      </trkpt>
      <trkpt lat="-18.06503" lon="-69.06648">
        <ele>4908</ele>
        <time>2025-10-14T15:23:22Z</time>
      </trkpt>
      <trkpt lat="-18.06497" lon="-69.06643">
        <ele>4909</ele>
        <time>2025-10-14T15:23:42Z</time>
      </trkpt>
      <trkpt lat="-18.06495" lon="-69.06639">
        <ele>4909</ele>
        <time>2025-10-14T15:23:48Z</time>
      </trkpt>
      <trkpt lat="-18.06494" lon="-69.06635">
        <ele>4909</ele>
        <time>2025-10-14T15:23:52Z</time>
      </trkpt>
      <trkpt lat="-18.06487" lon="-69.06629">
        <ele>4909</ele>
        <time>2025-10-14T15:24:04Z</time>
      </trkpt>
      <trkpt lat="-18.06484" lon="-69.06625">
        <ele>4908</ele>
        <time>2025-10-14T15:24:10Z</time>
      </trkpt>
      <trkpt lat="-18.0648" lon="-69.06623">
        <ele>4908</ele>
        <time>2025-10-14T15:24:16Z</time>
      </trkpt>
      <trkpt lat="-18.06476" lon="-69.0662">
        <ele>4907</ele>
        <time>2025-10-14T15:24:22Z</time>
      </trkpt>
      <trkpt lat="-18.06455" lon="-69.06603">
        <ele>4907</ele>
        <time>2025-10-14T15:24:54Z</time>
      </trkpt>
      <trkpt lat="-18.06453" lon="-69.06599">
        <ele>4907</ele>
        <time>2025-10-14T15:25:00Z</time>
      </trkpt>
      <trkpt lat="-18.06449" lon="-69.06598">
        <ele>4907</ele>
        <time>2025-10-14T15:25:06Z</time>
      </trkpt>
      <trkpt lat="-18.06445" lon="-69.06599">
        <ele>4907</ele>
        <time>2025-10-14T15:25:12Z</time>
      </trkpt>
      <trkpt lat="-18.06442" lon="-69.06598">
        <ele>4909</ele>
        <time>2025-10-14T15:25:44Z</time>
      </trkpt>
      <trkpt lat="-18.06444" lon="-69.06594">
        <ele>4909</ele>
        <time>2025-10-14T15:25:52Z</time>
      </trkpt>
      <trkpt lat="-18.06443" lon="-69.06589">
        <ele>4909</ele>
        <time>2025-10-14T15:26:00Z</time>
      </trkpt>
      <trkpt lat="-18.06437" lon="-69.06584">
        <ele>4912</ele>
        <time>2025-10-14T15:26:18Z</time>
      </trkpt>
      <trkpt lat="-18.06433" lon="-69.06581">
        <ele>4912</ele>
        <time>2025-10-14T15:26:40Z</time>
      </trkpt>
      <trkpt lat="-18.06434" lon="-69.06578">
        <ele>4914</ele>
        <time>2025-10-14T15:28:01Z</time>
      </trkpt>
      <trkpt lat="-18.06431" lon="-69.06574">
        <ele>4913</ele>
        <time>2025-10-14T15:28:15Z</time>
      </trkpt>
      <trkpt lat="-18.06434" lon="-69.06577">
        <ele>4913</ele>
        <time>2025-10-14T15:29:40Z</time>
      </trkpt>
      <trkpt lat="-18.06432" lon="-69.06577">
        <ele>4916</ele>
        <time>2025-10-14T15:30:33Z</time>
      </trkpt>
      <trkpt lat="-18.06429" lon="-69.06576">
        <ele>4916</ele>
        <time>2025-10-14T15:30:41Z</time>
      </trkpt>
      <trkpt lat="-18.06422" lon="-69.06572">
        <ele>4915</ele>
        <time>2025-10-14T15:31:03Z</time>
      </trkpt>
      <trkpt lat="-18.06419" lon="-69.06569">
        <ele>4914</ele>
        <time>2025-10-14T15:31:09Z</time>
      </trkpt>
      <trkpt lat="-18.06417" lon="-69.06565">
        <ele>4914</ele>
        <time>2025-10-14T15:31:15Z</time>
      </trkpt>
      <trkpt lat="-18.06414" lon="-69.06561">
        <ele>4913</ele>
        <time>2025-10-14T15:31:21Z</time>
      </trkpt>
      <trkpt lat="-18.0641" lon="-69.0656">
        <ele>4913</ele>
        <time>2025-10-14T15:31:27Z</time>
      </trkpt>
      <trkpt lat="-18.06407" lon="-69.06558">
        <ele>4913</ele>
        <time>2025-10-14T15:31:39Z</time>
      </trkpt>
      <trkpt lat="-18.06402" lon="-69.06552">
        <ele>4913</ele>
        <time>2025-10-14T15:31:51Z</time>
      </trkpt>
      <trkpt lat="-18.064" lon="-69.06547">
        <ele>4913</ele>
        <time>2025-10-14T15:32:17Z</time>
      </trkpt>
      <trkpt lat="-18.06398" lon="-69.06543">
        <ele>4911</ele>
        <time>2025-10-14T15:32:21Z</time>
      </trkpt>
      <trkpt lat="-18.06392" lon="-69.06537">
        <ele>4909</ele>
        <time>2025-10-14T15:32:29Z</time>
      </trkpt>
      <trkpt lat="-18.06388" lon="-69.06536">
        <ele>4909</ele>
        <time>2025-10-14T15:32:33Z</time>
      </trkpt>
      <trkpt lat="-18.06384" lon="-69.06535">
        <ele>4909</ele>
        <time>2025-10-14T15:32:37Z</time>
      </trkpt>
      <trkpt lat="-18.06381" lon="-69.06531">
        <ele>4910</ele>
        <time>2025-10-14T15:32:41Z</time>
      </trkpt>
      <trkpt lat="-18.06372" lon="-69.06525">
        <ele>4910</ele>
        <time>2025-10-14T15:32:53Z</time>
      </trkpt>
      <trkpt lat="-18.06368" lon="-69.06522">
        <ele>4910</ele>
        <time>2025-10-14T15:32:57Z</time>
      </trkpt>
      <trkpt lat="-18.06366" lon="-69.0652">
        <ele>4910</ele>
        <time>2025-10-14T15:33:01Z</time>
      </trkpt>
      <trkpt lat="-18.06362" lon="-69.06519">
        <ele>4911</ele>
        <time>2025-10-14T15:33:05Z</time>
      </trkpt>
      <trkpt lat="-18.06358" lon="-69.06517">
        <ele>4911</ele>
        <time>2025-10-14T15:33:11Z</time>
      </trkpt>
      <trkpt lat="-18.06355" lon="-69.06517">
        <ele>4911</ele>
        <time>2025-10-14T15:33:15Z</time>
      </trkpt>
      <trkpt lat="-18.06351" lon="-69.06518">
        <ele>4911</ele>
        <time>2025-10-14T15:33:19Z</time>
      </trkpt>
      <trkpt lat="-18.06347" lon="-69.06518">
        <ele>4912</ele>
        <time>2025-10-14T15:33:23Z</time>
      </trkpt>
      <trkpt lat="-18.06344" lon="-69.06516">
        <ele>4911</ele>
        <time>2025-10-14T15:33:29Z</time>
      </trkpt>
      <trkpt lat="-18.06341" lon="-69.06513">
        <ele>4911</ele>
        <time>2025-10-14T15:33:35Z</time>
      </trkpt>
      <trkpt lat="-18.06338" lon="-69.06514">
        <ele>4913</ele>
        <time>2025-10-14T15:34:05Z</time>
      </trkpt>
      <trkpt lat="-18.06334" lon="-69.06515">
        <ele>4913</ele>
        <time>2025-10-14T15:34:29Z</time>
      </trkpt>
      <trkpt lat="-18.06329" lon="-69.06515">
        <ele>4914</ele>
        <time>2025-10-14T15:34:33Z</time>
      </trkpt>
      <trkpt lat="-18.06327" lon="-69.06512">
        <ele>4913</ele>
        <time>2025-10-14T15:34:39Z</time>
      </trkpt>
      <trkpt lat="-18.06324" lon="-69.06508">
        <ele>4913</ele>
        <time>2025-10-14T15:34:47Z</time>
      </trkpt>
      <trkpt lat="-18.0632" lon="-69.06504">
        <ele>4912</ele>
        <time>2025-10-14T15:34:53Z</time>
      </trkpt>
      <trkpt lat="-18.06317" lon="-69.06501">
        <ele>4911</ele>
        <time>2025-10-14T15:34:59Z</time>
      </trkpt>
      <trkpt lat="-18.06317" lon="-69.06497">
        <ele>4911</ele>
        <time>2025-10-14T15:35:07Z</time>
      </trkpt>
      <trkpt lat="-18.06316" lon="-69.06492">
        <ele>4912</ele>
        <time>2025-10-14T15:35:17Z</time>
      </trkpt>
      <trkpt lat="-18.06314" lon="-69.0649">
        <ele>4912</ele>
        <time>2025-10-14T15:35:21Z</time>
      </trkpt>
      <trkpt lat="-18.0631" lon="-69.06483">
        <ele>4911</ele>
        <time>2025-10-14T15:35:33Z</time>
      </trkpt>
      <trkpt lat="-18.06306" lon="-69.0648">
        <ele>4912</ele>
        <time>2025-10-14T15:35:39Z</time>
      </trkpt>
      <trkpt lat="-18.06296" lon="-69.06478">
        <ele>4913</ele>
        <time>2025-10-14T15:35:51Z</time>
      </trkpt>
      <trkpt lat="-18.06283" lon="-69.06478">
        <ele>4914</ele>
        <time>2025-10-14T15:36:27Z</time>
      </trkpt>
      <trkpt lat="-18.0628" lon="-69.06478">
        <ele>4914</ele>
        <time>2025-10-14T15:36:39Z</time>
      </trkpt>
      <trkpt lat="-18.06272" lon="-69.06477">
        <ele>4915</ele>
        <time>2025-10-14T15:36:53Z</time>
      </trkpt>
      <trkpt lat="-18.06268" lon="-69.06478">
        <ele>4914</ele>
        <time>2025-10-14T15:37:09Z</time>
      </trkpt>
      <trkpt lat="-18.06263" lon="-69.06476">
        <ele>4914</ele>
        <time>2025-10-14T15:37:15Z</time>
      </trkpt>
      <trkpt lat="-18.06259" lon="-69.06479">
        <ele>4914</ele>
        <time>2025-10-14T15:37:31Z</time>
      </trkpt>
      <trkpt lat="-18.06256" lon="-69.06481">
        <ele>4917</ele>
        <time>2025-10-14T15:37:52Z</time>
      </trkpt>
      <trkpt lat="-18.06252" lon="-69.06479">
        <ele>4917</ele>
        <time>2025-10-14T15:38:00Z</time>
      </trkpt>
      <trkpt lat="-18.06251" lon="-69.06476">
        <ele>4918</ele>
        <time>2025-10-14T15:38:08Z</time>
      </trkpt>
      <trkpt lat="-18.06246" lon="-69.06469">
        <ele>4917</ele>
        <time>2025-10-14T15:38:18Z</time>
      </trkpt>
      <trkpt lat="-18.06242" lon="-69.06467">
        <ele>4917</ele>
        <time>2025-10-14T15:38:24Z</time>
      </trkpt>
      <trkpt lat="-18.0622" lon="-69.06463">
        <ele>4918</ele>
        <time>2025-10-14T15:38:54Z</time>
      </trkpt>
      <trkpt lat="-18.06197" lon="-69.06461">
        <ele>4915</ele>
        <time>2025-10-14T15:39:24Z</time>
      </trkpt>
      <trkpt lat="-18.06189" lon="-69.06459">
        <ele>4916</ele>
        <time>2025-10-14T15:39:34Z</time>
      </trkpt>
      <trkpt lat="-18.06181" lon="-69.06455">
        <ele>4916</ele>
        <time>2025-10-14T15:39:44Z</time>
      </trkpt>
      <trkpt lat="-18.06179" lon="-69.06453">
        <ele>4917</ele>
        <time>2025-10-14T15:39:50Z</time>
      </trkpt>
      <trkpt lat="-18.06158" lon="-69.06435">
        <ele>4919</ele>
        <time>2025-10-14T15:40:26Z</time>
      </trkpt>
      <trkpt lat="-18.06155" lon="-69.06433">
        <ele>4920</ele>
        <time>2025-10-14T15:40:32Z</time>
      </trkpt>
      <trkpt lat="-18.06152" lon="-69.0643">
        <ele>4920</ele>
        <time>2025-10-14T15:40:38Z</time>
      </trkpt>
      <trkpt lat="-18.06149" lon="-69.06428">
        <ele>4920</ele>
        <time>2025-10-14T15:40:44Z</time>
      </trkpt>
      <trkpt lat="-18.06145" lon="-69.06426">
        <ele>4920</ele>
        <time>2025-10-14T15:40:50Z</time>
      </trkpt>
      <trkpt lat="-18.06143" lon="-69.06422">
        <ele>4921</ele>
        <time>2025-10-14T15:40:58Z</time>
      </trkpt>
      <trkpt lat="-18.0614" lon="-69.06423">
        <ele>4922</ele>
        <time>2025-10-14T15:41:04Z</time>
      </trkpt>
      <trkpt lat="-18.06137" lon="-69.06425">
        <ele>4923</ele>
        <time>2025-10-14T15:41:26Z</time>
      </trkpt>
      <trkpt lat="-18.06133" lon="-69.06425">
        <ele>4924</ele>
        <time>2025-10-14T15:42:20Z</time>
      </trkpt>
      <trkpt lat="-18.06129" lon="-69.06423">
        <ele>4924</ele>
        <time>2025-10-14T15:42:28Z</time>
      </trkpt>
      <trkpt lat="-18.06116" lon="-69.06412">
        <ele>4925</ele>
        <time>2025-10-14T15:42:50Z</time>
      </trkpt>
      <trkpt lat="-18.06112" lon="-69.0641">
        <ele>4925</ele>
        <time>2025-10-14T15:42:56Z</time>
      </trkpt>
      <trkpt lat="-18.06107" lon="-69.06405">
        <ele>4925</ele>
        <time>2025-10-14T15:43:08Z</time>
      </trkpt>
      <trkpt lat="-18.06104" lon="-69.06402">
        <ele>4925</ele>
        <time>2025-10-14T15:43:14Z</time>
      </trkpt>
      <trkpt lat="-18.06101" lon="-69.064">
        <ele>4926</ele>
        <time>2025-10-14T15:43:20Z</time>
      </trkpt>
      <trkpt lat="-18.06086" lon="-69.06393">
        <ele>4929</ele>
        <time>2025-10-14T15:43:44Z</time>
      </trkpt>
      <trkpt lat="-18.06082" lon="-69.06393">
        <ele>4930</ele>
        <time>2025-10-14T15:43:56Z</time>
      </trkpt>
      <trkpt lat="-18.06066" lon="-69.0639">
        <ele>4930</ele>
        <time>2025-10-14T15:44:50Z</time>
      </trkpt>
      <trkpt lat="-18.06059" lon="-69.06387">
        <ele>4930</ele>
        <time>2025-10-14T15:45:04Z</time>
      </trkpt>
      <trkpt lat="-18.06046" lon="-69.06381">
        <ele>4929</ele>
        <time>2025-10-14T15:45:28Z</time>
      </trkpt>
      <trkpt lat="-18.06043" lon="-69.0638">
        <ele>4930</ele>
        <time>2025-10-14T15:45:34Z</time>
      </trkpt>
      <trkpt lat="-18.0604" lon="-69.06378">
        <ele>4931</ele>
        <time>2025-10-14T15:45:42Z</time>
      </trkpt>
      <trkpt lat="-18.06036" lon="-69.06376">
        <ele>4931</ele>
        <time>2025-10-14T15:45:50Z</time>
      </trkpt>
      <trkpt lat="-18.06022" lon="-69.0637">
        <ele>4934</ele>
        <time>2025-10-14T15:46:16Z</time>
      </trkpt>
      <trkpt lat="-18.06016" lon="-69.06366">
        <ele>4935</ele>
        <time>2025-10-14T15:46:38Z</time>
      </trkpt>
      <trkpt lat="-18.06013" lon="-69.06363">
        <ele>4936</ele>
        <time>2025-10-14T15:46:46Z</time>
      </trkpt>
      <trkpt lat="-18.06008" lon="-69.06356">
        <ele>4937</ele>
        <time>2025-10-14T15:47:02Z</time>
      </trkpt>
      <trkpt lat="-18.06005" lon="-69.06353">
        <ele>4938</ele>
        <time>2025-10-14T15:47:12Z</time>
      </trkpt>
      <trkpt lat="-18.06" lon="-69.06348">
        <ele>4940</ele>
        <time>2025-10-14T15:47:24Z</time>
      </trkpt>
      <trkpt lat="-18.05996" lon="-69.06347">
        <ele>4940</ele>
        <time>2025-10-14T15:47:32Z</time>
      </trkpt>
      <trkpt lat="-18.0599" lon="-69.06342">
        <ele>4942</ele>
        <time>2025-10-14T15:47:48Z</time>
      </trkpt>
      <trkpt lat="-18.05987" lon="-69.06339">
        <ele>4942</ele>
        <time>2025-10-14T15:47:56Z</time>
      </trkpt>
      <trkpt lat="-18.05984" lon="-69.06337">
        <ele>4943</ele>
        <time>2025-10-14T15:48:04Z</time>
      </trkpt>
      <trkpt lat="-18.05982" lon="-69.06335">
        <ele>4944</ele>
        <time>2025-10-14T15:48:12Z</time>
      </trkpt>
      <trkpt lat="-18.05978" lon="-69.06333">
        <ele>4944</ele>
        <time>2025-10-14T15:48:18Z</time>
      </trkpt>
      <trkpt lat="-18.05975" lon="-69.06333">
        <ele>4946</ele>
        <time>2025-10-14T15:49:44Z</time>
      </trkpt>
      <trkpt lat="-18.05968" lon="-69.06328">
        <ele>4947</ele>
        <time>2025-10-14T15:50:12Z</time>
      </trkpt>
      <trkpt lat="-18.05965" lon="-69.06326">
        <ele>4947</ele>
        <time>2025-10-14T15:50:18Z</time>
      </trkpt>
      <trkpt lat="-18.05948" lon="-69.06318">
        <ele>4949</ele>
        <time>2025-10-14T15:50:48Z</time>
      </trkpt>
      <trkpt lat="-18.05939" lon="-69.0631">
        <ele>4953</ele>
        <time>2025-10-14T15:51:16Z</time>
      </trkpt>
      <trkpt lat="-18.05936" lon="-69.06307">
        <ele>4954</ele>
        <time>2025-10-14T15:51:28Z</time>
      </trkpt>
      <trkpt lat="-18.05931" lon="-69.063">
        <ele>4954</ele>
        <time>2025-10-14T15:51:46Z</time>
      </trkpt>
      <trkpt lat="-18.05928" lon="-69.06298">
        <ele>4956</ele>
        <time>2025-10-14T15:51:52Z</time>
      </trkpt>
      <trkpt lat="-18.05924" lon="-69.06296">
        <ele>4956</ele>
        <time>2025-10-14T15:52:00Z</time>
      </trkpt>
      <trkpt lat="-18.05921" lon="-69.06295">
        <ele>4957</ele>
        <time>2025-10-14T15:52:08Z</time>
      </trkpt>
      <trkpt lat="-18.05919" lon="-69.06293">
        <ele>4958</ele>
        <time>2025-10-14T15:52:16Z</time>
      </trkpt>
      <trkpt lat="-18.0592" lon="-69.06289">
        <ele>4958</ele>
        <time>2025-10-14T15:52:28Z</time>
      </trkpt>
      <trkpt lat="-18.05918" lon="-69.06286">
        <ele>4960</ele>
        <time>2025-10-14T15:52:36Z</time>
      </trkpt>
      <trkpt lat="-18.05914" lon="-69.06284">
        <ele>4960</ele>
        <time>2025-10-14T15:52:44Z</time>
      </trkpt>
      <trkpt lat="-18.05911" lon="-69.06282">
        <ele>4961</ele>
        <time>2025-10-14T15:52:52Z</time>
      </trkpt>
      <trkpt lat="-18.05902" lon="-69.06275">
        <ele>4964</ele>
        <time>2025-10-14T15:53:18Z</time>
      </trkpt>
      <trkpt lat="-18.05899" lon="-69.06273">
        <ele>4965</ele>
        <time>2025-10-14T15:53:26Z</time>
      </trkpt>
      <trkpt lat="-18.05896" lon="-69.0627">
        <ele>4965</ele>
        <time>2025-10-14T15:53:38Z</time>
      </trkpt>
      <trkpt lat="-18.05893" lon="-69.06268">
        <ele>4967</ele>
        <time>2025-10-14T15:53:48Z</time>
      </trkpt>
      <trkpt lat="-18.05891" lon="-69.06265">
        <ele>4968</ele>
        <time>2025-10-14T15:54:02Z</time>
      </trkpt>
      <trkpt lat="-18.05889" lon="-69.06261">
        <ele>4970</ele>
        <time>2025-10-14T15:54:12Z</time>
      </trkpt>
      <trkpt lat="-18.05886" lon="-69.06258">
        <ele>4970</ele>
        <time>2025-10-14T15:54:22Z</time>
      </trkpt>
      <trkpt lat="-18.05884" lon="-69.06255">
        <ele>4972</ele>
        <time>2025-10-14T15:54:34Z</time>
      </trkpt>
      <trkpt lat="-18.05882" lon="-69.06252">
        <ele>4973</ele>
        <time>2025-10-14T15:54:42Z</time>
      </trkpt>
      <trkpt lat="-18.05877" lon="-69.06245">
        <ele>4977</ele>
        <time>2025-10-14T15:55:04Z</time>
      </trkpt>
      <trkpt lat="-18.05874" lon="-69.06243">
        <ele>4978</ele>
        <time>2025-10-14T15:55:12Z</time>
      </trkpt>
      <trkpt lat="-18.05872" lon="-69.0624">
        <ele>4979</ele>
        <time>2025-10-14T15:55:20Z</time>
      </trkpt>
      <trkpt lat="-18.0587" lon="-69.06236">
        <ele>4981</ele>
        <time>2025-10-14T15:55:30Z</time>
      </trkpt>
      <trkpt lat="-18.05868" lon="-69.06234">
        <ele>4981</ele>
        <time>2025-10-14T15:55:36Z</time>
      </trkpt>
      <trkpt lat="-18.05866" lon="-69.0623">
        <ele>4982</ele>
        <time>2025-10-14T15:55:46Z</time>
      </trkpt>
      <trkpt lat="-18.05857" lon="-69.06223">
        <ele>4984</ele>
        <time>2025-10-14T15:56:12Z</time>
      </trkpt>
      <trkpt lat="-18.05855" lon="-69.0622">
        <ele>4985</ele>
        <time>2025-10-14T15:56:20Z</time>
      </trkpt>
      <trkpt lat="-18.05851" lon="-69.06218">
        <ele>4987</ele>
        <time>2025-10-14T15:56:44Z</time>
      </trkpt>
      <trkpt lat="-18.05849" lon="-69.06215">
        <ele>4987</ele>
        <time>2025-10-14T15:56:52Z</time>
      </trkpt>
      <trkpt lat="-18.05846" lon="-69.06212">
        <ele>4989</ele>
        <time>2025-10-14T15:57:00Z</time>
      </trkpt>
      <trkpt lat="-18.05842" lon="-69.06214">
        <ele>4989</ele>
        <time>2025-10-14T15:57:08Z</time>
      </trkpt>
      <trkpt lat="-18.05838" lon="-69.06213">
        <ele>4989</ele>
        <time>2025-10-14T15:57:18Z</time>
      </trkpt>
      <trkpt lat="-18.05835" lon="-69.06206">
        <ele>4991</ele>
        <time>2025-10-14T15:57:36Z</time>
      </trkpt>
      <trkpt lat="-18.05825" lon="-69.06195">
        <ele>4994</ele>
        <time>2025-10-14T15:58:10Z</time>
      </trkpt>
      <trkpt lat="-18.05822" lon="-69.06192">
        <ele>4995</ele>
        <time>2025-10-14T15:58:18Z</time>
      </trkpt>
      <trkpt lat="-18.05812" lon="-69.0618">
        <ele>4999</ele>
        <time>2025-10-14T15:58:50Z</time>
      </trkpt>
      <trkpt lat="-18.05809" lon="-69.06178">
        <ele>5000</ele>
        <time>2025-10-14T15:58:58Z</time>
      </trkpt>
      <trkpt lat="-18.05807" lon="-69.06174">
        <ele>5001</ele>
        <time>2025-10-14T15:59:08Z</time>
      </trkpt>
      <trkpt lat="-18.05804" lon="-69.06172">
        <ele>5001</ele>
        <time>2025-10-14T15:59:16Z</time>
      </trkpt>
      <trkpt lat="-18.058" lon="-69.06166">
        <ele>5001</ele>
        <time>2025-10-14T15:59:32Z</time>
      </trkpt>
      <trkpt lat="-18.05799" lon="-69.06162">
        <ele>5002</ele>
        <time>2025-10-14T15:59:40Z</time>
      </trkpt>
      <trkpt lat="-18.05793" lon="-69.06147">
        <ele>5007</ele>
        <time>2025-10-14T16:00:14Z</time>
      </trkpt>
      <trkpt lat="-18.05788" lon="-69.06136">
        <ele>5009</ele>
        <time>2025-10-14T16:00:38Z</time>
      </trkpt>
      <trkpt lat="-18.05785" lon="-69.06128">
        <ele>5010</ele>
        <time>2025-10-14T16:00:56Z</time>
      </trkpt>
      <trkpt lat="-18.05776" lon="-69.06119">
        <ele>5013</ele>
        <time>2025-10-14T16:01:20Z</time>
      </trkpt>
      <trkpt lat="-18.05773" lon="-69.06118">
        <ele>5014</ele>
        <time>2025-10-14T16:01:26Z</time>
      </trkpt>
      <trkpt lat="-18.0577" lon="-69.06116">
        <ele>5014</ele>
        <time>2025-10-14T16:01:34Z</time>
      </trkpt>
      <trkpt lat="-18.05759" lon="-69.06105">
        <ele>5017</ele>
        <time>2025-10-14T16:02:10Z</time>
      </trkpt>
      <trkpt lat="-18.05756" lon="-69.06102">
        <ele>5018</ele>
        <time>2025-10-14T16:02:24Z</time>
      </trkpt>
      <trkpt lat="-18.05751" lon="-69.06095">
        <ele>5018</ele>
        <time>2025-10-14T16:04:42Z</time>
      </trkpt>
      <trkpt lat="-18.05746" lon="-69.06092">
        <ele>5019</ele>
        <time>2025-10-14T16:04:48Z</time>
      </trkpt>
      <trkpt lat="-18.05744" lon="-69.06089">
        <ele>5020</ele>
        <time>2025-10-14T16:05:00Z</time>
      </trkpt>
      <trkpt lat="-18.05738" lon="-69.06084">
        <ele>5020</ele>
        <time>2025-10-14T16:05:29Z</time>
      </trkpt>
      <trkpt lat="-18.05735" lon="-69.06081">
        <ele>5020</ele>
        <time>2025-10-14T16:06:13Z</time>
      </trkpt>
      <trkpt lat="-18.05729" lon="-69.06076">
        <ele>5021</ele>
        <time>2025-10-14T16:06:25Z</time>
      </trkpt>
      <trkpt lat="-18.05726" lon="-69.06074">
        <ele>5022</ele>
        <time>2025-10-14T16:06:39Z</time>
      </trkpt>
      <trkpt lat="-18.05723" lon="-69.06072">
        <ele>5023</ele>
        <time>2025-10-14T16:06:55Z</time>
      </trkpt>
      <trkpt lat="-18.05719" lon="-69.06069">
        <ele>5023</ele>
        <time>2025-10-14T16:07:19Z</time>
      </trkpt>
      <trkpt lat="-18.05715" lon="-69.06068">
        <ele>5024</ele>
        <time>2025-10-14T16:07:25Z</time>
      </trkpt>
      <trkpt lat="-18.05712" lon="-69.06067">
        <ele>5024</ele>
        <time>2025-10-14T16:07:31Z</time>
      </trkpt>
      <trkpt lat="-18.05703" lon="-69.06064">
        <ele>5024</ele>
        <time>2025-10-14T16:07:43Z</time>
      </trkpt>
      <trkpt lat="-18.05695" lon="-69.06061">
        <ele>5025</ele>
        <time>2025-10-14T16:07:55Z</time>
      </trkpt>
      <trkpt lat="-18.05692" lon="-69.06059">
        <ele>5024</ele>
        <time>2025-10-14T16:08:01Z</time>
      </trkpt>
      <trkpt lat="-18.05667" lon="-69.06051">
        <ele>5025</ele>
        <time>2025-10-14T16:08:35Z</time>
      </trkpt>
      <trkpt lat="-18.05655" lon="-69.06048">
        <ele>5025</ele>
        <time>2025-10-14T16:08:53Z</time>
      </trkpt>
      <trkpt lat="-18.05647" lon="-69.06048">
        <ele>5026</ele>
        <time>2025-10-14T16:09:03Z</time>
      </trkpt>
      <trkpt lat="-18.05643" lon="-69.06045">
        <ele>5026</ele>
        <time>2025-10-14T16:09:09Z</time>
      </trkpt>
      <trkpt lat="-18.0564" lon="-69.06043">
        <ele>5027</ele>
        <time>2025-10-14T16:09:15Z</time>
      </trkpt>
      <trkpt lat="-18.05633" lon="-69.06038">
        <ele>5029</ele>
        <time>2025-10-14T16:09:27Z</time>
      </trkpt>
      <trkpt lat="-18.05629" lon="-69.06035">
        <ele>5029</ele>
        <time>2025-10-14T16:09:33Z</time>
      </trkpt>
      <trkpt lat="-18.05626" lon="-69.06032">
        <ele>5030</ele>
        <time>2025-10-14T16:09:39Z</time>
      </trkpt>
      <trkpt lat="-18.05619" lon="-69.06025">
        <ele>5031</ele>
        <time>2025-10-14T16:10:03Z</time>
      </trkpt>
      <trkpt lat="-18.05616" lon="-69.06022">
        <ele>5032</ele>
        <time>2025-10-14T16:10:09Z</time>
      </trkpt>
      <trkpt lat="-18.05607" lon="-69.06012">
        <ele>5034</ele>
        <time>2025-10-14T16:10:27Z</time>
      </trkpt>
      <trkpt lat="-18.05604" lon="-69.0601">
        <ele>5035</ele>
        <time>2025-10-14T16:10:33Z</time>
      </trkpt>
      <trkpt lat="-18.056" lon="-69.06007">
        <ele>5036</ele>
        <time>2025-10-14T16:10:39Z</time>
      </trkpt>
      <trkpt lat="-18.05596" lon="-69.06004">
        <ele>5036</ele>
        <time>2025-10-14T16:10:45Z</time>
      </trkpt>
      <trkpt lat="-18.05587" lon="-69.05983">
        <ele>5033</ele>
        <time>2025-10-14T16:11:13Z</time>
      </trkpt>
      <trkpt lat="-18.05575" lon="-69.05971">
        <ele>5032</ele>
        <time>2025-10-14T16:11:31Z</time>
      </trkpt>
      <trkpt lat="-18.05554" lon="-69.05953">
        <ele>5033</ele>
        <time>2025-10-14T16:12:03Z</time>
      </trkpt>
      <trkpt lat="-18.05549" lon="-69.05949">
        <ele>5033</ele>
        <time>2025-10-14T16:12:11Z</time>
      </trkpt>
      <trkpt lat="-18.05527" lon="-69.05933">
        <ele>5036</ele>
        <time>2025-10-14T16:12:45Z</time>
      </trkpt>
      <trkpt lat="-18.05515" lon="-69.05923">
        <ele>5037</ele>
        <time>2025-10-14T16:13:05Z</time>
      </trkpt>
      <trkpt lat="-18.05507" lon="-69.05915">
        <ele>5038</ele>
        <time>2025-10-14T16:13:23Z</time>
      </trkpt>
      <trkpt lat="-18.05505" lon="-69.0591">
        <ele>5039</ele>
        <time>2025-10-14T16:13:53Z</time>
      </trkpt>
      <trkpt lat="-18.05491" lon="-69.05899">
        <ele>5041</ele>
        <time>2025-10-14T16:15:35Z</time>
      </trkpt>
      <trkpt lat="-18.0548" lon="-69.05894">
        <ele>5041</ele>
        <time>2025-10-14T16:15:53Z</time>
      </trkpt>
      <trkpt lat="-18.05471" lon="-69.05885">
        <ele>5042</ele>
        <time>2025-10-14T16:16:09Z</time>
      </trkpt>
      <trkpt lat="-18.05468" lon="-69.05882">
        <ele>5042</ele>
        <time>2025-10-14T16:16:13Z</time>
      </trkpt>
      <trkpt lat="-18.0546" lon="-69.05873">
        <ele>5042</ele>
        <time>2025-10-14T16:16:27Z</time>
      </trkpt>
      <trkpt lat="-18.05456" lon="-69.05866">
        <ele>5043</ele>
        <time>2025-10-14T16:16:35Z</time>
      </trkpt>
      <trkpt lat="-18.05453" lon="-69.05862">
        <ele>5043</ele>
        <time>2025-10-14T16:16:41Z</time>
      </trkpt>
      <trkpt lat="-18.05435" lon="-69.05838">
        <ele>5043</ele>
        <time>2025-10-14T16:17:13Z</time>
      </trkpt>
      <trkpt lat="-18.05419" lon="-69.05817">
        <ele>5044</ele>
        <time>2025-10-14T16:17:43Z</time>
      </trkpt>
      <trkpt lat="-18.05417" lon="-69.05814">
        <ele>5044</ele>
        <time>2025-10-14T16:17:47Z</time>
      </trkpt>
      <trkpt lat="-18.05405" lon="-69.05802">
        <ele>5045</ele>
        <time>2025-10-14T16:18:07Z</time>
      </trkpt>
      <trkpt lat="-18.05402" lon="-69.05799">
        <ele>5045</ele>
        <time>2025-10-14T16:18:13Z</time>
      </trkpt>
      <trkpt lat="-18.05399" lon="-69.05794">
        <ele>5045</ele>
        <time>2025-10-14T16:18:19Z</time>
      </trkpt>
      <trkpt lat="-18.05392" lon="-69.05785">
        <ele>5045</ele>
        <time>2025-10-14T16:18:33Z</time>
      </trkpt>
      <trkpt lat="-18.05389" lon="-69.05783">
        <ele>5045</ele>
        <time>2025-10-14T16:18:37Z</time>
      </trkpt>
      <trkpt lat="-18.0538" lon="-69.05772">
        <ele>5044</ele>
        <time>2025-10-14T16:18:53Z</time>
      </trkpt>
      <trkpt lat="-18.05378" lon="-69.05768">
        <ele>5045</ele>
        <time>2025-10-14T16:18:59Z</time>
      </trkpt>
      <trkpt lat="-18.05375" lon="-69.05763">
        <ele>5046</ele>
        <time>2025-10-14T16:19:05Z</time>
      </trkpt>
      <trkpt lat="-18.05372" lon="-69.0576">
        <ele>5047</ele>
        <time>2025-10-14T16:19:09Z</time>
      </trkpt>
      <trkpt lat="-18.05367" lon="-69.05753">
        <ele>5048</ele>
        <time>2025-10-14T16:19:17Z</time>
      </trkpt>
      <trkpt lat="-18.0536" lon="-69.05744">
        <ele>5048</ele>
        <time>2025-10-14T16:19:29Z</time>
      </trkpt>
      <trkpt lat="-18.05358" lon="-69.05741">
        <ele>5048</ele>
        <time>2025-10-14T16:19:33Z</time>
      </trkpt>
      <trkpt lat="-18.05356" lon="-69.05738">
        <ele>5048</ele>
        <time>2025-10-14T16:19:37Z</time>
      </trkpt>
      <trkpt lat="-18.05353" lon="-69.05735">
        <ele>5048</ele>
        <time>2025-10-14T16:19:41Z</time>
      </trkpt>
      <trkpt lat="-18.05346" lon="-69.05728">
        <ele>5048</ele>
        <time>2025-10-14T16:19:53Z</time>
      </trkpt>
      <trkpt lat="-18.05338" lon="-69.05718">
        <ele>5048</ele>
        <time>2025-10-14T16:20:11Z</time>
      </trkpt>
      <trkpt lat="-18.05339" lon="-69.05705">
        <ele>5048</ele>
        <time>2025-10-14T16:20:31Z</time>
      </trkpt>
      <trkpt lat="-18.05329" lon="-69.05689">
        <ele>5049</ele>
        <time>2025-10-14T16:21:06Z</time>
      </trkpt>
      <trkpt lat="-18.05328" lon="-69.05685">
        <ele>5050</ele>
        <time>2025-10-14T16:21:10Z</time>
      </trkpt>
      <trkpt lat="-18.05326" lon="-69.05682">
        <ele>5051</ele>
        <time>2025-10-14T16:21:18Z</time>
      </trkpt>
      <trkpt lat="-18.05326" lon="-69.05677">
        <ele>5052</ele>
        <time>2025-10-14T16:21:24Z</time>
      </trkpt>
      <trkpt lat="-18.05322" lon="-69.0567">
        <ele>5052</ele>
        <time>2025-10-14T16:21:38Z</time>
      </trkpt>
      <trkpt lat="-18.05322" lon="-69.05666">
        <ele>5052</ele>
        <time>2025-10-14T16:21:44Z</time>
      </trkpt>
      <trkpt lat="-18.05317" lon="-69.05659">
        <ele>5051</ele>
        <time>2025-10-14T16:22:00Z</time>
      </trkpt>
      <trkpt lat="-18.05316" lon="-69.05655">
        <ele>5049</ele>
        <time>2025-10-14T16:22:06Z</time>
      </trkpt>
      <trkpt lat="-18.05316" lon="-69.05651">
        <ele>5049</ele>
        <time>2025-10-14T16:22:12Z</time>
      </trkpt>
      <trkpt lat="-18.05316" lon="-69.05647">
        <ele>5048</ele>
        <time>2025-10-14T16:22:30Z</time>
      </trkpt>
      <trkpt lat="-18.05315" lon="-69.05644">
        <ele>5048</ele>
        <time>2025-10-14T16:22:36Z</time>
      </trkpt>
      <trkpt lat="-18.05315" lon="-69.05636">
        <ele>5048</ele>
        <time>2025-10-14T16:22:48Z</time>
      </trkpt>
      <trkpt lat="-18.05307" lon="-69.05624">
        <ele>5048</ele>
        <time>2025-10-14T16:23:10Z</time>
      </trkpt>
      <trkpt lat="-18.05306" lon="-69.05621">
        <ele>5048</ele>
        <time>2025-10-14T16:23:16Z</time>
      </trkpt>
      <trkpt lat="-18.05304" lon="-69.05617">
        <ele>5048</ele>
        <time>2025-10-14T16:23:22Z</time>
      </trkpt>
      <trkpt lat="-18.053" lon="-69.05609">
        <ele>5048</ele>
        <time>2025-10-14T16:23:34Z</time>
      </trkpt>
      <trkpt lat="-18.05298" lon="-69.05602">
        <ele>5048</ele>
        <time>2025-10-14T16:23:46Z</time>
      </trkpt>
      <trkpt lat="-18.05292" lon="-69.0559">
        <ele>5050</ele>
        <time>2025-10-14T16:24:04Z</time>
      </trkpt>
      <trkpt lat="-18.05288" lon="-69.05582">
        <ele>5049</ele>
        <time>2025-10-14T16:24:16Z</time>
      </trkpt>
      <trkpt lat="-18.05286" lon="-69.05578">
        <ele>5050</ele>
        <time>2025-10-14T16:24:22Z</time>
      </trkpt>
      <trkpt lat="-18.05284" lon="-69.05575">
        <ele>5050</ele>
        <time>2025-10-14T16:24:26Z</time>
      </trkpt>
      <trkpt lat="-18.05282" lon="-69.05571">
        <ele>5050</ele>
        <time>2025-10-14T16:24:32Z</time>
      </trkpt>
      <trkpt lat="-18.05275" lon="-69.05559">
        <ele>5050</ele>
        <time>2025-10-14T16:24:52Z</time>
      </trkpt>
      <trkpt lat="-18.05273" lon="-69.05555">
        <ele>5050</ele>
        <time>2025-10-14T16:24:58Z</time>
      </trkpt>
      <trkpt lat="-18.05269" lon="-69.05544">
        <ele>5050</ele>
        <time>2025-10-14T16:25:14Z</time>
      </trkpt>
      <trkpt lat="-18.05269" lon="-69.05539">
        <ele>5049</ele>
        <time>2025-10-14T16:25:20Z</time>
      </trkpt>
      <trkpt lat="-18.05268" lon="-69.05534">
        <ele>5049</ele>
        <time>2025-10-14T16:25:26Z</time>
      </trkpt>
      <trkpt lat="-18.05268" lon="-69.0553">
        <ele>5049</ele>
        <time>2025-10-14T16:25:32Z</time>
      </trkpt>
      <trkpt lat="-18.05261" lon="-69.05502">
        <ele>5047</ele>
        <time>2025-10-14T16:26:04Z</time>
      </trkpt>
      <trkpt lat="-18.05252" lon="-69.05477">
        <ele>5047</ele>
        <time>2025-10-14T16:26:38Z</time>
      </trkpt>
      <trkpt lat="-18.05251" lon="-69.05474">
        <ele>5047</ele>
        <time>2025-10-14T16:26:44Z</time>
      </trkpt>
      <trkpt lat="-18.0525" lon="-69.0547">
        <ele>5047</ele>
        <time>2025-10-14T16:26:52Z</time>
      </trkpt>
      <trkpt lat="-18.05235" lon="-69.05446">
        <ele>5047</ele>
        <time>2025-10-14T16:27:24Z</time>
      </trkpt>
      <trkpt lat="-18.05232" lon="-69.05443">
        <ele>5046</ele>
        <time>2025-10-14T16:27:30Z</time>
      </trkpt>
      <trkpt lat="-18.05227" lon="-69.05436">
        <ele>5046</ele>
        <time>2025-10-14T16:27:42Z</time>
      </trkpt>
      <trkpt lat="-18.05224" lon="-69.05432">
        <ele>5046</ele>
        <time>2025-10-14T16:27:48Z</time>
      </trkpt>
      <trkpt lat="-18.05221" lon="-69.05429">
        <ele>5046</ele>
        <time>2025-10-14T16:27:54Z</time>
      </trkpt>
      <trkpt lat="-18.05218" lon="-69.05422">
        <ele>5045</ele>
        <time>2025-10-14T16:28:12Z</time>
      </trkpt>
      <trkpt lat="-18.05215" lon="-69.05419">
        <ele>5045</ele>
        <time>2025-10-14T16:28:22Z</time>
      </trkpt>
      <trkpt lat="-18.05215" lon="-69.05416">
        <ele>5043</ele>
        <time>2025-10-14T16:28:58Z</time>
      </trkpt>
      <trkpt lat="-18.05214" lon="-69.05412">
        <ele>5043</ele>
        <time>2025-10-14T16:29:04Z</time>
      </trkpt>
      <trkpt lat="-18.05215" lon="-69.05408">
        <ele>5043</ele>
        <time>2025-10-14T16:29:10Z</time>
      </trkpt>
      <trkpt lat="-18.05212" lon="-69.05396">
        <ele>5042</ele>
        <time>2025-10-14T16:29:30Z</time>
      </trkpt>
      <trkpt lat="-18.05212" lon="-69.05391">
        <ele>5041</ele>
        <time>2025-10-14T16:29:36Z</time>
      </trkpt>
      <trkpt lat="-18.05213" lon="-69.05387">
        <ele>5041</ele>
        <time>2025-10-14T16:29:42Z</time>
      </trkpt>
      <trkpt lat="-18.05214" lon="-69.05383">
        <ele>5041</ele>
        <time>2025-10-14T16:29:48Z</time>
      </trkpt>
      <trkpt lat="-18.05214" lon="-69.05379">
        <ele>5042</ele>
        <time>2025-10-14T16:31:20Z</time>
      </trkpt>
      <trkpt lat="-18.05217" lon="-69.05375">
        <ele>5042</ele>
        <time>2025-10-14T16:31:26Z</time>
      </trkpt>
      <trkpt lat="-18.05221" lon="-69.05373">
        <ele>5041</ele>
        <time>2025-10-14T16:31:32Z</time>
      </trkpt>
      <trkpt lat="-18.05225" lon="-69.05372">
        <ele>5041</ele>
        <time>2025-10-14T16:31:38Z</time>
      </trkpt>
      <trkpt lat="-18.05229" lon="-69.05371">
        <ele>5041</ele>
        <time>2025-10-14T16:31:44Z</time>
      </trkpt>
      <trkpt lat="-18.05234" lon="-69.05368">
        <ele>5042</ele>
        <time>2025-10-14T16:31:50Z</time>
      </trkpt>
      <trkpt lat="-18.0524" lon="-69.05364">
        <ele>5042</ele>
        <time>2025-10-14T16:31:58Z</time>
      </trkpt>
      <trkpt lat="-18.05243" lon="-69.0536">
        <ele>5042</ele>
        <time>2025-10-14T16:32:04Z</time>
      </trkpt>
      <trkpt lat="-18.05246" lon="-69.05356">
        <ele>5042</ele>
        <time>2025-10-14T16:32:10Z</time>
      </trkpt>
      <trkpt lat="-18.05248" lon="-69.05351">
        <ele>5042</ele>
        <time>2025-10-14T16:32:16Z</time>
      </trkpt>
      <trkpt lat="-18.05249" lon="-69.05346">
        <ele>5041</ele>
        <time>2025-10-14T16:32:22Z</time>
      </trkpt>
      <trkpt lat="-18.0525" lon="-69.05341">
        <ele>5040</ele>
        <time>2025-10-14T16:32:28Z</time>
      </trkpt>
      <trkpt lat="-18.05267" lon="-69.05327">
        <ele>5041</ele>
        <time>2025-10-14T16:32:58Z</time>
      </trkpt>
      <trkpt lat="-18.05283" lon="-69.05317">
        <ele>5041</ele>
        <time>2025-10-14T16:33:22Z</time>
      </trkpt>
      <trkpt lat="-18.05291" lon="-69.05311">
        <ele>5040</ele>
        <time>2025-10-14T16:33:34Z</time>
      </trkpt>
      <trkpt lat="-18.05288" lon="-69.05308">
        <ele>5039</ele>
        <time>2025-10-14T16:33:46Z</time>
      </trkpt>
      <trkpt lat="-18.05292" lon="-69.05305">
        <ele>5039</ele>
        <time>2025-10-14T16:34:18Z</time>
      </trkpt>
      <trkpt lat="-18.05296" lon="-69.05303">
        <ele>5040</ele>
        <time>2025-10-14T16:34:24Z</time>
      </trkpt>
      <trkpt lat="-18.05291" lon="-69.05301">
        <ele>5039</ele>
        <time>2025-10-14T16:34:39Z</time>
      </trkpt>
      <trkpt lat="-18.05295" lon="-69.05299">
        <ele>5040</ele>
        <time>2025-10-14T16:35:54Z</time>
      </trkpt>
      <trkpt lat="-18.05301" lon="-69.05295">
        <ele>5039</ele>
        <time>2025-10-14T16:36:02Z</time>
      </trkpt>
      <trkpt lat="-18.05307" lon="-69.0529">
        <ele>5038</ele>
        <time>2025-10-14T16:36:20Z</time>
      </trkpt>
      <trkpt lat="-18.05308" lon="-69.05286">
        <ele>5036</ele>
        <time>2025-10-14T16:36:24Z</time>
      </trkpt>
      <trkpt lat="-18.05311" lon="-69.05282">
        <ele>5036</ele>
        <time>2025-10-14T16:36:30Z</time>
      </trkpt>
      <trkpt lat="-18.05314" lon="-69.05279">
        <ele>5034</ele>
        <time>2025-10-14T16:36:34Z</time>
      </trkpt>
      <trkpt lat="-18.05316" lon="-69.05275">
        <ele>5034</ele>
        <time>2025-10-14T16:36:40Z</time>
      </trkpt>
      <trkpt lat="-18.05317" lon="-69.0527">
        <ele>5032</ele>
        <time>2025-10-14T16:36:46Z</time>
      </trkpt>
      <trkpt lat="-18.05316" lon="-69.05266">
        <ele>5031</ele>
        <time>2025-10-14T16:36:52Z</time>
      </trkpt>
      <trkpt lat="-18.05317" lon="-69.05257">
        <ele>5029</ele>
        <time>2025-10-14T16:37:04Z</time>
      </trkpt>
      <trkpt lat="-18.05319" lon="-69.05253">
        <ele>5029</ele>
        <time>2025-10-14T16:37:14Z</time>
      </trkpt>
      <trkpt lat="-18.05319" lon="-69.05248">
        <ele>5028</ele>
        <time>2025-10-14T16:37:20Z</time>
      </trkpt>
      <trkpt lat="-18.05318" lon="-69.0524">
        <ele>5026</ele>
        <time>2025-10-14T16:37:32Z</time>
      </trkpt>
      <trkpt lat="-18.05323" lon="-69.05222">
        <ele>5021</ele>
        <time>2025-10-14T16:37:56Z</time>
      </trkpt>
      <trkpt lat="-18.05324" lon="-69.05218">
        <ele>5020</ele>
        <time>2025-10-14T16:38:00Z</time>
      </trkpt>
      <trkpt lat="-18.05327" lon="-69.05215">
        <ele>5020</ele>
        <time>2025-10-14T16:38:08Z</time>
      </trkpt>
      <trkpt lat="-18.05328" lon="-69.05211">
        <ele>5019</ele>
        <time>2025-10-14T16:38:14Z</time>
      </trkpt>
      <trkpt lat="-18.05329" lon="-69.05207">
        <ele>5018</ele>
        <time>2025-10-14T16:38:20Z</time>
      </trkpt>
      <trkpt lat="-18.05333" lon="-69.0518">
        <ele>5013</ele>
        <time>2025-10-14T16:38:52Z</time>
      </trkpt>
      <trkpt lat="-18.05334" lon="-69.05172">
        <ele>5012</ele>
        <time>2025-10-14T16:39:12Z</time>
      </trkpt>
      <trkpt lat="-18.05336" lon="-69.05159">
        <ele>5011</ele>
        <time>2025-10-14T16:39:30Z</time>
      </trkpt>
      <trkpt lat="-18.0534" lon="-69.0514">
        <ele>5011</ele>
        <time>2025-10-14T16:39:52Z</time>
      </trkpt>
      <trkpt lat="-18.05341" lon="-69.05136">
        <ele>5011</ele>
        <time>2025-10-14T16:39:56Z</time>
      </trkpt>
      <trkpt lat="-18.05342" lon="-69.05133">
        <ele>5011</ele>
        <time>2025-10-14T16:40:00Z</time>
      </trkpt>
      <trkpt lat="-18.05343" lon="-69.05117">
        <ele>5012</ele>
        <time>2025-10-14T16:40:16Z</time>
      </trkpt>
      <trkpt lat="-18.05343" lon="-69.05113">
        <ele>5012</ele>
        <time>2025-10-14T16:40:20Z</time>
      </trkpt>
      <trkpt lat="-18.05341" lon="-69.05105">
        <ele>5011</ele>
        <time>2025-10-14T16:40:30Z</time>
      </trkpt>
      <trkpt lat="-18.0534" lon="-69.05101">
        <ele>5009</ele>
        <time>2025-10-14T16:40:36Z</time>
      </trkpt>
      <trkpt lat="-18.05339" lon="-69.05096">
        <ele>5008</ele>
        <time>2025-10-14T16:40:42Z</time>
      </trkpt>
      <trkpt lat="-18.05336" lon="-69.05094">
        <ele>5008</ele>
        <time>2025-10-14T16:40:48Z</time>
      </trkpt>
      <trkpt lat="-18.05336" lon="-69.0509">
        <ele>5007</ele>
        <time>2025-10-14T16:40:54Z</time>
      </trkpt>
      <trkpt lat="-18.05334" lon="-69.05078">
        <ele>5006</ele>
        <time>2025-10-14T16:41:12Z</time>
      </trkpt>
      <trkpt lat="-18.05333" lon="-69.05074">
        <ele>5005</ele>
        <time>2025-10-14T16:41:20Z</time>
      </trkpt>
      <trkpt lat="-18.05333" lon="-69.0507">
        <ele>5004</ele>
        <time>2025-10-14T16:41:32Z</time>
      </trkpt>
      <trkpt lat="-18.05334" lon="-69.05061">
        <ele>5002</ele>
        <time>2025-10-14T16:41:44Z</time>
      </trkpt>
      <trkpt lat="-18.05335" lon="-69.0506">
        <ele>5002</ele>
        <time>2025-10-14T16:42:16Z</time>
      </trkpt>
      <trkpt lat="-18.05333" lon="-69.05065">
        <ele>5002</ele>
        <time>2025-10-14T16:42:20Z</time>
      </trkpt>
      <trkpt lat="-18.05333" lon="-69.05069">
        <ele>5002</ele>
        <time>2025-10-14T16:42:24Z</time>
      </trkpt>
      <trkpt lat="-18.05332" lon="-69.05073">
        <ele>5003</ele>
        <time>2025-10-14T16:42:32Z</time>
      </trkpt>
      <trkpt lat="-18.0533" lon="-69.05072">
        <ele>5004</ele>
        <time>2025-10-14T16:46:31Z</time>
      </trkpt>
      <trkpt lat="-18.05332" lon="-69.05061">
        <ele>5003</ele>
        <time>2025-10-14T16:46:45Z</time>
      </trkpt>
      <trkpt lat="-18.05331" lon="-69.05057">
        <ele>5002</ele>
        <time>2025-10-14T16:47:25Z</time>
      </trkpt>
      <trkpt lat="-18.05327" lon="-69.05055">
        <ele>5001</ele>
        <time>2025-10-14T16:47:35Z</time>
      </trkpt>
      <trkpt lat="-18.05323" lon="-69.05055">
        <ele>5000</ele>
        <time>2025-10-14T16:47:45Z</time>
      </trkpt>
      <trkpt lat="-18.0532" lon="-69.05054">
        <ele>4998</ele>
        <time>2025-10-14T16:47:57Z</time>
      </trkpt>
      <trkpt lat="-18.05316" lon="-69.05056">
        <ele>4997</ele>
        <time>2025-10-14T16:48:07Z</time>
      </trkpt>
      <trkpt lat="-18.05313" lon="-69.05056">
        <ele>4995</ele>
        <time>2025-10-14T16:48:19Z</time>
      </trkpt>
      <trkpt lat="-18.05309" lon="-69.05055">
        <ele>4994</ele>
        <time>2025-10-14T16:48:33Z</time>
      </trkpt>
      <trkpt lat="-18.05306" lon="-69.05054">
        <ele>4991</ele>
        <time>2025-10-14T16:48:45Z</time>
      </trkpt>
      <trkpt lat="-18.05302" lon="-69.05054">
        <ele>4990</ele>
        <time>2025-10-14T16:48:53Z</time>
      </trkpt>
      <trkpt lat="-18.05302" lon="-69.05049">
        <ele>4988</ele>
        <time>2025-10-14T16:49:05Z</time>
      </trkpt>
      <trkpt lat="-18.05303" lon="-69.05046">
        <ele>4987</ele>
        <time>2025-10-14T16:49:09Z</time>
      </trkpt>
      <trkpt lat="-18.05308" lon="-69.05038">
        <ele>4988</ele>
        <time>2025-10-14T16:49:21Z</time>
      </trkpt>
      <trkpt lat="-18.05307" lon="-69.05033">
        <ele>4987</ele>
        <time>2025-10-14T16:49:27Z</time>
      </trkpt>
      <trkpt lat="-18.05307" lon="-69.0503">
        <ele>4987</ele>
        <time>2025-10-14T16:49:37Z</time>
      </trkpt>
      <trkpt lat="-18.05308" lon="-69.05026">
        <ele>4986</ele>
        <time>2025-10-14T16:49:56Z</time>
      </trkpt>
      <trkpt lat="-18.05309" lon="-69.05021">
        <ele>4988</ele>
        <time>2025-10-14T16:50:02Z</time>
      </trkpt>
      <trkpt lat="-18.05308" lon="-69.05016">
        <ele>4989</ele>
        <time>2025-10-14T16:50:08Z</time>
      </trkpt>
      <trkpt lat="-18.05309" lon="-69.05008">
        <ele>4988</ele>
        <time>2025-10-14T16:50:16Z</time>
      </trkpt>
      <trkpt lat="-18.05308" lon="-69.05004">
        <ele>4988</ele>
        <time>2025-10-14T16:50:20Z</time>
      </trkpt>
      <trkpt lat="-18.05308" lon="-69.05">
        <ele>4988</ele>
        <time>2025-10-14T16:50:24Z</time>
      </trkpt>
      <trkpt lat="-18.05309" lon="-69.04993">
        <ele>4987</ele>
        <time>2025-10-14T16:50:34Z</time>
      </trkpt>
      <trkpt lat="-18.05308" lon="-69.04989">
        <ele>4987</ele>
        <time>2025-10-14T16:50:38Z</time>
      </trkpt>
      <trkpt lat="-18.05309" lon="-69.04985">
        <ele>4987</ele>
        <time>2025-10-14T16:50:42Z</time>
      </trkpt>
      <trkpt lat="-18.05307" lon="-69.04977">
        <ele>4986</ele>
        <time>2025-10-14T16:50:50Z</time>
      </trkpt>
      <trkpt lat="-18.05307" lon="-69.04973">
        <ele>4985</ele>
        <time>2025-10-14T16:50:54Z</time>
      </trkpt>
      <trkpt lat="-18.05309" lon="-69.04962">
        <ele>4984</ele>
        <time>2025-10-14T16:51:06Z</time>
      </trkpt>
      <trkpt lat="-18.05309" lon="-69.04958">
        <ele>4984</ele>
        <time>2025-10-14T16:51:10Z</time>
      </trkpt>
      <trkpt lat="-18.05306" lon="-69.04955">
        <ele>4985</ele>
        <time>2025-10-14T16:51:14Z</time>
      </trkpt>
      <trkpt lat="-18.05306" lon="-69.04952">
        <ele>4987</ele>
        <time>2025-10-14T17:09:56Z</time>
      </trkpt>
      <trkpt lat="-18.05303" lon="-69.04948">
        <ele>4987</ele>
        <time>2025-10-14T17:10:02Z</time>
      </trkpt>
      <trkpt lat="-18.05299" lon="-69.04947">
        <ele>4987</ele>
        <time>2025-10-14T17:10:06Z</time>
      </trkpt>
      <trkpt lat="-18.05295" lon="-69.04946">
        <ele>4987</ele>
        <time>2025-10-14T17:10:10Z</time>
      </trkpt>
      <trkpt lat="-18.05291" lon="-69.04943">
        <ele>4987</ele>
        <time>2025-10-14T17:10:16Z</time>
      </trkpt>
      <trkpt lat="-18.05288" lon="-69.04945">
        <ele>4987</ele>
        <time>2025-10-14T17:10:20Z</time>
      </trkpt>
      <trkpt lat="-18.05284" lon="-69.04945">
        <ele>4986</ele>
        <time>2025-10-14T17:10:26Z</time>
      </trkpt>
      <trkpt lat="-18.05278" lon="-69.04949">
        <ele>4986</ele>
        <time>2025-10-14T17:10:48Z</time>
      </trkpt>
      <trkpt lat="-18.05273" lon="-69.04948">
        <ele>4985</ele>
        <time>2025-10-14T17:11:00Z</time>
      </trkpt>
      <trkpt lat="-18.05276" lon="-69.04949">
        <ele>4986</ele>
        <time>2025-10-14T17:11:46Z</time>
      </trkpt>
      <trkpt lat="-18.05287" lon="-69.04948">
        <ele>4987</ele>
        <time>2025-10-14T17:12:00Z</time>
      </trkpt>
      <trkpt lat="-18.05292" lon="-69.04949">
        <ele>4987</ele>
        <time>2025-10-14T17:12:06Z</time>
      </trkpt>
      <trkpt lat="-18.05296" lon="-69.04951">
        <ele>4987</ele>
        <time>2025-10-14T17:12:12Z</time>
      </trkpt>
      <trkpt lat="-18.05299" lon="-69.04952">
        <ele>4987</ele>
        <time>2025-10-14T17:12:20Z</time>
      </trkpt>
      <trkpt lat="-18.05303" lon="-69.04953">
        <ele>4987</ele>
        <time>2025-10-14T17:12:26Z</time>
      </trkpt>
      <trkpt lat="-18.05306" lon="-69.04951">
        <ele>4987</ele>
        <time>2025-10-14T17:15:04Z</time>
      </trkpt>
      <trkpt lat="-18.05309" lon="-69.04947">
        <ele>4987</ele>
        <time>2025-10-14T17:15:18Z</time>
      </trkpt>
      <trkpt lat="-18.05311" lon="-69.04945">
        <ele>4986</ele>
        <time>2025-10-14T17:15:24Z</time>
      </trkpt>
      <trkpt lat="-18.05315" lon="-69.04941">
        <ele>4985</ele>
        <time>2025-10-14T17:15:30Z</time>
      </trkpt>
      <trkpt lat="-18.05317" lon="-69.04938">
        <ele>4984</ele>
        <time>2025-10-14T17:15:36Z</time>
      </trkpt>
      <trkpt lat="-18.05317" lon="-69.04934">
        <ele>4983</ele>
        <time>2025-10-14T17:15:40Z</time>
      </trkpt>
      <trkpt lat="-18.05315" lon="-69.04931">
        <ele>4982</ele>
        <time>2025-10-14T17:15:44Z</time>
      </trkpt>
      <trkpt lat="-18.05314" lon="-69.04928">
        <ele>4982</ele>
        <time>2025-10-14T17:15:48Z</time>
      </trkpt>
      <trkpt lat="-18.0532" lon="-69.04913">
        <ele>4982</ele>
        <time>2025-10-14T17:16:04Z</time>
      </trkpt>
      <trkpt lat="-18.05322" lon="-69.0491">
        <ele>4981</ele>
        <time>2025-10-14T17:16:08Z</time>
      </trkpt>
      <trkpt lat="-18.05323" lon="-69.04892">
        <ele>4979</ele>
        <time>2025-10-14T17:16:28Z</time>
      </trkpt>
      <trkpt lat="-18.05323" lon="-69.0488">
        <ele>4980</ele>
        <time>2025-10-14T17:16:40Z</time>
      </trkpt>
      <trkpt lat="-18.0532" lon="-69.04872">
        <ele>4980</ele>
        <time>2025-10-14T17:16:48Z</time>
      </trkpt>
      <trkpt lat="-18.0532" lon="-69.04867">
        <ele>4980</ele>
        <time>2025-10-14T17:16:54Z</time>
      </trkpt>
      <trkpt lat="-18.05321" lon="-69.04863">
        <ele>4980</ele>
        <time>2025-10-14T17:16:58Z</time>
      </trkpt>
      <trkpt lat="-18.05315" lon="-69.04859">
        <ele>4981</ele>
        <time>2025-10-14T17:17:06Z</time>
      </trkpt>
      <trkpt lat="-18.05313" lon="-69.04855">
        <ele>4981</ele>
        <time>2025-10-14T17:17:12Z</time>
      </trkpt>
      <trkpt lat="-18.05311" lon="-69.04851">
        <ele>4982</ele>
        <time>2025-10-14T17:17:18Z</time>
      </trkpt>
      <trkpt lat="-18.05311" lon="-69.04847">
        <ele>4981</ele>
        <time>2025-10-14T17:17:24Z</time>
      </trkpt>
      <trkpt lat="-18.05313" lon="-69.04843">
        <ele>4981</ele>
        <time>2025-10-14T17:17:30Z</time>
      </trkpt>
      <trkpt lat="-18.05314" lon="-69.04839">
        <ele>4980</ele>
        <time>2025-10-14T17:17:34Z</time>
      </trkpt>
      <trkpt lat="-18.05314" lon="-69.04835">
        <ele>4980</ele>
        <time>2025-10-14T17:17:38Z</time>
      </trkpt>
      <trkpt lat="-18.05313" lon="-69.04832">
        <ele>4980</ele>
        <time>2025-10-14T17:17:42Z</time>
      </trkpt>
      <trkpt lat="-18.05312" lon="-69.04828">
        <ele>4979</ele>
        <time>2025-10-14T17:17:48Z</time>
      </trkpt>
      <trkpt lat="-18.05315" lon="-69.04825">
        <ele>4978</ele>
        <time>2025-10-14T17:17:54Z</time>
      </trkpt>
      <trkpt lat="-18.05318" lon="-69.04823">
        <ele>4977</ele>
        <time>2025-10-14T17:18:00Z</time>
      </trkpt>
      <trkpt lat="-18.05319" lon="-69.04819">
        <ele>4976</ele>
        <time>2025-10-14T17:18:04Z</time>
      </trkpt>
      <trkpt lat="-18.05322" lon="-69.04816">
        <ele>4975</ele>
        <time>2025-10-14T17:18:10Z</time>
      </trkpt>
      <trkpt lat="-18.05324" lon="-69.04808">
        <ele>4973</ele>
        <time>2025-10-14T17:18:22Z</time>
      </trkpt>
      <trkpt lat="-18.05325" lon="-69.04804">
        <ele>4971</ele>
        <time>2025-10-14T17:18:28Z</time>
      </trkpt>
      <trkpt lat="-18.05328" lon="-69.04794">
        <ele>4968</ele>
        <time>2025-10-14T17:18:40Z</time>
      </trkpt>
      <trkpt lat="-18.0534" lon="-69.04781">
        <ele>4962</ele>
        <time>2025-10-14T17:19:00Z</time>
      </trkpt>
      <trkpt lat="-18.05342" lon="-69.04778">
        <ele>4961</ele>
        <time>2025-10-14T17:19:04Z</time>
      </trkpt>
      <trkpt lat="-18.05344" lon="-69.04775">
        <ele>4960</ele>
        <time>2025-10-14T17:19:08Z</time>
      </trkpt>
      <trkpt lat="-18.05347" lon="-69.04772">
        <ele>4959</ele>
        <time>2025-10-14T17:19:12Z</time>
      </trkpt>
      <trkpt lat="-18.0535" lon="-69.04768">
        <ele>4956</ele>
        <time>2025-10-14T17:19:18Z</time>
      </trkpt>
      <trkpt lat="-18.05352" lon="-69.04765">
        <ele>4955</ele>
        <time>2025-10-14T17:19:22Z</time>
      </trkpt>
      <trkpt lat="-18.05355" lon="-69.04762">
        <ele>4954</ele>
        <time>2025-10-14T17:19:26Z</time>
      </trkpt>
      <trkpt lat="-18.05358" lon="-69.04759">
        <ele>4953</ele>
        <time>2025-10-14T17:19:30Z</time>
      </trkpt>
      <trkpt lat="-18.05374" lon="-69.04732">
        <ele>4945</ele>
        <time>2025-10-14T17:20:02Z</time>
      </trkpt>
      <trkpt lat="-18.05388" lon="-69.0471">
        <ele>4940</ele>
        <time>2025-10-14T17:20:26Z</time>
      </trkpt>
      <trkpt lat="-18.05396" lon="-69.0468">
        <ele>4937</ele>
        <time>2025-10-14T17:20:54Z</time>
      </trkpt>
      <trkpt lat="-18.05398" lon="-69.0465">
        <ele>4934</ele>
        <time>2025-10-14T17:21:22Z</time>
      </trkpt>
      <trkpt lat="-18.05402" lon="-69.04638">
        <ele>4932</ele>
        <time>2025-10-14T17:21:34Z</time>
      </trkpt>
      <trkpt lat="-18.05402" lon="-69.04629">
        <ele>4931</ele>
        <time>2025-10-14T17:21:42Z</time>
      </trkpt>
      <trkpt lat="-18.05403" lon="-69.04624">
        <ele>4931</ele>
        <time>2025-10-14T17:21:46Z</time>
      </trkpt>
      <trkpt lat="-18.05405" lon="-69.04621">
        <ele>4930</ele>
        <time>2025-10-14T17:21:50Z</time>
      </trkpt>
      <trkpt lat="-18.05407" lon="-69.04611">
        <ele>4930</ele>
        <time>2025-10-14T17:21:58Z</time>
      </trkpt>
      <trkpt lat="-18.05412" lon="-69.046">
        <ele>4928</ele>
        <time>2025-10-14T17:22:10Z</time>
      </trkpt>
      <trkpt lat="-18.05413" lon="-69.04595">
        <ele>4929</ele>
        <time>2025-10-14T17:22:14Z</time>
      </trkpt>
      <trkpt lat="-18.05413" lon="-69.04591">
        <ele>4929</ele>
        <time>2025-10-14T17:22:18Z</time>
      </trkpt>
      <trkpt lat="-18.05413" lon="-69.04587">
        <ele>4929</ele>
        <time>2025-10-14T17:22:22Z</time>
      </trkpt>
      <trkpt lat="-18.05417" lon="-69.0458">
        <ele>4928</ele>
        <time>2025-10-14T17:22:30Z</time>
      </trkpt>
      <trkpt lat="-18.05423" lon="-69.04569">
        <ele>4929</ele>
        <time>2025-10-14T17:22:42Z</time>
      </trkpt>
      <trkpt lat="-18.05425" lon="-69.04566">
        <ele>4930</ele>
        <time>2025-10-14T17:22:46Z</time>
      </trkpt>
      <trkpt lat="-18.05439" lon="-69.04538">
        <ele>4927</ele>
        <time>2025-10-14T17:23:14Z</time>
      </trkpt>
      <trkpt lat="-18.0544" lon="-69.04534">
        <ele>4927</ele>
        <time>2025-10-14T17:23:18Z</time>
      </trkpt>
      <trkpt lat="-18.05441" lon="-69.04529">
        <ele>4926</ele>
        <time>2025-10-14T17:23:22Z</time>
      </trkpt>
      <trkpt lat="-18.05441" lon="-69.04525">
        <ele>4926</ele>
        <time>2025-10-14T17:23:26Z</time>
      </trkpt>
      <trkpt lat="-18.05442" lon="-69.04521">
        <ele>4927</ele>
        <time>2025-10-14T17:23:36Z</time>
      </trkpt>
      <trkpt lat="-18.05443" lon="-69.04517">
        <ele>4928</ele>
        <time>2025-10-14T17:23:40Z</time>
      </trkpt>
      <trkpt lat="-18.05444" lon="-69.04508">
        <ele>4928</ele>
        <time>2025-10-14T17:23:48Z</time>
      </trkpt>
      <trkpt lat="-18.05443" lon="-69.04501">
        <ele>4926</ele>
        <time>2025-10-14T17:23:56Z</time>
      </trkpt>
      <trkpt lat="-18.05445" lon="-69.04497">
        <ele>4926</ele>
        <time>2025-10-14T17:24:02Z</time>
      </trkpt>
      <trkpt lat="-18.05444" lon="-69.04493">
        <ele>4926</ele>
        <time>2025-10-14T17:24:08Z</time>
      </trkpt>
      <trkpt lat="-18.05441" lon="-69.04489">
        <ele>4926</ele>
        <time>2025-10-14T17:24:14Z</time>
      </trkpt>
      <trkpt lat="-18.05442" lon="-69.04486">
        <ele>4925</ele>
        <time>2025-10-14T17:24:20Z</time>
      </trkpt>
      <trkpt lat="-18.05444" lon="-69.04482">
        <ele>4924</ele>
        <time>2025-10-14T17:24:28Z</time>
      </trkpt>
      <trkpt lat="-18.05445" lon="-69.04479">
        <ele>4923</ele>
        <time>2025-10-14T17:24:36Z</time>
      </trkpt>
      <trkpt lat="-18.05444" lon="-69.04475">
        <ele>4923</ele>
        <time>2025-10-14T17:24:40Z</time>
      </trkpt>
      <trkpt lat="-18.05443" lon="-69.04471">
        <ele>4922</ele>
        <time>2025-10-14T17:24:50Z</time>
      </trkpt>
      <trkpt lat="-18.05444" lon="-69.04468">
        <ele>4922</ele>
        <time>2025-10-14T17:24:56Z</time>
      </trkpt>
      <trkpt lat="-18.0544" lon="-69.04455">
        <ele>4918</ele>
        <time>2025-10-14T17:25:14Z</time>
      </trkpt>
      <trkpt lat="-18.05437" lon="-69.04443">
        <ele>4913</ele>
        <time>2025-10-14T17:25:32Z</time>
      </trkpt>
      <trkpt lat="-18.05436" lon="-69.0444">
        <ele>4912</ele>
        <time>2025-10-14T17:25:38Z</time>
      </trkpt>
      <trkpt lat="-18.05437" lon="-69.04435">
        <ele>4910</ele>
        <time>2025-10-14T17:25:46Z</time>
      </trkpt>
      <trkpt lat="-18.05437" lon="-69.0443">
        <ele>4910</ele>
        <time>2025-10-14T17:25:52Z</time>
      </trkpt>
      <trkpt lat="-18.05437" lon="-69.04426">
        <ele>4909</ele>
        <time>2025-10-14T17:25:56Z</time>
      </trkpt>
      <trkpt lat="-18.05436" lon="-69.04422">
        <ele>4909</ele>
        <time>2025-10-14T17:26:02Z</time>
      </trkpt>
      <trkpt lat="-18.05438" lon="-69.04419">
        <ele>4906</ele>
        <time>2025-10-14T17:26:10Z</time>
      </trkpt>
      <trkpt lat="-18.05437" lon="-69.04414">
        <ele>4905</ele>
        <time>2025-10-14T17:26:16Z</time>
      </trkpt>
      <trkpt lat="-18.05437" lon="-69.04411">
        <ele>4903</ele>
        <time>2025-10-14T17:26:24Z</time>
      </trkpt>
      <trkpt lat="-18.05437" lon="-69.04407">
        <ele>4902</ele>
        <time>2025-10-14T17:26:30Z</time>
      </trkpt>
      <trkpt lat="-18.05438" lon="-69.04402">
        <ele>4899</ele>
        <time>2025-10-14T17:26:40Z</time>
      </trkpt>
      <trkpt lat="-18.05439" lon="-69.04398">
        <ele>4898</ele>
        <time>2025-10-14T17:26:48Z</time>
      </trkpt>
      <trkpt lat="-18.05439" lon="-69.04394">
        <ele>4897</ele>
        <time>2025-10-14T17:26:54Z</time>
      </trkpt>
      <trkpt lat="-18.05441" lon="-69.0439">
        <ele>4896</ele>
        <time>2025-10-14T17:27:02Z</time>
      </trkpt>
      <trkpt lat="-18.05442" lon="-69.04387">
        <ele>4894</ele>
        <time>2025-10-14T17:27:08Z</time>
      </trkpt>
      <trkpt lat="-18.05443" lon="-69.04382">
        <ele>4893</ele>
        <time>2025-10-14T17:27:14Z</time>
      </trkpt>
      <trkpt lat="-18.05443" lon="-69.04377">
        <ele>4892</ele>
        <time>2025-10-14T17:27:20Z</time>
      </trkpt>
      <trkpt lat="-18.05446" lon="-69.04369">
        <ele>4889</ele>
        <time>2025-10-14T17:27:38Z</time>
      </trkpt>
      <trkpt lat="-18.05447" lon="-69.04364">
        <ele>4887</ele>
        <time>2025-10-14T17:27:44Z</time>
      </trkpt>
      <trkpt lat="-18.05447" lon="-69.0436">
        <ele>4886</ele>
        <time>2025-10-14T17:27:50Z</time>
      </trkpt>
      <trkpt lat="-18.05449" lon="-69.04352">
        <ele>4884</ele>
        <time>2025-10-14T17:28:00Z</time>
      </trkpt>
      <trkpt lat="-18.0545" lon="-69.04329">
        <ele>4877</ele>
        <time>2025-10-14T17:28:28Z</time>
      </trkpt>
      <trkpt lat="-18.05447" lon="-69.04325">
        <ele>4875</ele>
        <time>2025-10-14T17:28:34Z</time>
      </trkpt>
      <trkpt lat="-18.05445" lon="-69.04322">
        <ele>4875</ele>
        <time>2025-10-14T17:28:38Z</time>
      </trkpt>
      <trkpt lat="-18.05441" lon="-69.04314">
        <ele>4874</ele>
        <time>2025-10-14T17:28:50Z</time>
      </trkpt>
      <trkpt lat="-18.05439" lon="-69.04305">
        <ele>4874</ele>
        <time>2025-10-14T17:29:02Z</time>
      </trkpt>
      <trkpt lat="-18.05437" lon="-69.04296">
        <ele>4872</ele>
        <time>2025-10-14T17:29:12Z</time>
      </trkpt>
      <trkpt lat="-18.05436" lon="-69.04291">
        <ele>4870</ele>
        <time>2025-10-14T17:29:18Z</time>
      </trkpt>
      <trkpt lat="-18.0543" lon="-69.0428">
        <ele>4867</ele>
        <time>2025-10-14T17:29:34Z</time>
      </trkpt>
      <trkpt lat="-18.05429" lon="-69.04276">
        <ele>4867</ele>
        <time>2025-10-14T17:29:40Z</time>
      </trkpt>
      <trkpt lat="-18.05427" lon="-69.04272">
        <ele>4865</ele>
        <time>2025-10-14T17:29:46Z</time>
      </trkpt>
      <trkpt lat="-18.05429" lon="-69.04268">
        <ele>4865</ele>
        <time>2025-10-14T17:29:52Z</time>
      </trkpt>
      <trkpt lat="-18.05426" lon="-69.04253">
        <ele>4860</ele>
        <time>2025-10-14T17:30:12Z</time>
      </trkpt>
      <trkpt lat="-18.05427" lon="-69.04245">
        <ele>4859</ele>
        <time>2025-10-14T17:30:22Z</time>
      </trkpt>
      <trkpt lat="-18.05426" lon="-69.04241">
        <ele>4857</ele>
        <time>2025-10-14T17:30:26Z</time>
      </trkpt>
      <trkpt lat="-18.05427" lon="-69.04234">
        <ele>4856</ele>
        <time>2025-10-14T17:30:34Z</time>
      </trkpt>
      <trkpt lat="-18.0543" lon="-69.04231">
        <ele>4856</ele>
        <time>2025-10-14T17:30:40Z</time>
      </trkpt>
      <trkpt lat="-18.05437" lon="-69.04226">
        <ele>4852</ele>
        <time>2025-10-14T17:30:52Z</time>
      </trkpt>
      <trkpt lat="-18.05441" lon="-69.04222">
        <ele>4851</ele>
        <time>2025-10-14T17:30:56Z</time>
      </trkpt>
      <trkpt lat="-18.05455" lon="-69.04212">
        <ele>4847</ele>
        <time>2025-10-14T17:31:14Z</time>
      </trkpt>
      <trkpt lat="-18.05458" lon="-69.04211">
        <ele>4846</ele>
        <time>2025-10-14T17:31:18Z</time>
      </trkpt>
      <trkpt lat="-18.05469" lon="-69.04197">
        <ele>4844</ele>
        <time>2025-10-14T17:31:40Z</time>
      </trkpt>
      <trkpt lat="-18.05471" lon="-69.04192">
        <ele>4843</ele>
        <time>2025-10-14T17:31:46Z</time>
      </trkpt>
      <trkpt lat="-18.0547" lon="-69.04188">
        <ele>4843</ele>
        <time>2025-10-14T17:31:50Z</time>
      </trkpt>
      <trkpt lat="-18.05472" lon="-69.04166">
        <ele>4840</ele>
        <time>2025-10-14T17:32:12Z</time>
      </trkpt>
      <trkpt lat="-18.05477" lon="-69.04159">
        <ele>4838</ele>
        <time>2025-10-14T17:32:22Z</time>
      </trkpt>
      <trkpt lat="-18.05478" lon="-69.04155">
        <ele>4837</ele>
        <time>2025-10-14T17:32:26Z</time>
      </trkpt>
      <trkpt lat="-18.05478" lon="-69.04151">
        <ele>4837</ele>
        <time>2025-10-14T17:32:30Z</time>
      </trkpt>
      <trkpt lat="-18.05482" lon="-69.04145">
        <ele>4835</ele>
        <time>2025-10-14T17:32:38Z</time>
      </trkpt>
      <trkpt lat="-18.05482" lon="-69.0414">
        <ele>4835</ele>
        <time>2025-10-14T17:32:44Z</time>
      </trkpt>
      <trkpt lat="-18.05482" lon="-69.04136">
        <ele>4835</ele>
        <time>2025-10-14T17:32:48Z</time>
      </trkpt>
      <trkpt lat="-18.05485" lon="-69.04127">
        <ele>4833</ele>
        <time>2025-10-14T17:33:00Z</time>
      </trkpt>
      <trkpt lat="-18.05491" lon="-69.04107">
        <ele>4829</ele>
        <time>2025-10-14T17:33:20Z</time>
      </trkpt>
      <trkpt lat="-18.05491" lon="-69.04099">
        <ele>4828</ele>
        <time>2025-10-14T17:33:28Z</time>
      </trkpt>
      <trkpt lat="-18.05496" lon="-69.04091">
        <ele>4828</ele>
        <time>2025-10-14T17:33:40Z</time>
      </trkpt>
      <trkpt lat="-18.05497" lon="-69.04087">
        <ele>4828</ele>
        <time>2025-10-14T17:33:44Z</time>
      </trkpt>
      <trkpt lat="-18.05498" lon="-69.04082">
        <ele>4827</ele>
        <time>2025-10-14T17:33:50Z</time>
      </trkpt>
      <trkpt lat="-18.05501" lon="-69.04079">
        <ele>4827</ele>
        <time>2025-10-14T17:33:54Z</time>
      </trkpt>
      <trkpt lat="-18.05502" lon="-69.04076">
        <ele>4826</ele>
        <time>2025-10-14T17:33:58Z</time>
      </trkpt>
      <trkpt lat="-18.05505" lon="-69.04067">
        <ele>4825</ele>
        <time>2025-10-14T17:34:08Z</time>
      </trkpt>
      <trkpt lat="-18.05507" lon="-69.04064">
        <ele>4824</ele>
        <time>2025-10-14T17:34:18Z</time>
      </trkpt>
      <trkpt lat="-18.05516" lon="-69.04061">
        <ele>4824</ele>
        <time>2025-10-14T17:34:30Z</time>
      </trkpt>
      <trkpt lat="-18.05521" lon="-69.04058">
        <ele>4824</ele>
        <time>2025-10-14T17:34:40Z</time>
      </trkpt>
      <trkpt lat="-18.05523" lon="-69.04053">
        <ele>4824</ele>
        <time>2025-10-14T17:34:46Z</time>
      </trkpt>
      <trkpt lat="-18.05525" lon="-69.04049">
        <ele>4823</ele>
        <time>2025-10-14T17:34:50Z</time>
      </trkpt>
      <trkpt lat="-18.05528" lon="-69.04032">
        <ele>4822</ele>
        <time>2025-10-14T17:35:06Z</time>
      </trkpt>
      <trkpt lat="-18.05531" lon="-69.04028">
        <ele>4821</ele>
        <time>2025-10-14T17:35:10Z</time>
      </trkpt>
      <trkpt lat="-18.05534" lon="-69.0402">
        <ele>4819</ele>
        <time>2025-10-14T17:35:18Z</time>
      </trkpt>
      <trkpt lat="-18.05539" lon="-69.04013">
        <ele>4818</ele>
        <time>2025-10-14T17:35:28Z</time>
      </trkpt>
      <trkpt lat="-18.05544" lon="-69.04005">
        <ele>4817</ele>
        <time>2025-10-14T17:35:38Z</time>
      </trkpt>
      <trkpt lat="-18.05549" lon="-69.03998">
        <ele>4816</ele>
        <time>2025-10-14T17:35:46Z</time>
      </trkpt>
      <trkpt lat="-18.05558" lon="-69.03988">
        <ele>4814</ele>
        <time>2025-10-14T17:36:00Z</time>
      </trkpt>
      <trkpt lat="-18.0556" lon="-69.03985">
        <ele>4813</ele>
        <time>2025-10-14T17:36:04Z</time>
      </trkpt>
      <trkpt lat="-18.05567" lon="-69.03975">
        <ele>4811</ele>
        <time>2025-10-14T17:36:16Z</time>
      </trkpt>
      <trkpt lat="-18.05579" lon="-69.03957">
        <ele>4808</ele>
        <time>2025-10-14T17:36:36Z</time>
      </trkpt>
      <trkpt lat="-18.05584" lon="-69.03951">
        <ele>4806</ele>
        <time>2025-10-14T17:36:44Z</time>
      </trkpt>
      <trkpt lat="-18.05592" lon="-69.03936">
        <ele>4804</ele>
        <time>2025-10-14T17:37:00Z</time>
      </trkpt>
      <trkpt lat="-18.05601" lon="-69.03919">
        <ele>4802</ele>
        <time>2025-10-14T17:37:20Z</time>
      </trkpt>
      <trkpt lat="-18.05599" lon="-69.03916">
        <ele>4802</ele>
        <time>2025-10-14T17:37:24Z</time>
      </trkpt>
      <trkpt lat="-18.05602" lon="-69.03903">
        <ele>4801</ele>
        <time>2025-10-14T17:37:40Z</time>
      </trkpt>
      <trkpt lat="-18.05605" lon="-69.03899">
        <ele>4801</ele>
        <time>2025-10-14T17:37:44Z</time>
      </trkpt>
      <trkpt lat="-18.05607" lon="-69.03896">
        <ele>4800</ele>
        <time>2025-10-14T17:37:48Z</time>
      </trkpt>
      <trkpt lat="-18.05616" lon="-69.03882">
        <ele>4799</ele>
        <time>2025-10-14T17:38:04Z</time>
      </trkpt>
      <trkpt lat="-18.05623" lon="-69.03867">
        <ele>4799</ele>
        <time>2025-10-14T17:38:20Z</time>
      </trkpt>
      <trkpt lat="-18.05624" lon="-69.03855">
        <ele>4800</ele>
        <time>2025-10-14T17:38:32Z</time>
      </trkpt>
      <trkpt lat="-18.05623" lon="-69.03852">
        <ele>4801</ele>
        <time>2025-10-14T17:38:36Z</time>
      </trkpt>
      <trkpt lat="-18.05622" lon="-69.03848">
        <ele>4801</ele>
        <time>2025-10-14T17:38:40Z</time>
      </trkpt>
      <trkpt lat="-18.05619" lon="-69.03825">
        <ele>4802</ele>
        <time>2025-10-14T17:39:08Z</time>
      </trkpt>
      <trkpt lat="-18.05621" lon="-69.03812">
        <ele>4800</ele>
        <time>2025-10-14T17:39:20Z</time>
      </trkpt>
      <trkpt lat="-18.05621" lon="-69.03808">
        <ele>4800</ele>
        <time>2025-10-14T17:39:24Z</time>
      </trkpt>
      <trkpt lat="-18.05622" lon="-69.03804">
        <ele>4799</ele>
        <time>2025-10-14T17:39:28Z</time>
      </trkpt>
      <trkpt lat="-18.0562" lon="-69.03775">
        <ele>4801</ele>
        <time>2025-10-14T17:39:58Z</time>
      </trkpt>
      <trkpt lat="-18.05619" lon="-69.03771">
        <ele>4802</ele>
        <time>2025-10-14T17:40:02Z</time>
      </trkpt>
      <trkpt lat="-18.05619" lon="-69.03766">
        <ele>4803</ele>
        <time>2025-10-14T17:40:08Z</time>
      </trkpt>
      <trkpt lat="-18.05617" lon="-69.03731">
        <ele>4799</ele>
        <time>2025-10-14T17:40:40Z</time>
      </trkpt>
      <trkpt lat="-18.05618" lon="-69.03727">
        <ele>4798</ele>
        <time>2025-10-14T17:40:44Z</time>
      </trkpt>
      <trkpt lat="-18.05619" lon="-69.03723">
        <ele>4798</ele>
        <time>2025-10-14T17:40:48Z</time>
      </trkpt>
      <trkpt lat="-18.0562" lon="-69.03718">
        <ele>4797</ele>
        <time>2025-10-14T17:40:54Z</time>
      </trkpt>
      <trkpt lat="-18.05619" lon="-69.03705">
        <ele>4795</ele>
        <time>2025-10-14T17:41:06Z</time>
      </trkpt>
      <trkpt lat="-18.0562" lon="-69.03696">
        <ele>4793</ele>
        <time>2025-10-14T17:41:14Z</time>
      </trkpt>
      <trkpt lat="-18.0562" lon="-69.03691">
        <ele>4790</ele>
        <time>2025-10-14T17:41:18Z</time>
      </trkpt>
      <trkpt lat="-18.0562" lon="-69.03687">
        <ele>4790</ele>
        <time>2025-10-14T17:41:22Z</time>
      </trkpt>
      <trkpt lat="-18.05621" lon="-69.03683">
        <ele>4788</ele>
        <time>2025-10-14T17:41:26Z</time>
      </trkpt>
      <trkpt lat="-18.05621" lon="-69.03678">
        <ele>4788</ele>
        <time>2025-10-14T17:41:30Z</time>
      </trkpt>
      <trkpt lat="-18.05624" lon="-69.03661">
        <ele>4786</ele>
        <time>2025-10-14T17:41:46Z</time>
      </trkpt>
      <trkpt lat="-18.05623" lon="-69.03647">
        <ele>4785</ele>
        <time>2025-10-14T17:41:58Z</time>
      </trkpt>
      <trkpt lat="-18.05625" lon="-69.03638">
        <ele>4785</ele>
        <time>2025-10-14T17:42:06Z</time>
      </trkpt>
      <trkpt lat="-18.05625" lon="-69.03621">
        <ele>4783</ele>
        <time>2025-10-14T17:42:22Z</time>
      </trkpt>
      <trkpt lat="-18.05623" lon="-69.03613">
        <ele>4783</ele>
        <time>2025-10-14T17:42:30Z</time>
      </trkpt>
      <trkpt lat="-18.05623" lon="-69.03609">
        <ele>4782</ele>
        <time>2025-10-14T17:42:34Z</time>
      </trkpt>
      <trkpt lat="-18.0562" lon="-69.03605">
        <ele>4783</ele>
        <time>2025-10-14T17:42:40Z</time>
      </trkpt>
      <trkpt lat="-18.05629" lon="-69.0358">
        <ele>4779</ele>
        <time>2025-10-14T17:43:08Z</time>
      </trkpt>
      <trkpt lat="-18.05635" lon="-69.03568">
        <ele>4777</ele>
        <time>2025-10-14T17:43:20Z</time>
      </trkpt>
      <trkpt lat="-18.05637" lon="-69.03563">
        <ele>4777</ele>
        <time>2025-10-14T17:43:24Z</time>
      </trkpt>
      <trkpt lat="-18.05638" lon="-69.0356">
        <ele>4777</ele>
        <time>2025-10-14T17:43:28Z</time>
      </trkpt>
      <trkpt lat="-18.05643" lon="-69.03553">
        <ele>4777</ele>
        <time>2025-10-14T17:43:36Z</time>
      </trkpt>
      <trkpt lat="-18.05645" lon="-69.03549">
        <ele>4777</ele>
        <time>2025-10-14T17:43:42Z</time>
      </trkpt>
      <trkpt lat="-18.05645" lon="-69.03545">
        <ele>4777</ele>
        <time>2025-10-14T17:43:46Z</time>
      </trkpt>
      <trkpt lat="-18.0565" lon="-69.03536">
        <ele>4774</ele>
        <time>2025-10-14T17:43:58Z</time>
      </trkpt>
      <trkpt lat="-18.05652" lon="-69.03517">
        <ele>4771</ele>
        <time>2025-10-14T17:44:20Z</time>
      </trkpt>
      <trkpt lat="-18.05654" lon="-69.03513">
        <ele>4770</ele>
        <time>2025-10-14T17:44:26Z</time>
      </trkpt>
      <trkpt lat="-18.05656" lon="-69.03508">
        <ele>4769</ele>
        <time>2025-10-14T17:44:32Z</time>
      </trkpt>
      <trkpt lat="-18.05662" lon="-69.03482">
        <ele>4763</ele>
        <time>2025-10-14T17:45:00Z</time>
      </trkpt>
      <trkpt lat="-18.05661" lon="-69.03475">
        <ele>4761</ele>
        <time>2025-10-14T17:45:08Z</time>
      </trkpt>
      <trkpt lat="-18.05661" lon="-69.03471">
        <ele>4760</ele>
        <time>2025-10-14T17:45:12Z</time>
      </trkpt>
      <trkpt lat="-18.05661" lon="-69.03467">
        <ele>4760</ele>
        <time>2025-10-14T17:45:16Z</time>
      </trkpt>
      <trkpt lat="-18.05661" lon="-69.03463">
        <ele>4760</ele>
        <time>2025-10-14T17:45:20Z</time>
      </trkpt>
      <trkpt lat="-18.05662" lon="-69.03455">
        <ele>4759</ele>
        <time>2025-10-14T17:45:28Z</time>
      </trkpt>
      <trkpt lat="-18.05664" lon="-69.03448">
        <ele>4758</ele>
        <time>2025-10-14T17:45:36Z</time>
      </trkpt>
      <trkpt lat="-18.05666" lon="-69.03443">
        <ele>4759</ele>
        <time>2025-10-14T17:45:42Z</time>
      </trkpt>
      <trkpt lat="-18.05676" lon="-69.03421">
        <ele>4756</ele>
        <time>2025-10-14T17:46:06Z</time>
      </trkpt>
      <trkpt lat="-18.05679" lon="-69.03418">
        <ele>4756</ele>
        <time>2025-10-14T17:46:10Z</time>
      </trkpt>
      <trkpt lat="-18.05681" lon="-69.03415">
        <ele>4755</ele>
        <time>2025-10-14T17:46:14Z</time>
      </trkpt>
      <trkpt lat="-18.05685" lon="-69.03409">
        <ele>4754</ele>
        <time>2025-10-14T17:46:22Z</time>
      </trkpt>
      <trkpt lat="-18.05693" lon="-69.034">
        <ele>4753</ele>
        <time>2025-10-14T17:46:34Z</time>
      </trkpt>
      <trkpt lat="-18.05695" lon="-69.03397">
        <ele>4753</ele>
        <time>2025-10-14T17:46:38Z</time>
      </trkpt>
      <trkpt lat="-18.05699" lon="-69.03395">
        <ele>4753</ele>
        <time>2025-10-14T17:46:42Z</time>
      </trkpt>
      <trkpt lat="-18.05703" lon="-69.03389">
        <ele>4752</ele>
        <time>2025-10-14T17:46:50Z</time>
      </trkpt>
      <trkpt lat="-18.05707" lon="-69.03386">
        <ele>4751</ele>
        <time>2025-10-14T17:46:54Z</time>
      </trkpt>
      <trkpt lat="-18.0572" lon="-69.03374">
        <ele>4750</ele>
        <time>2025-10-14T17:47:10Z</time>
      </trkpt>
      <trkpt lat="-18.05723" lon="-69.03372">
        <ele>4750</ele>
        <time>2025-10-14T17:47:14Z</time>
      </trkpt>
      <trkpt lat="-18.05727" lon="-69.0337">
        <ele>4749</ele>
        <time>2025-10-14T17:47:18Z</time>
      </trkpt>
      <trkpt lat="-18.05731" lon="-69.03367">
        <ele>4747</ele>
        <time>2025-10-14T17:47:22Z</time>
      </trkpt>
      <trkpt lat="-18.05735" lon="-69.03365">
        <ele>4747</ele>
        <time>2025-10-14T17:47:26Z</time>
      </trkpt>
      <trkpt lat="-18.05739" lon="-69.03364">
        <ele>4746</ele>
        <time>2025-10-14T17:47:30Z</time>
      </trkpt>
      <trkpt lat="-18.05747" lon="-69.03359">
        <ele>4744</ele>
        <time>2025-10-14T17:47:40Z</time>
      </trkpt>
      <trkpt lat="-18.05756" lon="-69.03359">
        <ele>4742</ele>
        <time>2025-10-14T17:47:52Z</time>
      </trkpt>
      <trkpt lat="-18.05767" lon="-69.03362">
        <ele>4740</ele>
        <time>2025-10-14T17:48:04Z</time>
      </trkpt>
      <trkpt lat="-18.05771" lon="-69.03363">
        <ele>4740</ele>
        <time>2025-10-14T17:48:08Z</time>
      </trkpt>
      <trkpt lat="-18.05778" lon="-69.03364">
        <ele>4740</ele>
        <time>2025-10-14T17:48:16Z</time>
      </trkpt>
      <trkpt lat="-18.05782" lon="-69.03364">
        <ele>4739</ele>
        <time>2025-10-14T17:48:20Z</time>
      </trkpt>
      <trkpt lat="-18.05799" lon="-69.03366">
        <ele>4738</ele>
        <time>2025-10-14T17:48:36Z</time>
      </trkpt>
      <trkpt lat="-18.05813" lon="-69.03363">
        <ele>4736</ele>
        <time>2025-10-14T17:48:52Z</time>
      </trkpt>
      <trkpt lat="-18.05826" lon="-69.03362">
        <ele>4733</ele>
        <time>2025-10-14T17:49:06Z</time>
      </trkpt>
      <trkpt lat="-18.05831" lon="-69.0336">
        <ele>4732</ele>
        <time>2025-10-14T17:49:12Z</time>
      </trkpt>
      <trkpt lat="-18.05833" lon="-69.03357">
        <ele>4730</ele>
        <time>2025-10-14T17:49:16Z</time>
      </trkpt>
      <trkpt lat="-18.05838" lon="-69.03357">
        <ele>4729</ele>
        <time>2025-10-14T17:49:22Z</time>
      </trkpt>
      <trkpt lat="-18.05842" lon="-69.03355">
        <ele>4727</ele>
        <time>2025-10-14T17:49:28Z</time>
      </trkpt>
      <trkpt lat="-18.05846" lon="-69.03353">
        <ele>4726</ele>
        <time>2025-10-14T17:49:34Z</time>
      </trkpt>
      <trkpt lat="-18.05851" lon="-69.03353">
        <ele>4725</ele>
        <time>2025-10-14T17:49:40Z</time>
      </trkpt>
      <trkpt lat="-18.05856" lon="-69.03352">
        <ele>4724</ele>
        <time>2025-10-14T17:49:46Z</time>
      </trkpt>
      <trkpt lat="-18.0586" lon="-69.03352">
        <ele>4723</ele>
        <time>2025-10-14T17:49:52Z</time>
      </trkpt>
      <trkpt lat="-18.05864" lon="-69.0335">
        <ele>4721</ele>
        <time>2025-10-14T17:49:58Z</time>
      </trkpt>
      <trkpt lat="-18.05868" lon="-69.03348">
        <ele>4721</ele>
        <time>2025-10-14T17:50:04Z</time>
      </trkpt>
      <trkpt lat="-18.05877" lon="-69.03344">
        <ele>4719</ele>
        <time>2025-10-14T17:50:16Z</time>
      </trkpt>
      <trkpt lat="-18.05888" lon="-69.03337">
        <ele>4718</ele>
        <time>2025-10-14T17:50:30Z</time>
      </trkpt>
      <trkpt lat="-18.05891" lon="-69.03335">
        <ele>4717</ele>
        <time>2025-10-14T17:50:34Z</time>
      </trkpt>
      <trkpt lat="-18.05894" lon="-69.03333">
        <ele>4717</ele>
        <time>2025-10-14T17:50:38Z</time>
      </trkpt>
      <trkpt lat="-18.05897" lon="-69.03331">
        <ele>4716</ele>
        <time>2025-10-14T17:50:42Z</time>
      </trkpt>
      <trkpt lat="-18.059" lon="-69.03328">
        <ele>4715</ele>
        <time>2025-10-14T17:50:46Z</time>
      </trkpt>
      <trkpt lat="-18.05901" lon="-69.03325">
        <ele>4714</ele>
        <time>2025-10-14T17:50:50Z</time>
      </trkpt>
      <trkpt lat="-18.05902" lon="-69.03321">
        <ele>4713</ele>
        <time>2025-10-14T17:50:54Z</time>
      </trkpt>
      <trkpt lat="-18.05902" lon="-69.03318">
        <ele>4712</ele>
        <time>2025-10-14T17:50:58Z</time>
      </trkpt>
      <trkpt lat="-18.05902" lon="-69.03314">
        <ele>4712</ele>
        <time>2025-10-14T17:51:02Z</time>
      </trkpt>
      <trkpt lat="-18.05906" lon="-69.03313">
        <ele>4711</ele>
        <time>2025-10-14T17:51:08Z</time>
      </trkpt>
      <trkpt lat="-18.0591" lon="-69.03312">
        <ele>4709</ele>
        <time>2025-10-14T17:51:12Z</time>
      </trkpt>
      <trkpt lat="-18.05921" lon="-69.03311">
        <ele>4708</ele>
        <time>2025-10-14T17:51:30Z</time>
      </trkpt>
      <trkpt lat="-18.05923" lon="-69.03307">
        <ele>4705</ele>
        <time>2025-10-14T17:51:36Z</time>
      </trkpt>
      <trkpt lat="-18.05929" lon="-69.03301">
        <ele>4702</ele>
        <time>2025-10-14T17:51:48Z</time>
      </trkpt>
      <trkpt lat="-18.05933" lon="-69.03298">
        <ele>4699</ele>
        <time>2025-10-14T17:51:54Z</time>
      </trkpt>
      <trkpt lat="-18.05937" lon="-69.03299">
        <ele>4699</ele>
        <time>2025-10-14T17:52:00Z</time>
      </trkpt>
      <trkpt lat="-18.0594" lon="-69.03297">
        <ele>4697</ele>
        <time>2025-10-14T17:52:06Z</time>
      </trkpt>
      <trkpt lat="-18.05944" lon="-69.03297">
        <ele>4695</ele>
        <time>2025-10-14T17:52:14Z</time>
      </trkpt>
      <trkpt lat="-18.05948" lon="-69.03298">
        <ele>4693</ele>
        <time>2025-10-14T17:52:20Z</time>
      </trkpt>
      <trkpt lat="-18.05952" lon="-69.03299">
        <ele>4692</ele>
        <time>2025-10-14T17:52:24Z</time>
      </trkpt>
      <trkpt lat="-18.05956" lon="-69.03297">
        <ele>4692</ele>
        <time>2025-10-14T17:52:30Z</time>
      </trkpt>
      <trkpt lat="-18.05959" lon="-69.03294">
        <ele>4691</ele>
        <time>2025-10-14T17:52:36Z</time>
      </trkpt>
      <trkpt lat="-18.05962" lon="-69.03291">
        <ele>4691</ele>
        <time>2025-10-14T17:52:42Z</time>
      </trkpt>
      <trkpt lat="-18.05968" lon="-69.03286">
        <ele>4690</ele>
        <time>2025-10-14T17:52:54Z</time>
      </trkpt>
      <trkpt lat="-18.05976" lon="-69.03285">
        <ele>4685</ele>
        <time>2025-10-14T17:53:12Z</time>
      </trkpt>
      <trkpt lat="-18.05979" lon="-69.03288">
        <ele>4684</ele>
        <time>2025-10-14T17:53:20Z</time>
      </trkpt>
      <trkpt lat="-18.05981" lon="-69.03293">
        <ele>4683</ele>
        <time>2025-10-14T17:53:24Z</time>
      </trkpt>
      <trkpt lat="-18.05981" lon="-69.03297">
        <ele>4683</ele>
        <time>2025-10-14T17:53:28Z</time>
      </trkpt>
      <trkpt lat="-18.05987" lon="-69.03303">
        <ele>4681</ele>
        <time>2025-10-14T17:53:44Z</time>
      </trkpt>
      <trkpt lat="-18.05991" lon="-69.03301">
        <ele>4677</ele>
        <time>2025-10-14T17:53:58Z</time>
      </trkpt>
      <trkpt lat="-18.05994" lon="-69.03302">
        <ele>4677</ele>
        <time>2025-10-14T17:54:02Z</time>
      </trkpt>
      <trkpt lat="-18.06002" lon="-69.03317">
        <ele>4670</ele>
        <time>2025-10-14T17:54:38Z</time>
      </trkpt>
      <trkpt lat="-18.06008" lon="-69.03323">
        <ele>4664</ele>
        <time>2025-10-14T17:54:56Z</time>
      </trkpt>
      <trkpt lat="-18.06011" lon="-69.03326">
        <ele>4661</ele>
        <time>2025-10-14T17:55:04Z</time>
      </trkpt>
      <trkpt lat="-18.06012" lon="-69.03329">
        <ele>4660</ele>
        <time>2025-10-14T17:55:12Z</time>
      </trkpt>
      <trkpt lat="-18.06012" lon="-69.03333">
        <ele>4658</ele>
        <time>2025-10-14T17:55:18Z</time>
      </trkpt>
      <trkpt lat="-18.06015" lon="-69.03336">
        <ele>4657</ele>
        <time>2025-10-14T17:55:26Z</time>
      </trkpt>
      <trkpt lat="-18.06019" lon="-69.03344">
        <ele>4652</ele>
        <time>2025-10-14T17:55:40Z</time>
      </trkpt>
      <trkpt lat="-18.06022" lon="-69.03343">
        <ele>4647</ele>
        <time>2025-10-14T17:55:48Z</time>
      </trkpt>
      <trkpt lat="-18.06026" lon="-69.0334">
        <ele>4644</ele>
        <time>2025-10-14T17:55:56Z</time>
      </trkpt>
      <trkpt lat="-18.0603" lon="-69.0334">
        <ele>4643</ele>
        <time>2025-10-14T17:56:04Z</time>
      </trkpt>
      <trkpt lat="-18.06034" lon="-69.03338">
        <ele>4640</ele>
        <time>2025-10-14T17:56:12Z</time>
      </trkpt>
      <trkpt lat="-18.06037" lon="-69.03337">
        <ele>4639</ele>
        <time>2025-10-14T17:56:20Z</time>
      </trkpt>
      <trkpt lat="-18.0604" lon="-69.03334">
        <ele>4637</ele>
        <time>2025-10-14T17:56:32Z</time>
      </trkpt>
      <trkpt lat="-18.06043" lon="-69.03331">
        <ele>4636</ele>
        <time>2025-10-14T17:56:38Z</time>
      </trkpt>
      <trkpt lat="-18.06044" lon="-69.03327">
        <ele>4635</ele>
        <time>2025-10-14T17:56:44Z</time>
      </trkpt>
      <trkpt lat="-18.06046" lon="-69.03324">
        <ele>4633</ele>
        <time>2025-10-14T17:56:50Z</time>
      </trkpt>
      <trkpt lat="-18.06049" lon="-69.03322">
        <ele>4632</ele>
        <time>2025-10-14T17:56:56Z</time>
      </trkpt>
      <trkpt lat="-18.06053" lon="-69.0332">
        <ele>4630</ele>
        <time>2025-10-14T17:57:02Z</time>
      </trkpt>
      <trkpt lat="-18.06058" lon="-69.03315">
        <ele>4628</ele>
        <time>2025-10-14T17:57:14Z</time>
      </trkpt>
      <trkpt lat="-18.06062" lon="-69.03312">
        <ele>4626</ele>
        <time>2025-10-14T17:57:22Z</time>
      </trkpt>
      <trkpt lat="-18.06067" lon="-69.03312">
        <ele>4624</ele>
        <time>2025-10-14T17:57:30Z</time>
      </trkpt>
      <trkpt lat="-18.06069" lon="-69.03309">
        <ele>4622</ele>
        <time>2025-10-14T17:57:38Z</time>
      </trkpt>
      <trkpt lat="-18.06073" lon="-69.0331">
        <ele>4620</ele>
        <time>2025-10-14T17:57:46Z</time>
      </trkpt>
      <trkpt lat="-18.06076" lon="-69.03308">
        <ele>4618</ele>
        <time>2025-10-14T17:57:56Z</time>
      </trkpt>
      <trkpt lat="-18.0608" lon="-69.03307">
        <ele>4618</ele>
        <time>2025-10-14T17:58:02Z</time>
      </trkpt>
      <trkpt lat="-18.06082" lon="-69.03303">
        <ele>4620</ele>
        <time>2025-10-14T17:58:20Z</time>
      </trkpt>
      <trkpt lat="-18.06085" lon="-69.03303">
        <ele>4619</ele>
        <time>2025-10-14T17:58:54Z</time>
      </trkpt>
      <trkpt lat="-18.06089" lon="-69.03303">
        <ele>4618</ele>
        <time>2025-10-14T17:59:08Z</time>
      </trkpt>
      <trkpt lat="-18.06092" lon="-69.03306">
        <ele>4614</ele>
        <time>2025-10-14T17:59:16Z</time>
      </trkpt>
      <trkpt lat="-18.06095" lon="-69.03309">
        <ele>4613</ele>
        <time>2025-10-14T17:59:24Z</time>
      </trkpt>
      <trkpt lat="-18.06111" lon="-69.03313">
        <ele>4602</ele>
        <time>2025-10-14T17:59:50Z</time>
      </trkpt>
      <trkpt lat="-18.06115" lon="-69.03313">
        <ele>4601</ele>
        <time>2025-10-14T17:59:56Z</time>
      </trkpt>
      <trkpt lat="-18.06118" lon="-69.03315">
        <ele>4601</ele>
        <time>2025-10-14T18:00:10Z</time>
      </trkpt>
      <trkpt lat="-18.06122" lon="-69.03316">
        <ele>4602</ele>
        <time>2025-10-14T18:00:50Z</time>
      </trkpt>
      <trkpt lat="-18.06125" lon="-69.03314">
        <ele>4601</ele>
        <time>2025-10-14T18:01:10Z</time>
      </trkpt>
      <trkpt lat="-18.06129" lon="-69.03315">
        <ele>4601</ele>
        <time>2025-10-14T18:02:06Z</time>
      </trkpt>
      <trkpt lat="-18.06132" lon="-69.03315">
        <ele>4600</ele>
        <time>2025-10-14T18:04:36Z</time>
      </trkpt>
      <trkpt lat="-18.06136" lon="-69.03317">
        <ele>4597</ele>
        <time>2025-10-14T18:04:56Z</time>
      </trkpt>
      <trkpt lat="-18.06143" lon="-69.03319">
        <ele>4592</ele>
        <time>2025-10-14T18:05:10Z</time>
      </trkpt>
      <trkpt lat="-18.06147" lon="-69.03321">
        <ele>4591</ele>
        <time>2025-10-14T18:05:18Z</time>
      </trkpt>
      <trkpt lat="-18.06155" lon="-69.0332">
        <ele>4588</ele>
        <time>2025-10-14T18:05:30Z</time>
      </trkpt>
      <trkpt lat="-18.06159" lon="-69.03319">
        <ele>4588</ele>
        <time>2025-10-14T18:05:34Z</time>
      </trkpt>
      <trkpt lat="-18.06163" lon="-69.03317">
        <ele>4587</ele>
        <time>2025-10-14T18:05:40Z</time>
      </trkpt>
      <trkpt lat="-18.06165" lon="-69.03314">
        <ele>4587</ele>
        <time>2025-10-14T18:05:46Z</time>
      </trkpt>
      <trkpt lat="-18.06168" lon="-69.03312">
        <ele>4586</ele>
        <time>2025-10-14T18:05:50Z</time>
      </trkpt>
      <trkpt lat="-18.06173" lon="-69.03311">
        <ele>4585</ele>
        <time>2025-10-14T18:05:56Z</time>
      </trkpt>
      <trkpt lat="-18.06183" lon="-69.03304">
        <ele>4582</ele>
        <time>2025-10-14T18:06:12Z</time>
      </trkpt>
      <trkpt lat="-18.06187" lon="-69.03302">
        <ele>4581</ele>
        <time>2025-10-14T18:06:18Z</time>
      </trkpt>
      <trkpt lat="-18.06191" lon="-69.03299">
        <ele>4579</ele>
        <time>2025-10-14T18:06:24Z</time>
      </trkpt>
      <trkpt lat="-18.06212" lon="-69.03293">
        <ele>4573</ele>
        <time>2025-10-14T18:06:54Z</time>
      </trkpt>
      <trkpt lat="-18.06216" lon="-69.0329">
        <ele>4572</ele>
        <time>2025-10-14T18:07:00Z</time>
      </trkpt>
      <trkpt lat="-18.0622" lon="-69.03287">
        <ele>4572</ele>
        <time>2025-10-14T18:07:06Z</time>
      </trkpt>
      <trkpt lat="-18.06224" lon="-69.03284">
        <ele>4572</ele>
        <time>2025-10-14T18:07:12Z</time>
      </trkpt>
      <trkpt lat="-18.06228" lon="-69.03283">
        <ele>4571</ele>
        <time>2025-10-14T18:07:18Z</time>
      </trkpt>
      <trkpt lat="-18.06235" lon="-69.03283">
        <ele>4569</ele>
        <time>2025-10-14T18:07:28Z</time>
      </trkpt>
      <trkpt lat="-18.06244" lon="-69.03278">
        <ele>4567</ele>
        <time>2025-10-14T18:07:40Z</time>
      </trkpt>
      <trkpt lat="-18.06248" lon="-69.03276">
        <ele>4567</ele>
        <time>2025-10-14T18:07:46Z</time>
      </trkpt>
      <trkpt lat="-18.06252" lon="-69.03277">
        <ele>4565</ele>
        <time>2025-10-14T18:07:54Z</time>
      </trkpt>
      <trkpt lat="-18.06255" lon="-69.0328">
        <ele>4565</ele>
        <time>2025-10-14T18:08:00Z</time>
      </trkpt>
      <trkpt lat="-18.06258" lon="-69.03281">
        <ele>4564</ele>
        <time>2025-10-14T18:08:04Z</time>
      </trkpt>
      <trkpt lat="-18.06271" lon="-69.03282">
        <ele>4559</ele>
        <time>2025-10-14T18:08:22Z</time>
      </trkpt>
      <trkpt lat="-18.06275" lon="-69.03282">
        <ele>4558</ele>
        <time>2025-10-14T18:08:28Z</time>
      </trkpt>
      <trkpt lat="-18.06277" lon="-69.03286">
        <ele>4556</ele>
        <time>2025-10-14T18:08:36Z</time>
      </trkpt>
      <trkpt lat="-18.0628" lon="-69.03288">
        <ele>4556</ele>
        <time>2025-10-14T18:08:42Z</time>
      </trkpt>
      <trkpt lat="-18.06282" lon="-69.03291">
        <ele>4556</ele>
        <time>2025-10-14T18:08:48Z</time>
      </trkpt>
      <trkpt lat="-18.06283" lon="-69.03296">
        <ele>4555</ele>
        <time>2025-10-14T18:08:56Z</time>
      </trkpt>
      <trkpt lat="-18.06286" lon="-69.03299">
        <ele>4554</ele>
        <time>2025-10-14T18:09:06Z</time>
      </trkpt>
      <trkpt lat="-18.06289" lon="-69.03301">
        <ele>4551</ele>
        <time>2025-10-14T18:09:14Z</time>
      </trkpt>
      <trkpt lat="-18.06297" lon="-69.03306">
        <ele>4550</ele>
        <time>2025-10-14T18:09:34Z</time>
      </trkpt>
      <trkpt lat="-18.06301" lon="-69.03308">
        <ele>4549</ele>
        <time>2025-10-14T18:09:38Z</time>
      </trkpt>
      <trkpt lat="-18.06308" lon="-69.03312">
        <ele>4549</ele>
        <time>2025-10-14T18:09:48Z</time>
      </trkpt>
      <trkpt lat="-18.06311" lon="-69.0331">
        <ele>4550</ele>
        <time>2025-10-14T18:09:54Z</time>
      </trkpt>
      <trkpt lat="-18.06315" lon="-69.03309">
        <ele>4550</ele>
        <time>2025-10-14T18:10:02Z</time>
      </trkpt>
      <trkpt lat="-18.06328" lon="-69.03307">
        <ele>4547</ele>
        <time>2025-10-14T18:10:16Z</time>
      </trkpt>
      <trkpt lat="-18.06331" lon="-69.03306">
        <ele>4546</ele>
        <time>2025-10-14T18:10:20Z</time>
      </trkpt>
      <trkpt lat="-18.06346" lon="-69.03306">
        <ele>4545</ele>
        <time>2025-10-14T18:10:36Z</time>
      </trkpt>
      <trkpt lat="-18.0635" lon="-69.03305">
        <ele>4545</ele>
        <time>2025-10-14T18:10:40Z</time>
      </trkpt>
      <trkpt lat="-18.06353" lon="-69.03303">
        <ele>4545</ele>
        <time>2025-10-14T18:10:44Z</time>
      </trkpt>
      <trkpt lat="-18.06361" lon="-69.03298">
        <ele>4545</ele>
        <time>2025-10-14T18:10:54Z</time>
      </trkpt>
      <trkpt lat="-18.06364" lon="-69.03297">
        <ele>4545</ele>
        <time>2025-10-14T18:10:58Z</time>
      </trkpt>
      <trkpt lat="-18.06368" lon="-69.03296">
        <ele>4543</ele>
        <time>2025-10-14T18:11:02Z</time>
      </trkpt>
      <trkpt lat="-18.0638" lon="-69.03292">
        <ele>4540</ele>
        <time>2025-10-14T18:11:16Z</time>
      </trkpt>
      <trkpt lat="-18.06383" lon="-69.0329">
        <ele>4539</ele>
        <time>2025-10-14T18:11:20Z</time>
      </trkpt>
      <trkpt lat="-18.06391" lon="-69.03286">
        <ele>4538</ele>
        <time>2025-10-14T18:11:32Z</time>
      </trkpt>
      <trkpt lat="-18.06396" lon="-69.03286">
        <ele>4538</ele>
        <time>2025-10-14T18:11:38Z</time>
      </trkpt>
      <trkpt lat="-18.064" lon="-69.03285">
        <ele>4537</ele>
        <time>2025-10-14T18:11:44Z</time>
      </trkpt>
      <trkpt lat="-18.06404" lon="-69.03284">
        <ele>4537</ele>
        <time>2025-10-14T18:11:48Z</time>
      </trkpt>
      <trkpt lat="-18.06411" lon="-69.03282">
        <ele>4535</ele>
        <time>2025-10-14T18:11:56Z</time>
      </trkpt>
      <trkpt lat="-18.06418" lon="-69.03279">
        <ele>4534</ele>
        <time>2025-10-14T18:12:04Z</time>
      </trkpt>
      <trkpt lat="-18.06421" lon="-69.0328">
        <ele>4533</ele>
        <time>2025-10-14T18:12:08Z</time>
      </trkpt>
      <trkpt lat="-18.06425" lon="-69.0328">
        <ele>4532</ele>
        <time>2025-10-14T18:12:12Z</time>
      </trkpt>
      <trkpt lat="-18.06429" lon="-69.03278">
        <ele>4531</ele>
        <time>2025-10-14T18:12:18Z</time>
      </trkpt>
      <trkpt lat="-18.06433" lon="-69.03277">
        <ele>4530</ele>
        <time>2025-10-14T18:12:24Z</time>
      </trkpt>
      <trkpt lat="-18.06437" lon="-69.03276">
        <ele>4530</ele>
        <time>2025-10-14T18:13:02Z</time>
      </trkpt>
      <trkpt lat="-18.0644" lon="-69.03274">
        <ele>4529</ele>
        <time>2025-10-14T18:13:06Z</time>
      </trkpt>
      <trkpt lat="-18.06444" lon="-69.03273">
        <ele>4528</ele>
        <time>2025-10-14T18:13:10Z</time>
      </trkpt>
      <trkpt lat="-18.06447" lon="-69.0327">
        <ele>4528</ele>
        <time>2025-10-14T18:13:14Z</time>
      </trkpt>
      <trkpt lat="-18.0645" lon="-69.03266">
        <ele>4527</ele>
        <time>2025-10-14T18:13:18Z</time>
      </trkpt>
      <trkpt lat="-18.06454" lon="-69.03264">
        <ele>4524</ele>
        <time>2025-10-14T18:13:22Z</time>
      </trkpt>
      <trkpt lat="-18.06458" lon="-69.03265">
        <ele>4523</ele>
        <time>2025-10-14T18:13:26Z</time>
      </trkpt>
      <trkpt lat="-18.06463" lon="-69.03265">
        <ele>4522</ele>
        <time>2025-10-14T18:13:30Z</time>
      </trkpt>
      <trkpt lat="-18.06467" lon="-69.03262">
        <ele>4522</ele>
        <time>2025-10-14T18:13:34Z</time>
      </trkpt>
      <trkpt lat="-18.06472" lon="-69.03262">
        <ele>4522</ele>
        <time>2025-10-14T18:13:38Z</time>
      </trkpt>
      <trkpt lat="-18.06476" lon="-69.03262">
        <ele>4522</ele>
        <time>2025-10-14T18:13:42Z</time>
      </trkpt>
      <trkpt lat="-18.06481" lon="-69.03264">
        <ele>4522</ele>
        <time>2025-10-14T18:13:48Z</time>
      </trkpt>
      <trkpt lat="-18.06485" lon="-69.03262">
        <ele>4522</ele>
        <time>2025-10-14T18:13:54Z</time>
      </trkpt>
      <trkpt lat="-18.06504" lon="-69.0326">
        <ele>4522</ele>
        <time>2025-10-14T18:14:28Z</time>
      </trkpt>
      <trkpt lat="-18.06512" lon="-69.03262">
        <ele>4520</ele>
        <time>2025-10-14T18:14:46Z</time>
      </trkpt>
      <trkpt lat="-18.06513" lon="-69.03258">
        <ele>4520</ele>
        <time>2025-10-14T18:14:54Z</time>
      </trkpt>
      <trkpt lat="-18.06517" lon="-69.0326">
        <ele>4519</ele>
        <time>2025-10-14T18:15:04Z</time>
      </trkpt>
      <trkpt lat="-18.06521" lon="-69.03258">
        <ele>4520</ele>
        <time>2025-10-14T18:15:12Z</time>
      </trkpt>
      <trkpt lat="-18.06522" lon="-69.03262">
        <ele>4520</ele>
        <time>2025-10-14T18:15:26Z</time>
      </trkpt>
      <trkpt lat="-18.06528" lon="-69.03282">
        <ele>4518</ele>
        <time>2025-10-14T18:16:12Z</time>
      </trkpt>
      <trkpt lat="-18.06535" lon="-69.0329">
        <ele>4517</ele>
        <time>2025-10-14T18:16:28Z</time>
      </trkpt>
      <trkpt lat="-18.06541" lon="-69.03294">
        <ele>4514</ele>
        <time>2025-10-14T18:16:38Z</time>
      </trkpt>
      <trkpt lat="-18.06544" lon="-69.03298">
        <ele>4512</ele>
        <time>2025-10-14T18:16:44Z</time>
      </trkpt>
      <trkpt lat="-18.06558" lon="-69.03307">
        <ele>4508</ele>
        <time>2025-10-14T18:17:02Z</time>
      </trkpt>
      <trkpt lat="-18.0656" lon="-69.0331">
        <ele>4507</ele>
        <time>2025-10-14T18:17:06Z</time>
      </trkpt>
      <trkpt lat="-18.06563" lon="-69.03312">
        <ele>4506</ele>
        <time>2025-10-14T18:17:10Z</time>
      </trkpt>
      <trkpt lat="-18.06568" lon="-69.03318">
        <ele>4504</ele>
        <time>2025-10-14T18:17:18Z</time>
      </trkpt>
      <trkpt lat="-18.06571" lon="-69.03319">
        <ele>4503</ele>
        <time>2025-10-14T18:17:22Z</time>
      </trkpt>
      <trkpt lat="-18.06578" lon="-69.03323">
        <ele>4502</ele>
        <time>2025-10-14T18:17:30Z</time>
      </trkpt>
      <trkpt lat="-18.06582" lon="-69.03321">
        <ele>4502</ele>
        <time>2025-10-14T18:17:34Z</time>
      </trkpt>
      <trkpt lat="-18.06591" lon="-69.03321">
        <ele>4503</ele>
        <time>2025-10-14T18:17:46Z</time>
      </trkpt>
      <trkpt lat="-18.06595" lon="-69.0332">
        <ele>4505</ele>
        <time>2025-10-14T18:17:52Z</time>
      </trkpt>
      <trkpt lat="-18.06599" lon="-69.03321">
        <ele>4505</ele>
        <time>2025-10-14T18:17:56Z</time>
      </trkpt>
      <trkpt lat="-18.06604" lon="-69.03323">
        <ele>4504</ele>
        <time>2025-10-14T18:18:02Z</time>
      </trkpt>
      <trkpt lat="-18.06612" lon="-69.03324">
        <ele>4503</ele>
        <time>2025-10-14T18:18:12Z</time>
      </trkpt>
      <trkpt lat="-18.06624" lon="-69.03324">
        <ele>4501</ele>
        <time>2025-10-14T18:18:28Z</time>
      </trkpt>
      <trkpt lat="-18.06628" lon="-69.03324">
        <ele>4501</ele>
        <time>2025-10-14T18:18:32Z</time>
      </trkpt>
      <trkpt lat="-18.06632" lon="-69.03326">
        <ele>4502</ele>
        <time>2025-10-14T18:18:36Z</time>
      </trkpt>
      <trkpt lat="-18.06645" lon="-69.03329">
        <ele>4502</ele>
        <time>2025-10-14T18:18:48Z</time>
      </trkpt>
      <trkpt lat="-18.06667" lon="-69.03323">
        <ele>4503</ele>
        <time>2025-10-14T18:19:08Z</time>
      </trkpt>
      <trkpt lat="-18.06671" lon="-69.03322">
        <ele>4502</ele>
        <time>2025-10-14T18:19:12Z</time>
      </trkpt>
      <trkpt lat="-18.06679" lon="-69.03321">
        <ele>4500</ele>
        <time>2025-10-14T18:19:20Z</time>
      </trkpt>
      <trkpt lat="-18.06705" lon="-69.03328">
        <ele>4498</ele>
        <time>2025-10-14T18:19:44Z</time>
      </trkpt>
      <trkpt lat="-18.06733" lon="-69.03337">
        <ele>4497</ele>
        <time>2025-10-14T18:20:14Z</time>
      </trkpt>
      <trkpt lat="-18.06739" lon="-69.03341">
        <ele>4496</ele>
        <time>2025-10-14T18:20:22Z</time>
      </trkpt>
      <trkpt lat="-18.06754" lon="-69.03348">
        <ele>4492</ele>
        <time>2025-10-14T18:20:38Z</time>
      </trkpt>
      <trkpt lat="-18.06762" lon="-69.0335">
        <ele>4489</ele>
        <time>2025-10-14T18:20:46Z</time>
      </trkpt>
      <trkpt lat="-18.06767" lon="-69.0335">
        <ele>4488</ele>
        <time>2025-10-14T18:20:50Z</time>
      </trkpt>
      <trkpt lat="-18.06777" lon="-69.03349">
        <ele>4487</ele>
        <time>2025-10-14T18:20:58Z</time>
      </trkpt>
      <trkpt lat="-18.0678" lon="-69.03351">
        <ele>4487</ele>
        <time>2025-10-14T18:21:02Z</time>
      </trkpt>
      <trkpt lat="-18.06792" lon="-69.03356">
        <ele>4488</ele>
        <time>2025-10-14T18:21:14Z</time>
      </trkpt>
      <trkpt lat="-18.06795" lon="-69.03359">
        <ele>4488</ele>
        <time>2025-10-14T18:21:18Z</time>
      </trkpt>
      <trkpt lat="-18.06798" lon="-69.03362">
        <ele>4488</ele>
        <time>2025-10-14T18:21:22Z</time>
      </trkpt>
      <trkpt lat="-18.06802" lon="-69.03364">
        <ele>4487</ele>
        <time>2025-10-14T18:21:26Z</time>
      </trkpt>
      <trkpt lat="-18.06806" lon="-69.03367">
        <ele>4487</ele>
        <time>2025-10-14T18:21:30Z</time>
      </trkpt>
      <trkpt lat="-18.06811" lon="-69.03368">
        <ele>4486</ele>
        <time>2025-10-14T18:21:46Z</time>
      </trkpt>
      <trkpt lat="-18.06814" lon="-69.03371">
        <ele>4485</ele>
        <time>2025-10-14T18:21:50Z</time>
      </trkpt>
      <trkpt lat="-18.06821" lon="-69.03376">
        <ele>4483</ele>
        <time>2025-10-14T18:21:58Z</time>
      </trkpt>
      <trkpt lat="-18.06834" lon="-69.03379">
        <ele>4480</ele>
        <time>2025-10-14T18:22:10Z</time>
      </trkpt>
      <trkpt lat="-18.06839" lon="-69.0338">
        <ele>4479</ele>
        <time>2025-10-14T18:22:14Z</time>
      </trkpt>
      <trkpt lat="-18.06843" lon="-69.03383">
        <ele>4480</ele>
        <time>2025-10-14T18:22:18Z</time>
      </trkpt>
      <trkpt lat="-18.06876" lon="-69.03393">
        <ele>4476</ele>
        <time>2025-10-14T18:22:50Z</time>
      </trkpt>
      <trkpt lat="-18.06885" lon="-69.03396">
        <ele>4474</ele>
        <time>2025-10-14T18:22:58Z</time>
      </trkpt>
      <trkpt lat="-18.06906" lon="-69.03399">
        <ele>4475</ele>
        <time>2025-10-14T18:23:18Z</time>
      </trkpt>
      <trkpt lat="-18.0691" lon="-69.034">
        <ele>4475</ele>
        <time>2025-10-14T18:23:22Z</time>
      </trkpt>
      <trkpt lat="-18.06919" lon="-69.03399">
        <ele>4473</ele>
        <time>2025-10-14T18:23:30Z</time>
      </trkpt>
      <trkpt lat="-18.06927" lon="-69.034">
        <ele>4473</ele>
        <time>2025-10-14T18:23:38Z</time>
      </trkpt>
      <trkpt lat="-18.06937" lon="-69.03399">
        <ele>4471</ele>
        <time>2025-10-14T18:23:46Z</time>
      </trkpt>
      <trkpt lat="-18.06941" lon="-69.03397">
        <ele>4471</ele>
        <time>2025-10-14T18:23:50Z</time>
      </trkpt>
      <trkpt lat="-18.06949" lon="-69.03396">
        <ele>4470</ele>
        <time>2025-10-14T18:23:58Z</time>
      </trkpt>
      <trkpt lat="-18.06953" lon="-69.03395">
        <ele>4469</ele>
        <time>2025-10-14T18:24:02Z</time>
      </trkpt>
      <trkpt lat="-18.06957" lon="-69.03396">
        <ele>4470</ele>
        <time>2025-10-14T18:24:06Z</time>
      </trkpt>
      <trkpt lat="-18.0698" lon="-69.03393">
        <ele>4472</ele>
        <time>2025-10-14T18:24:26Z</time>
      </trkpt>
      <trkpt lat="-18.06984" lon="-69.03395">
        <ele>4473</ele>
        <time>2025-10-14T18:24:30Z</time>
      </trkpt>
      <trkpt lat="-18.06988" lon="-69.03394">
        <ele>4473</ele>
        <time>2025-10-14T18:24:34Z</time>
      </trkpt>
      <trkpt lat="-18.06997" lon="-69.03396">
        <ele>4473</ele>
        <time>2025-10-14T18:24:42Z</time>
      </trkpt>
      <trkpt lat="-18.07002" lon="-69.03396">
        <ele>4472</ele>
        <time>2025-10-14T18:24:46Z</time>
      </trkpt>
      <trkpt lat="-18.07005" lon="-69.03396">
        <ele>4470</ele>
        <time>2025-10-14T18:25:42Z</time>
      </trkpt>
      <trkpt lat="-18.07031" lon="-69.03401">
        <ele>4471</ele>
        <time>2025-10-14T18:26:02Z</time>
      </trkpt>
      <trkpt lat="-18.07035" lon="-69.03402">
        <ele>4471</ele>
        <time>2025-10-14T18:26:06Z</time>
      </trkpt>
      <trkpt lat="-18.0704" lon="-69.03402">
        <ele>4472</ele>
        <time>2025-10-14T18:26:10Z</time>
      </trkpt>
      <trkpt lat="-18.07046" lon="-69.034">
        <ele>4471</ele>
        <time>2025-10-14T18:26:14Z</time>
      </trkpt>
      <trkpt lat="-18.0705" lon="-69.03397">
        <ele>4470</ele>
        <time>2025-10-14T18:26:18Z</time>
      </trkpt>
      <trkpt lat="-18.07082" lon="-69.03398">
        <ele>4467</ele>
        <time>2025-10-14T18:26:42Z</time>
      </trkpt>
      <trkpt lat="-18.07091" lon="-69.03403">
        <ele>4469</ele>
        <time>2025-10-14T18:26:50Z</time>
      </trkpt>
      <trkpt lat="-18.07107" lon="-69.03403">
        <ele>4467</ele>
        <time>2025-10-14T18:27:02Z</time>
      </trkpt>
      <trkpt lat="-18.07129" lon="-69.03415">
        <ele>4470</ele>
        <time>2025-10-14T18:27:22Z</time>
      </trkpt>
      <trkpt lat="-18.07133" lon="-69.03417">
        <ele>4470</ele>
        <time>2025-10-14T18:27:26Z</time>
      </trkpt>
      <trkpt lat="-18.07138" lon="-69.03419">
        <ele>4470</ele>
        <time>2025-10-14T18:27:30Z</time>
      </trkpt>
      <trkpt lat="-18.07143" lon="-69.0342">
        <ele>4470</ele>
        <time>2025-10-14T18:27:34Z</time>
      </trkpt>
      <trkpt lat="-18.07173" lon="-69.03432">
        <ele>4467</ele>
        <time>2025-10-14T18:27:58Z</time>
      </trkpt>
      <trkpt lat="-18.0719" lon="-69.03445">
        <ele>4467</ele>
        <time>2025-10-14T18:28:14Z</time>
      </trkpt>
      <trkpt lat="-18.07195" lon="-69.03448">
        <ele>4467</ele>
        <time>2025-10-14T18:28:18Z</time>
      </trkpt>
      <trkpt lat="-18.07198" lon="-69.03451">
        <ele>4465</ele>
        <time>2025-10-14T18:28:22Z</time>
      </trkpt>
      <trkpt lat="-18.07209" lon="-69.03457">
        <ele>4465</ele>
        <time>2025-10-14T18:28:34Z</time>
      </trkpt>
      <trkpt lat="-18.07219" lon="-69.03455">
        <ele>4465</ele>
        <time>2025-10-14T18:28:42Z</time>
      </trkpt>
      <trkpt lat="-18.07224" lon="-69.03453">
        <ele>4464</ele>
        <time>2025-10-14T18:28:46Z</time>
      </trkpt>
      <trkpt lat="-18.0723" lon="-69.03453">
        <ele>4463</ele>
        <time>2025-10-14T18:28:50Z</time>
      </trkpt>
      <trkpt lat="-18.07235" lon="-69.03453">
        <ele>4462</ele>
        <time>2025-10-14T18:28:54Z</time>
      </trkpt>
      <trkpt lat="-18.0724" lon="-69.03452">
        <ele>4462</ele>
        <time>2025-10-14T18:28:58Z</time>
      </trkpt>
      <trkpt lat="-18.07245" lon="-69.0345">
        <ele>4462</ele>
        <time>2025-10-14T18:29:02Z</time>
      </trkpt>
      <trkpt lat="-18.07277" lon="-69.03445">
        <ele>4460</ele>
        <time>2025-10-14T18:29:30Z</time>
      </trkpt>
      <trkpt lat="-18.07313" lon="-69.03449">
        <ele>4458</ele>
        <time>2025-10-14T18:30:02Z</time>
      </trkpt>
      <trkpt lat="-18.07317" lon="-69.03449">
        <ele>4458</ele>
        <time>2025-10-14T18:30:06Z</time>
      </trkpt>
      <trkpt lat="-18.07321" lon="-69.0345">
        <ele>4459</ele>
        <time>2025-10-14T18:30:10Z</time>
      </trkpt>
      <trkpt lat="-18.07358" lon="-69.03454">
        <ele>4458</ele>
        <time>2025-10-14T18:30:42Z</time>
      </trkpt>
      <trkpt lat="-18.07373" lon="-69.03454">
        <ele>4458</ele>
        <time>2025-10-14T18:30:54Z</time>
      </trkpt>
      <trkpt lat="-18.07409" lon="-69.03456">
        <ele>4456</ele>
        <time>2025-10-14T18:31:26Z</time>
      </trkpt>
      <trkpt lat="-18.07446" lon="-69.03452">
        <ele>4459</ele>
        <time>2025-10-14T18:31:58Z</time>
      </trkpt>
      <trkpt lat="-18.0747" lon="-69.0345">
        <ele>4460</ele>
        <time>2025-10-14T18:32:18Z</time>
      </trkpt>
      <trkpt lat="-18.07475" lon="-69.0345">
        <ele>4460</ele>
        <time>2025-10-14T18:32:22Z</time>
      </trkpt>
      <trkpt lat="-18.0748" lon="-69.03451">
        <ele>4459</ele>
        <time>2025-10-14T18:32:28Z</time>
      </trkpt>
      <trkpt lat="-18.07483" lon="-69.0345">
        <ele>4458</ele>
        <time>2025-10-14T18:32:32Z</time>
      </trkpt>
      <trkpt lat="-18.07521" lon="-69.03447">
        <ele>4458</ele>
        <time>2025-10-14T18:33:04Z</time>
      </trkpt>
      <trkpt lat="-18.07553" lon="-69.03442">
        <ele>4454</ele>
        <time>2025-10-14T18:33:32Z</time>
      </trkpt>
      <trkpt lat="-18.07557" lon="-69.03442">
        <ele>4454</ele>
        <time>2025-10-14T18:33:36Z</time>
      </trkpt>
      <trkpt lat="-18.0757" lon="-69.0344">
        <ele>4455</ele>
        <time>2025-10-14T18:33:48Z</time>
      </trkpt>
      <trkpt lat="-18.07579" lon="-69.03438">
        <ele>4454</ele>
        <time>2025-10-14T18:33:58Z</time>
      </trkpt>
      <trkpt lat="-18.07591" lon="-69.03437">
        <ele>4453</ele>
        <time>2025-10-14T18:34:10Z</time>
      </trkpt>
      <trkpt lat="-18.07599" lon="-69.03435">
        <ele>4453</ele>
        <time>2025-10-14T18:34:18Z</time>
      </trkpt>
      <trkpt lat="-18.07603" lon="-69.03435">
        <ele>4453</ele>
        <time>2025-10-14T18:34:22Z</time>
      </trkpt>
      <trkpt lat="-18.07619" lon="-69.03436">
        <ele>4457</ele>
        <time>2025-10-14T18:34:40Z</time>
      </trkpt>
      <trkpt lat="-18.07624" lon="-69.03437">
        <ele>4459</ele>
        <time>2025-10-14T18:34:46Z</time>
      </trkpt>
      <trkpt lat="-18.0764" lon="-69.0344">
        <ele>4459</ele>
        <time>2025-10-14T18:35:02Z</time>
      </trkpt>
      <trkpt lat="-18.07644" lon="-69.0344">
        <ele>4459</ele>
        <time>2025-10-14T18:35:06Z</time>
      </trkpt>
      <trkpt lat="-18.07648" lon="-69.03441">
        <ele>4458</ele>
        <time>2025-10-14T18:35:10Z</time>
      </trkpt>
      <trkpt lat="-18.07658" lon="-69.03438">
        <ele>4457</ele>
        <time>2025-10-14T18:35:18Z</time>
      </trkpt>
      <trkpt lat="-18.07666" lon="-69.03431">
        <ele>4455</ele>
        <time>2025-10-14T18:35:26Z</time>
      </trkpt>
      <trkpt lat="-18.07668" lon="-69.03426">
        <ele>4455</ele>
        <time>2025-10-14T18:35:30Z</time>
      </trkpt>
      <trkpt lat="-18.07672" lon="-69.03423">
        <ele>4456</ele>
        <time>2025-10-14T18:35:36Z</time>
      </trkpt>
      <trkpt lat="-18.07698" lon="-69.03411">
        <ele>4452</ele>
        <time>2025-10-14T18:36:04Z</time>
      </trkpt>
      <trkpt lat="-18.07714" lon="-69.0341">
        <ele>4450</ele>
        <time>2025-10-14T18:36:20Z</time>
      </trkpt>
      <trkpt lat="-18.07726" lon="-69.03416">
        <ele>4448</ele>
        <time>2025-10-14T18:36:32Z</time>
      </trkpt>
      <trkpt lat="-18.07734" lon="-69.03416">
        <ele>4449</ele>
        <time>2025-10-14T18:36:40Z</time>
      </trkpt>
      <trkpt lat="-18.07747" lon="-69.03412">
        <ele>4451</ele>
        <time>2025-10-14T18:36:52Z</time>
      </trkpt>
      <trkpt lat="-18.0775" lon="-69.03409">
        <ele>4450</ele>
        <time>2025-10-14T18:36:56Z</time>
      </trkpt>
      <trkpt lat="-18.07764" lon="-69.03405">
        <ele>4451</ele>
        <time>2025-10-14T18:37:08Z</time>
      </trkpt>
      <trkpt lat="-18.07777" lon="-69.03402">
        <ele>4451</ele>
        <time>2025-10-14T18:37:20Z</time>
      </trkpt>
      <trkpt lat="-18.07789" lon="-69.03398">
        <ele>4451</ele>
        <time>2025-10-14T18:37:32Z</time>
      </trkpt>
      <trkpt lat="-18.07792" lon="-69.03395">
        <ele>4451</ele>
        <time>2025-10-14T18:37:36Z</time>
      </trkpt>
      <trkpt lat="-18.07792" lon="-69.03391">
        <ele>4451</ele>
        <time>2025-10-14T18:37:40Z</time>
      </trkpt>
      <trkpt lat="-18.07809" lon="-69.03384">
        <ele>4448</ele>
        <time>2025-10-14T18:38:00Z</time>
      </trkpt>
      <trkpt lat="-18.07812" lon="-69.03382">
        <ele>4448</ele>
        <time>2025-10-14T18:38:04Z</time>
      </trkpt>
      <trkpt lat="-18.07815" lon="-69.03379">
        <ele>4448</ele>
        <time>2025-10-14T18:38:08Z</time>
      </trkpt>
      <trkpt lat="-18.07836" lon="-69.03366">
        <ele>4445</ele>
        <time>2025-10-14T18:38:32Z</time>
      </trkpt>
      <trkpt lat="-18.0785" lon="-69.03349">
        <ele>4445</ele>
        <time>2025-10-14T18:38:52Z</time>
      </trkpt>
      <trkpt lat="-18.07854" lon="-69.03346">
        <ele>4446</ele>
        <time>2025-10-14T18:38:58Z</time>
      </trkpt>
      <trkpt lat="-18.07869" lon="-69.0334">
        <ele>4445</ele>
        <time>2025-10-14T18:39:16Z</time>
      </trkpt>
      <trkpt lat="-18.0788" lon="-69.03337">
        <ele>4445</ele>
        <time>2025-10-14T18:39:28Z</time>
      </trkpt>
      <trkpt lat="-18.07913" lon="-69.03324">
        <ele>4444</ele>
        <time>2025-10-14T18:40:00Z</time>
      </trkpt>
      <trkpt lat="-18.07916" lon="-69.03323">
        <ele>4444</ele>
        <time>2025-10-14T18:40:04Z</time>
      </trkpt>
      <trkpt lat="-18.07924" lon="-69.03319">
        <ele>4442</ele>
        <time>2025-10-14T18:40:12Z</time>
      </trkpt>
      <trkpt lat="-18.0795" lon="-69.03307">
        <ele>4442</ele>
        <time>2025-10-14T18:40:36Z</time>
      </trkpt>
      <trkpt lat="-18.07949" lon="-69.03302">
        <ele>4442</ele>
        <time>2025-10-14T18:40:40Z</time>
      </trkpt>
      <trkpt lat="-18.07946" lon="-69.03301">
        <ele>4442</ele>
        <time>2025-10-14T18:40:42Z</time>
      </trkpt>
      <trkpt lat="-18.07949" lon="-69.03297">
        <ele>4442</ele>
        <time>2025-10-14T18:40:48Z</time>
      </trkpt>
      <trkpt lat="-18.0796" lon="-69.03294">
        <ele>4442</ele>
        <time>2025-10-14T18:41:04Z</time>
      </trkpt>
      <trkpt lat="-18.07968" lon="-69.03289">
        <ele>4442</ele>
        <time>2025-10-14T18:41:12Z</time>
      </trkpt>
      <trkpt lat="-18.07974" lon="-69.03281">
        <ele>4442</ele>
        <time>2025-10-14T18:41:20Z</time>
      </trkpt>
      <trkpt lat="-18.07979" lon="-69.03273">
        <ele>4441</ele>
        <time>2025-10-14T18:41:28Z</time>
      </trkpt>
      <trkpt lat="-18.07982" lon="-69.0327">
        <ele>4442</ele>
        <time>2025-10-14T18:41:32Z</time>
      </trkpt>
      <trkpt lat="-18.07985" lon="-69.03266">
        <ele>4442</ele>
        <time>2025-10-14T18:41:36Z</time>
      </trkpt>
      <trkpt lat="-18.07988" lon="-69.03262">
        <ele>4441</ele>
        <time>2025-10-14T18:41:40Z</time>
      </trkpt>
      <trkpt lat="-18.07997" lon="-69.03253">
        <ele>4440</ele>
        <time>2025-10-14T18:41:52Z</time>
      </trkpt>
      <trkpt lat="-18.08001" lon="-69.03249">
        <ele>4439</ele>
        <time>2025-10-14T18:41:56Z</time>
      </trkpt>
      <trkpt lat="-18.08006" lon="-69.03241">
        <ele>4437</ele>
        <time>2025-10-14T18:42:04Z</time>
      </trkpt>
      <trkpt lat="-18.0801" lon="-69.03232">
        <ele>4437</ele>
        <time>2025-10-14T18:42:12Z</time>
      </trkpt>
      <trkpt lat="-18.0802" lon="-69.03217">
        <ele>4434</ele>
        <time>2025-10-14T18:42:28Z</time>
      </trkpt>
      <trkpt lat="-18.0803" lon="-69.0321">
        <ele>4434</ele>
        <time>2025-10-14T18:42:40Z</time>
      </trkpt>
      <trkpt lat="-18.08033" lon="-69.03208">
        <ele>4434</ele>
        <time>2025-10-14T18:42:44Z</time>
      </trkpt>
      <trkpt lat="-18.08037" lon="-69.03203">
        <ele>4435</ele>
        <time>2025-10-14T18:42:50Z</time>
      </trkpt>
      <trkpt lat="-18.0804" lon="-69.03203">
        <ele>4435</ele>
        <time>2025-10-14T18:43:21Z</time>
      </trkpt>
      <trkpt lat="-18.08041" lon="-69.03199">
        <ele>4435</ele>
        <time>2025-10-14T18:43:27Z</time>
      </trkpt>
      <trkpt lat="-18.08047" lon="-69.03191">
        <ele>4434</ele>
        <time>2025-10-14T18:43:37Z</time>
      </trkpt>
      <trkpt lat="-18.0805" lon="-69.03189">
        <ele>4433</ele>
        <time>2025-10-14T18:43:41Z</time>
      </trkpt>
      <trkpt lat="-18.08053" lon="-69.03186">
        <ele>4433</ele>
        <time>2025-10-14T18:43:45Z</time>
      </trkpt>
      <trkpt lat="-18.08074" lon="-69.03172">
        <ele>4429</ele>
        <time>2025-10-14T18:44:15Z</time>
      </trkpt>
      <trkpt lat="-18.08085" lon="-69.03162">
        <ele>4428</ele>
        <time>2025-10-14T18:44:27Z</time>
      </trkpt>
      <trkpt lat="-18.08092" lon="-69.03154">
        <ele>4429</ele>
        <time>2025-10-14T18:44:37Z</time>
      </trkpt>
      <trkpt lat="-18.08099" lon="-69.03146">
        <ele>4428</ele>
        <time>2025-10-14T18:44:45Z</time>
      </trkpt>
      <trkpt lat="-18.08102" lon="-69.03144">
        <ele>4428</ele>
        <time>2025-10-14T18:44:49Z</time>
      </trkpt>
      <trkpt lat="-18.08106" lon="-69.03148">
        <ele>4427</ele>
        <time>2025-10-14T18:44:53Z</time>
      </trkpt>
      <trkpt lat="-18.08107" lon="-69.03143">
        <ele>4427</ele>
        <time>2025-10-14T18:44:57Z</time>
      </trkpt>
      <trkpt lat="-18.08109" lon="-69.03138">
        <ele>4426</ele>
        <time>2025-10-14T18:45:01Z</time>
      </trkpt>
      <trkpt lat="-18.08121" lon="-69.03123">
        <ele>4426</ele>
        <time>2025-10-14T18:45:17Z</time>
      </trkpt>
      <trkpt lat="-18.08125" lon="-69.03122">
        <ele>4426</ele>
        <time>2025-10-14T18:45:23Z</time>
      </trkpt>
      <trkpt lat="-18.08134" lon="-69.03112">
        <ele>4426</ele>
        <time>2025-10-14T18:45:41Z</time>
      </trkpt>
      <trkpt lat="-18.08122" lon="-69.03123">
        <ele>4426</ele>
        <time>2025-10-14T18:46:13Z</time>
      </trkpt>
      <trkpt lat="-18.08125" lon="-69.0312">
        <ele>4426</ele>
        <time>2025-10-14T18:46:55Z</time>
      </trkpt>
      <trkpt lat="-18.08138" lon="-69.03108">
        <ele>4425</ele>
        <time>2025-10-14T18:47:14Z</time>
      </trkpt>
      <trkpt lat="-18.0814" lon="-69.03104">
        <ele>4424</ele>
        <time>2025-10-14T18:47:18Z</time>
      </trkpt>
      <trkpt lat="-18.08156" lon="-69.03083">
        <ele>4426</ele>
        <time>2025-10-14T18:47:40Z</time>
      </trkpt>
      <trkpt lat="-18.0816" lon="-69.03082">
        <ele>4425</ele>
        <time>2025-10-14T18:47:58Z</time>
      </trkpt>
      <trkpt lat="-18.08181" lon="-69.03052">
        <ele>4421</ele>
        <time>2025-10-14T18:48:30Z</time>
      </trkpt>
      <trkpt lat="-18.0819" lon="-69.0304">
        <ele>4420</ele>
        <time>2025-10-14T18:48:42Z</time>
      </trkpt>
      <trkpt lat="-18.08193" lon="-69.03038">
        <ele>4420</ele>
        <time>2025-10-14T18:48:46Z</time>
      </trkpt>
      <trkpt lat="-18.08196" lon="-69.03035">
        <ele>4420</ele>
        <time>2025-10-14T18:48:54Z</time>
      </trkpt>
      <trkpt lat="-18.08218" lon="-69.03009">
        <ele>4418</ele>
        <time>2025-10-14T18:49:26Z</time>
      </trkpt>
      <trkpt lat="-18.08239" lon="-69.02983">
        <ele>4414</ele>
        <time>2025-10-14T18:49:54Z</time>
      </trkpt>
      <trkpt lat="-18.0825" lon="-69.02966">
        <ele>4413</ele>
        <time>2025-10-14T18:50:10Z</time>
      </trkpt>
      <trkpt lat="-18.08251" lon="-69.02962">
        <ele>4413</ele>
        <time>2025-10-14T18:50:14Z</time>
      </trkpt>
      <trkpt lat="-18.08252" lon="-69.02957">
        <ele>4413</ele>
        <time>2025-10-14T18:50:18Z</time>
      </trkpt>
      <trkpt lat="-18.08254" lon="-69.02944">
        <ele>4411</ele>
        <time>2025-10-14T18:50:30Z</time>
      </trkpt>
      <trkpt lat="-18.08255" lon="-69.02939">
        <ele>4411</ele>
        <time>2025-10-14T18:50:34Z</time>
      </trkpt>
      <trkpt lat="-18.08261" lon="-69.02927">
        <ele>4410</ele>
        <time>2025-10-14T18:50:46Z</time>
      </trkpt>
      <trkpt lat="-18.08263" lon="-69.02923">
        <ele>4409</ele>
        <time>2025-10-14T18:50:50Z</time>
      </trkpt>
      <trkpt lat="-18.08271" lon="-69.02907">
        <ele>4406</ele>
        <time>2025-10-14T18:51:06Z</time>
      </trkpt>
      <trkpt lat="-18.08275" lon="-69.02899">
        <ele>4405</ele>
        <time>2025-10-14T18:51:14Z</time>
      </trkpt>
      <trkpt lat="-18.08276" lon="-69.0289">
        <ele>4403</ele>
        <time>2025-10-14T18:51:22Z</time>
      </trkpt>
      <trkpt lat="-18.08277" lon="-69.02885">
        <ele>4403</ele>
        <time>2025-10-14T18:52:04Z</time>
      </trkpt>
      <trkpt lat="-18.08281" lon="-69.02883">
        <ele>4404</ele>
        <time>2025-10-14T18:52:08Z</time>
      </trkpt>
      <trkpt lat="-18.0828" lon="-69.02879">
        <ele>4404</ele>
        <time>2025-10-14T18:52:24Z</time>
      </trkpt>
      <trkpt lat="-18.08279" lon="-69.02877">
        <ele>4403</ele>
        <time>2025-10-14T18:54:52Z</time>
      </trkpt>
      <trkpt lat="-18.08281" lon="-69.02873">
        <ele>4404</ele>
        <time>2025-10-14T18:55:58Z</time>
      </trkpt>
      <trkpt lat="-18.08291" lon="-69.0284">
        <ele>4399</ele>
        <time>2025-10-14T18:56:30Z</time>
      </trkpt>
      <trkpt lat="-18.08297" lon="-69.02821">
        <ele>4397</ele>
        <time>2025-10-14T18:56:46Z</time>
      </trkpt>
      <trkpt lat="-18.08299" lon="-69.02816">
        <ele>4397</ele>
        <time>2025-10-14T18:56:50Z</time>
      </trkpt>
      <trkpt lat="-18.083" lon="-69.02812">
        <ele>4396</ele>
        <time>2025-10-14T18:56:54Z</time>
      </trkpt>
      <trkpt lat="-18.08309" lon="-69.02794">
        <ele>4397</ele>
        <time>2025-10-14T18:57:10Z</time>
      </trkpt>
      <trkpt lat="-18.08323" lon="-69.02755">
        <ele>4396</ele>
        <time>2025-10-14T18:57:42Z</time>
      </trkpt>
      <trkpt lat="-18.08325" lon="-69.0275">
        <ele>4395</ele>
        <time>2025-10-14T18:57:46Z</time>
      </trkpt>
      <trkpt lat="-18.08326" lon="-69.02739">
        <ele>4395</ele>
        <time>2025-10-14T18:57:54Z</time>
      </trkpt>
      <trkpt lat="-18.08334" lon="-69.02705">
        <ele>4394</ele>
        <time>2025-10-14T18:58:22Z</time>
      </trkpt>
      <trkpt lat="-18.08346" lon="-69.02681">
        <ele>4394</ele>
        <time>2025-10-14T18:58:42Z</time>
      </trkpt>
      <trkpt lat="-18.08348" lon="-69.02676">
        <ele>4394</ele>
        <time>2025-10-14T18:58:46Z</time>
      </trkpt>
      <trkpt lat="-18.08349" lon="-69.02672">
        <ele>4394</ele>
        <time>2025-10-14T18:58:50Z</time>
      </trkpt>
      <trkpt lat="-18.0835" lon="-69.02668">
        <ele>4394</ele>
        <time>2025-10-14T18:58:54Z</time>
      </trkpt>
      <trkpt lat="-18.08351" lon="-69.02665">
        <ele>4395</ele>
        <time>2025-10-14T18:58:58Z</time>
      </trkpt>
      <trkpt lat="-18.08365" lon="-69.02634">
        <ele>4392</ele>
        <time>2025-10-14T18:59:30Z</time>
      </trkpt>
      <trkpt lat="-18.08376" lon="-69.02599">
        <ele>4391</ele>
        <time>2025-10-14T19:00:02Z</time>
      </trkpt>
      <trkpt lat="-18.08382" lon="-69.02582">
        <ele>4389</ele>
        <time>2025-10-14T19:00:18Z</time>
      </trkpt>
      <trkpt lat="-18.08388" lon="-69.02571">
        <ele>4388</ele>
        <time>2025-10-14T19:00:30Z</time>
      </trkpt>
      <trkpt lat="-18.08398" lon="-69.0254">
        <ele>4386</ele>
        <time>2025-10-14T19:00:58Z</time>
      </trkpt>
      <trkpt lat="-18.08421" lon="-69.02509">
        <ele>4382</ele>
        <time>2025-10-14T19:01:30Z</time>
      </trkpt>
      <trkpt lat="-18.08424" lon="-69.02505">
        <ele>4382</ele>
        <time>2025-10-14T19:01:34Z</time>
      </trkpt>
      <trkpt lat="-18.08427" lon="-69.02502">
        <ele>4382</ele>
        <time>2025-10-14T19:01:38Z</time>
      </trkpt>
      <trkpt lat="-18.08437" lon="-69.02501">
        <ele>4383</ele>
        <time>2025-10-14T19:01:46Z</time>
      </trkpt>
      <trkpt lat="-18.08442" lon="-69.025">
        <ele>4384</ele>
        <time>2025-10-14T19:01:50Z</time>
      </trkpt>
      <trkpt lat="-18.08449" lon="-69.02492">
        <ele>4383</ele>
        <time>2025-10-14T19:01:58Z</time>
      </trkpt>
      <trkpt lat="-18.08452" lon="-69.02488">
        <ele>4382</ele>
        <time>2025-10-14T19:02:02Z</time>
      </trkpt>
      <trkpt lat="-18.08456" lon="-69.02478">
        <ele>4382</ele>
        <time>2025-10-14T19:02:10Z</time>
      </trkpt>
      <trkpt lat="-18.08456" lon="-69.02473">
        <ele>4382</ele>
        <time>2025-10-14T19:02:14Z</time>
      </trkpt>
      <trkpt lat="-18.08457" lon="-69.02468">
        <ele>4383</ele>
        <time>2025-10-14T19:02:18Z</time>
      </trkpt>
      <trkpt lat="-18.08454" lon="-69.02447">
        <ele>4382</ele>
        <time>2025-10-14T19:02:34Z</time>
      </trkpt>
      <trkpt lat="-18.08454" lon="-69.02442">
        <ele>4382</ele>
        <time>2025-10-14T19:02:38Z</time>
      </trkpt>
      <trkpt lat="-18.08456" lon="-69.02437">
        <ele>4381</ele>
        <time>2025-10-14T19:02:42Z</time>
      </trkpt>
      <trkpt lat="-18.08464" lon="-69.0243">
        <ele>4382</ele>
        <time>2025-10-14T19:02:50Z</time>
      </trkpt>
      <trkpt lat="-18.08468" lon="-69.02422">
        <ele>4382</ele>
        <time>2025-10-14T19:02:58Z</time>
      </trkpt>
      <trkpt lat="-18.08482" lon="-69.024">
        <ele>4381</ele>
        <time>2025-10-14T19:03:18Z</time>
      </trkpt>
      <trkpt lat="-18.08483" lon="-69.02396">
        <ele>4382</ele>
        <time>2025-10-14T19:03:22Z</time>
      </trkpt>
      <trkpt lat="-18.08487" lon="-69.02364">
        <ele>4382</ele>
        <time>2025-10-14T19:03:50Z</time>
      </trkpt>
      <trkpt lat="-18.0849" lon="-69.02354">
        <ele>4381</ele>
        <time>2025-10-14T19:03:58Z</time>
      </trkpt>
      <trkpt lat="-18.08504" lon="-69.02317">
        <ele>4379</ele>
        <time>2025-10-14T19:04:30Z</time>
      </trkpt>
      <trkpt lat="-18.08525" lon="-69.02279">
        <ele>4377</ele>
        <time>2025-10-14T19:05:02Z</time>
      </trkpt>
      <trkpt lat="-18.08532" lon="-69.02264">
        <ele>4376</ele>
        <time>2025-10-14T19:05:14Z</time>
      </trkpt>
      <trkpt lat="-18.08555" lon="-69.02232">
        <ele>4377</ele>
        <time>2025-10-14T19:05:46Z</time>
      </trkpt>
      <trkpt lat="-18.08573" lon="-69.02194">
        <ele>4376</ele>
        <time>2025-10-14T19:06:18Z</time>
      </trkpt>
      <trkpt lat="-18.08584" lon="-69.02176">
        <ele>4375</ele>
        <time>2025-10-14T19:06:34Z</time>
      </trkpt>
      <trkpt lat="-18.08596" lon="-69.02146">
        <ele>4375</ele>
        <time>2025-10-14T19:06:58Z</time>
      </trkpt>
      <trkpt lat="-18.08601" lon="-69.02138">
        <ele>4375</ele>
        <time>2025-10-14T19:07:06Z</time>
      </trkpt>
      <trkpt lat="-18.08606" lon="-69.02124">
        <ele>4375</ele>
        <time>2025-10-14T19:07:18Z</time>
      </trkpt>
      <trkpt lat="-18.08625" lon="-69.02095">
        <ele>4372</ele>
        <time>2025-10-14T19:07:46Z</time>
      </trkpt>
      <trkpt lat="-18.08639" lon="-69.02056">
        <ele>4372</ele>
        <time>2025-10-14T19:08:18Z</time>
      </trkpt>
      <trkpt lat="-18.08649" lon="-69.02032">
        <ele>4372</ele>
        <time>2025-10-14T19:08:38Z</time>
      </trkpt>
      <trkpt lat="-18.08653" lon="-69.02023">
        <ele>4373</ele>
        <time>2025-10-14T19:08:46Z</time>
      </trkpt>
      <trkpt lat="-18.08654" lon="-69.02019">
        <ele>4373</ele>
        <time>2025-10-14T19:08:50Z</time>
      </trkpt>
      <trkpt lat="-18.08655" lon="-69.02005">
        <ele>4374</ele>
        <time>2025-10-14T19:09:02Z</time>
      </trkpt>
      <trkpt lat="-18.08653" lon="-69.02">
        <ele>4375</ele>
        <time>2025-10-14T19:09:06Z</time>
      </trkpt>
      <trkpt lat="-18.08647" lon="-69.0198">
        <ele>4373</ele>
        <time>2025-10-14T19:09:22Z</time>
      </trkpt>
      <trkpt lat="-18.08642" lon="-69.01939">
        <ele>4371</ele>
        <time>2025-10-14T19:09:54Z</time>
      </trkpt>
      <trkpt lat="-18.08639" lon="-69.01924">
        <ele>4371</ele>
        <time>2025-10-14T19:10:06Z</time>
      </trkpt>
      <trkpt lat="-18.08641" lon="-69.019">
        <ele>4372</ele>
        <time>2025-10-14T19:10:26Z</time>
      </trkpt>
      <trkpt lat="-18.0864" lon="-69.01877">
        <ele>4371</ele>
        <time>2025-10-14T19:10:46Z</time>
      </trkpt>
      <trkpt lat="-18.08641" lon="-69.01863">
        <ele>4372</ele>
        <time>2025-10-14T19:10:58Z</time>
      </trkpt>
      <trkpt lat="-18.08641" lon="-69.01858">
        <ele>4372</ele>
        <time>2025-10-14T19:11:02Z</time>
      </trkpt>
      <trkpt lat="-18.08645" lon="-69.01845">
        <ele>4373</ele>
        <time>2025-10-14T19:11:14Z</time>
      </trkpt>
      <trkpt lat="-18.08666" lon="-69.01815">
        <ele>4374</ele>
        <time>2025-10-14T19:11:46Z</time>
      </trkpt>
      <trkpt lat="-18.08676" lon="-69.01785">
        <ele>4375</ele>
        <time>2025-10-14T19:12:10Z</time>
      </trkpt>
      <trkpt lat="-18.08683" lon="-69.01745">
        <ele>4376</ele>
        <time>2025-10-14T19:12:42Z</time>
      </trkpt>
      <trkpt lat="-18.08684" lon="-69.0174">
        <ele>4376</ele>
        <time>2025-10-14T19:12:46Z</time>
      </trkpt>
      <trkpt lat="-18.08699" lon="-69.01702">
        <ele>4376</ele>
        <time>2025-10-14T19:13:18Z</time>
      </trkpt>
      <trkpt lat="-18.08711" lon="-69.01664">
        <ele>4375</ele>
        <time>2025-10-14T19:13:50Z</time>
      </trkpt>
      <trkpt lat="-18.08713" lon="-69.01654">
        <ele>4375</ele>
        <time>2025-10-14T19:13:58Z</time>
      </trkpt>
      <trkpt lat="-18.08715" lon="-69.01643">
        <ele>4374</ele>
        <time>2025-10-14T19:14:06Z</time>
      </trkpt>
      <trkpt lat="-18.08728" lon="-69.01604">
        <ele>4374</ele>
        <time>2025-10-14T19:14:38Z</time>
      </trkpt>
      <trkpt lat="-18.08732" lon="-69.01589">
        <ele>4374</ele>
        <time>2025-10-14T19:14:50Z</time>
      </trkpt>
      <trkpt lat="-18.08736" lon="-69.01547">
        <ele>4371</ele>
        <time>2025-10-14T19:15:22Z</time>
      </trkpt>
      <trkpt lat="-18.08736" lon="-69.01541">
        <ele>4371</ele>
        <time>2025-10-14T19:15:26Z</time>
      </trkpt>
      <trkpt lat="-18.08739" lon="-69.01531">
        <ele>4371</ele>
        <time>2025-10-14T19:15:34Z</time>
      </trkpt>
      <trkpt lat="-18.08741" lon="-69.01488">
        <ele>4370</ele>
        <time>2025-10-14T19:16:06Z</time>
      </trkpt>
      <trkpt lat="-18.08741" lon="-69.01462">
        <ele>4369</ele>
        <time>2025-10-14T19:16:26Z</time>
      </trkpt>
      <trkpt lat="-18.08741" lon="-69.01457">
        <ele>4369</ele>
        <time>2025-10-14T19:16:30Z</time>
      </trkpt>
      <trkpt lat="-18.08742" lon="-69.01447">
        <ele>4368</ele>
        <time>2025-10-14T19:16:38Z</time>
      </trkpt>
      <trkpt lat="-18.08749" lon="-69.01408">
        <ele>4369</ele>
        <time>2025-10-14T19:17:10Z</time>
      </trkpt>
      <trkpt lat="-18.0875" lon="-69.01369">
        <ele>4369</ele>
        <time>2025-10-14T19:17:42Z</time>
      </trkpt>
      <trkpt lat="-18.0875" lon="-69.01339">
        <ele>4366</ele>
        <time>2025-10-14T19:18:06Z</time>
      </trkpt>
      <trkpt lat="-18.08751" lon="-69.01335">
        <ele>4366</ele>
        <time>2025-10-14T19:18:10Z</time>
      </trkpt>
      <trkpt lat="-18.08752" lon="-69.01304">
        <ele>4365</ele>
        <time>2025-10-14T19:18:34Z</time>
      </trkpt>
      <trkpt lat="-18.08757" lon="-69.01275">
        <ele>4365</ele>
        <time>2025-10-14T19:18:58Z</time>
      </trkpt>
      <trkpt lat="-18.08757" lon="-69.01265">
        <ele>4366</ele>
        <time>2025-10-14T19:19:06Z</time>
      </trkpt>
      <trkpt lat="-18.08758" lon="-69.01261">
        <ele>4366</ele>
        <time>2025-10-14T19:19:08Z</time>
      </trkpt>
      <trkpt lat="-18.0876" lon="-69.01224">
        <ele>4367</ele>
        <time>2025-10-14T19:19:40Z</time>
      </trkpt>
      <trkpt lat="-18.08759" lon="-69.01221">
        <ele>4367</ele>
        <time>2025-10-14T19:19:44Z</time>
      </trkpt>
      <trkpt lat="-18.08759" lon="-69.01196">
        <ele>4368</ele>
        <time>2025-10-14T19:20:10Z</time>
      </trkpt>
      <trkpt lat="-18.08765" lon="-69.01174">
        <ele>4369</ele>
        <time>2025-10-14T19:20:30Z</time>
      </trkpt>
      <trkpt lat="-18.0877" lon="-69.01149">
        <ele>4370</ele>
        <time>2025-10-14T19:20:54Z</time>
      </trkpt>
      <trkpt lat="-18.08776" lon="-69.01136">
        <ele>4370</ele>
        <time>2025-10-14T19:21:06Z</time>
      </trkpt>
      <trkpt lat="-18.08776" lon="-69.01132">
        <ele>4370</ele>
        <time>2025-10-14T19:21:12Z</time>
      </trkpt>
      <trkpt lat="-18.08786" lon="-69.01102">
        <ele>4369</ele>
        <time>2025-10-14T19:21:42Z</time>
      </trkpt>
      <trkpt lat="-18.08787" lon="-69.01097">
        <ele>4369</ele>
        <time>2025-10-14T19:21:46Z</time>
      </trkpt>
      <trkpt lat="-18.08797" lon="-69.01074">
        <ele>4368</ele>
        <time>2025-10-14T19:22:06Z</time>
      </trkpt>
      <trkpt lat="-18.088" lon="-69.0107">
        <ele>4368</ele>
        <time>2025-10-14T19:22:10Z</time>
      </trkpt>
      <trkpt lat="-18.08817" lon="-69.01034">
        <ele>4364</ele>
        <time>2025-10-14T19:22:42Z</time>
      </trkpt>
      <trkpt lat="-18.08824" lon="-69.01015">
        <ele>4363</ele>
        <time>2025-10-14T19:22:58Z</time>
      </trkpt>
      <trkpt lat="-18.08827" lon="-69.00999">
        <ele>4363</ele>
        <time>2025-10-14T19:23:10Z</time>
      </trkpt>
      <trkpt lat="-18.08827" lon="-69.00983">
        <ele>4362</ele>
        <time>2025-10-14T19:23:22Z</time>
      </trkpt>
      <trkpt lat="-18.08828" lon="-69.00978">
        <ele>4362</ele>
        <time>2025-10-14T19:23:26Z</time>
      </trkpt>
      <trkpt lat="-18.08824" lon="-69.00976">
        <ele>4362</ele>
        <time>2025-10-14T19:23:32Z</time>
      </trkpt>
      <trkpt lat="-18.08833" lon="-69.00945">
        <ele>4361</ele>
        <time>2025-10-14T19:23:56Z</time>
      </trkpt>
      <trkpt lat="-18.08849" lon="-69.00909">
        <ele>4360</ele>
        <time>2025-10-14T19:24:28Z</time>
      </trkpt>
      <trkpt lat="-18.08856" lon="-69.00895">
        <ele>4360</ele>
        <time>2025-10-14T19:24:40Z</time>
      </trkpt>
      <trkpt lat="-18.08866" lon="-69.00884">
        <ele>4358</ele>
        <time>2025-10-14T19:24:52Z</time>
      </trkpt>
      <trkpt lat="-18.08881" lon="-69.00846">
        <ele>4358</ele>
        <time>2025-10-14T19:25:24Z</time>
      </trkpt>
      <trkpt lat="-18.08892" lon="-69.00813">
        <ele>4359</ele>
        <time>2025-10-14T19:25:52Z</time>
      </trkpt>
      <trkpt lat="-18.08895" lon="-69.00774">
        <ele>4361</ele>
        <time>2025-10-14T19:26:24Z</time>
      </trkpt>
      <trkpt lat="-18.08899" lon="-69.00739">
        <ele>4364</ele>
        <time>2025-10-14T19:26:56Z</time>
      </trkpt>
      <trkpt lat="-18.08899" lon="-69.00736">
        <ele>4364</ele>
        <time>2025-10-14T19:27:00Z</time>
      </trkpt>
      <trkpt lat="-18.08896" lon="-69.00733">
        <ele>4365</ele>
        <time>2025-10-14T19:27:04Z</time>
      </trkpt>
      <trkpt lat="-18.08899" lon="-69.00716">
        <ele>4366</ele>
        <time>2025-10-14T19:27:24Z</time>
      </trkpt>
      <trkpt lat="-18.08907" lon="-69.00684">
        <ele>4368</ele>
        <time>2025-10-14T19:27:56Z</time>
      </trkpt>
      <trkpt lat="-18.08911" lon="-69.00666">
        <ele>4368</ele>
        <time>2025-10-14T19:28:12Z</time>
      </trkpt>
      <trkpt lat="-18.08914" lon="-69.00648">
        <ele>4368</ele>
        <time>2025-10-14T19:28:28Z</time>
      </trkpt>
      <trkpt lat="-18.08916" lon="-69.00634">
        <ele>4367</ele>
        <time>2025-10-14T19:28:40Z</time>
      </trkpt>
      <trkpt lat="-18.08918" lon="-69.00612">
        <ele>4366</ele>
        <time>2025-10-14T19:29:00Z</time>
      </trkpt>
      <trkpt lat="-18.08919" lon="-69.00604">
        <ele>4366</ele>
        <time>2025-10-14T19:29:08Z</time>
      </trkpt>
      <trkpt lat="-18.08922" lon="-69.00582">
        <ele>4366</ele>
        <time>2025-10-14T19:29:28Z</time>
      </trkpt>
      <trkpt lat="-18.08921" lon="-69.00577">
        <ele>4366</ele>
        <time>2025-10-14T19:29:32Z</time>
      </trkpt>
      <trkpt lat="-18.08926" lon="-69.0056">
        <ele>4367</ele>
        <time>2025-10-14T19:29:48Z</time>
      </trkpt>
      <trkpt lat="-18.08932" lon="-69.00525">
        <ele>4366</ele>
        <time>2025-10-14T19:30:20Z</time>
      </trkpt>
      <trkpt lat="-18.0894" lon="-69.00488">
        <ele>4365</ele>
        <time>2025-10-14T19:30:52Z</time>
      </trkpt>
      <trkpt lat="-18.08947" lon="-69.00453">
        <ele>4365</ele>
        <time>2025-10-14T19:31:24Z</time>
      </trkpt>
      <trkpt lat="-18.08951" lon="-69.0042">
        <ele>4365</ele>
        <time>2025-10-14T19:31:54Z</time>
      </trkpt>
      <trkpt lat="-18.08956" lon="-69.00386">
        <ele>4363</ele>
        <time>2025-10-14T19:32:26Z</time>
      </trkpt>
      <trkpt lat="-18.08958" lon="-69.00374">
        <ele>4363</ele>
        <time>2025-10-14T19:32:38Z</time>
      </trkpt>
      <trkpt lat="-18.08958" lon="-69.00366">
        <ele>4363</ele>
        <time>2025-10-14T19:32:46Z</time>
      </trkpt>
      <trkpt lat="-18.0896" lon="-69.00335">
        <ele>4361</ele>
        <time>2025-10-14T19:33:18Z</time>
      </trkpt>
      <trkpt lat="-18.08961" lon="-69.00304">
        <ele>4360</ele>
        <time>2025-10-14T19:33:50Z</time>
      </trkpt>
      <trkpt lat="-18.08962" lon="-69.00271">
        <ele>4359</ele>
        <time>2025-10-14T19:34:22Z</time>
      </trkpt>
      <trkpt lat="-18.08961" lon="-69.00268">
        <ele>4360</ele>
        <time>2025-10-14T19:34:26Z</time>
      </trkpt>
      <trkpt lat="-18.08961" lon="-69.00255">
        <ele>4361</ele>
        <time>2025-10-14T19:34:56Z</time>
      </trkpt>
      <trkpt lat="-18.08959" lon="-69.00222">
        <ele>4359</ele>
        <time>2025-10-14T19:35:28Z</time>
      </trkpt>
      <trkpt lat="-18.08958" lon="-69.00202">
        <ele>4359</ele>
        <time>2025-10-14T19:35:44Z</time>
      </trkpt>
      <trkpt lat="-18.08958" lon="-69.00197">
        <ele>4359</ele>
        <time>2025-10-14T19:35:48Z</time>
      </trkpt>
      <trkpt lat="-18.08958" lon="-69.00162">
        <ele>4358</ele>
        <time>2025-10-14T19:36:16Z</time>
      </trkpt>
      <trkpt lat="-18.08959" lon="-69.00157">
        <ele>4358</ele>
        <time>2025-10-14T19:36:20Z</time>
      </trkpt>
      <trkpt lat="-18.08962" lon="-69.00116">
        <ele>4358</ele>
        <time>2025-10-14T19:36:52Z</time>
      </trkpt>
      <trkpt lat="-18.08963" lon="-69.00075">
        <ele>4357</ele>
        <time>2025-10-14T19:37:24Z</time>
      </trkpt>
      <trkpt lat="-18.08963" lon="-69.00065">
        <ele>4357</ele>
        <time>2025-10-14T19:37:32Z</time>
      </trkpt>
      <trkpt lat="-18.08964" lon="-69.00034">
        <ele>4358</ele>
        <time>2025-10-14T19:37:56Z</time>
      </trkpt>
      <trkpt lat="-18.08964" lon="-69.00028">
        <ele>4358</ele>
        <time>2025-10-14T19:38:00Z</time>
      </trkpt>
      <trkpt lat="-18.08967" lon="-68.99988">
        <ele>4358</ele>
        <time>2025-10-14T19:38:32Z</time>
      </trkpt>
      <trkpt lat="-18.08971" lon="-68.99945">
        <ele>4354</ele>
        <time>2025-10-14T19:39:06Z</time>
      </trkpt>
      <trkpt lat="-18.08973" lon="-68.99903">
        <ele>4352</ele>
        <time>2025-10-14T19:39:38Z</time>
      </trkpt>
      <trkpt lat="-18.08972" lon="-68.99867">
        <ele>4353</ele>
        <time>2025-10-14T19:40:06Z</time>
      </trkpt>
      <trkpt lat="-18.08971" lon="-68.99852">
        <ele>4353</ele>
        <time>2025-10-14T19:40:18Z</time>
      </trkpt>
      <trkpt lat="-18.08974" lon="-68.99809">
        <ele>4350</ele>
        <time>2025-10-14T19:40:50Z</time>
      </trkpt>
      <trkpt lat="-18.08976" lon="-68.99768">
        <ele>4349</ele>
        <time>2025-10-14T19:41:22Z</time>
      </trkpt>
      <trkpt lat="-18.08979" lon="-68.99729">
        <ele>4349</ele>
        <time>2025-10-14T19:41:54Z</time>
      </trkpt>
      <trkpt lat="-18.0898" lon="-68.99704">
        <ele>4349</ele>
        <time>2025-10-14T19:42:14Z</time>
      </trkpt>
      <trkpt lat="-18.08982" lon="-68.99699">
        <ele>4348</ele>
        <time>2025-10-14T19:42:18Z</time>
      </trkpt>
      <trkpt lat="-18.08988" lon="-68.99665">
        <ele>4347</ele>
        <time>2025-10-14T19:42:46Z</time>
      </trkpt>
      <trkpt lat="-18.09005" lon="-68.99627">
        <ele>4346</ele>
        <time>2025-10-14T19:43:18Z</time>
      </trkpt>
      <trkpt lat="-18.09012" lon="-68.99616">
        <ele>4346</ele>
        <time>2025-10-14T19:43:30Z</time>
      </trkpt>
      <trkpt lat="-18.0901" lon="-68.99612">
        <ele>4346</ele>
        <time>2025-10-14T19:43:42Z</time>
      </trkpt>
      <trkpt lat="-18.09015" lon="-68.99581">
        <ele>4345</ele>
        <time>2025-10-14T19:44:06Z</time>
      </trkpt>
      <trkpt lat="-18.09018" lon="-68.99552">
        <ele>4345</ele>
        <time>2025-10-14T19:44:30Z</time>
      </trkpt>
      <trkpt lat="-18.09019" lon="-68.99546">
        <ele>4345</ele>
        <time>2025-10-14T19:44:34Z</time>
      </trkpt>
      <trkpt lat="-18.09016" lon="-68.99514">
        <ele>4344</ele>
        <time>2025-10-14T19:45:02Z</time>
      </trkpt>
      <trkpt lat="-18.09014" lon="-68.99511">
        <ele>4344</ele>
        <time>2025-10-14T19:45:06Z</time>
      </trkpt>
      <trkpt lat="-18.0901" lon="-68.99478">
        <ele>4342</ele>
        <time>2025-10-14T19:45:34Z</time>
      </trkpt>
      <trkpt lat="-18.08998" lon="-68.99448">
        <ele>4340</ele>
        <time>2025-10-14T19:46:04Z</time>
      </trkpt>
      <trkpt lat="-18.08993" lon="-68.99437">
        <ele>4338</ele>
        <time>2025-10-14T19:46:16Z</time>
      </trkpt>
      <trkpt lat="-18.08989" lon="-68.99437">
        <ele>4339</ele>
        <time>2025-10-14T19:46:24Z</time>
      </trkpt>
      <trkpt lat="-18.08972" lon="-68.99403">
        <ele>4335</ele>
        <time>2025-10-14T19:46:56Z</time>
      </trkpt>
      <trkpt lat="-18.08966" lon="-68.99392">
        <ele>4332</ele>
        <time>2025-10-14T19:47:08Z</time>
      </trkpt>
      <trkpt lat="-18.08964" lon="-68.99386">
        <ele>4332</ele>
        <time>2025-10-14T19:47:12Z</time>
      </trkpt>
      <trkpt lat="-18.08959" lon="-68.99378">
        <ele>4331</ele>
        <time>2025-10-14T19:47:22Z</time>
      </trkpt>
      <trkpt lat="-18.08956" lon="-68.99375">
        <ele>4331</ele>
        <time>2025-10-14T19:47:26Z</time>
      </trkpt>
      <trkpt lat="-18.08946" lon="-68.99358">
        <ele>4330</ele>
        <time>2025-10-14T19:47:46Z</time>
      </trkpt>
      <trkpt lat="-18.08944" lon="-68.99353">
        <ele>4329</ele>
        <time>2025-10-14T19:47:50Z</time>
      </trkpt>
      <trkpt lat="-18.08941" lon="-68.99344">
        <ele>4329</ele>
        <time>2025-10-14T19:47:58Z</time>
      </trkpt>
      <trkpt lat="-18.08938" lon="-68.99336">
        <ele>4328</ele>
        <time>2025-10-14T19:48:06Z</time>
      </trkpt>
      <trkpt lat="-18.08935" lon="-68.99334">
        <ele>4328</ele>
        <time>2025-10-14T19:48:10Z</time>
      </trkpt>
      <trkpt lat="-18.08931" lon="-68.99334">
        <ele>4328</ele>
        <time>2025-10-14T19:48:14Z</time>
      </trkpt>
      <trkpt lat="-18.08924" lon="-68.9933">
        <ele>4328</ele>
        <time>2025-10-14T19:48:26Z</time>
      </trkpt>
      <trkpt lat="-18.08921" lon="-68.99329">
        <ele>4327</ele>
        <time>2025-10-14T19:48:34Z</time>
      </trkpt>
      <trkpt lat="-18.08918" lon="-68.99329">
        <ele>4327</ele>
        <time>2025-10-14T19:48:38Z</time>
      </trkpt>
      <trkpt lat="-18.08913" lon="-68.99329">
        <ele>4326</ele>
        <time>2025-10-14T19:48:42Z</time>
      </trkpt>
      <trkpt lat="-18.08896" lon="-68.99334">
        <ele>4326</ele>
        <time>2025-10-14T19:48:58Z</time>
      </trkpt>
      <trkpt lat="-18.08892" lon="-68.99334">
        <ele>4325</ele>
        <time>2025-10-14T19:49:02Z</time>
      </trkpt>
      <trkpt lat="-18.08889" lon="-68.99331">
        <ele>4325</ele>
        <time>2025-10-14T19:49:06Z</time>
      </trkpt>
      <trkpt lat="-18.08887" lon="-68.99327">
        <ele>4324</ele>
        <time>2025-10-14T19:49:10Z</time>
      </trkpt>
      <trkpt lat="-18.08886" lon="-68.99323">
        <ele>4324</ele>
        <time>2025-10-14T19:49:14Z</time>
      </trkpt>
      <trkpt lat="-18.08887" lon="-68.99319">
        <ele>4323</ele>
        <time>2025-10-14T19:49:20Z</time>
      </trkpt>
      <trkpt lat="-18.08885" lon="-68.99315">
        <ele>4323</ele>
        <time>2025-10-14T19:49:26Z</time>
      </trkpt>
      <trkpt lat="-18.08881" lon="-68.99313">
        <ele>4323</ele>
        <time>2025-10-14T19:49:30Z</time>
      </trkpt>
      <trkpt lat="-18.08881" lon="-68.99308">
        <ele>4323</ele>
        <time>2025-10-14T19:49:34Z</time>
      </trkpt>
      <trkpt lat="-18.0888" lon="-68.993">
        <ele>4322</ele>
        <time>2025-10-14T19:49:42Z</time>
      </trkpt>
      <trkpt lat="-18.08879" lon="-68.99296">
        <ele>4323</ele>
        <time>2025-10-14T19:49:46Z</time>
      </trkpt>
      <trkpt lat="-18.08878" lon="-68.99293">
        <ele>4323</ele>
        <time>2025-10-14T19:49:50Z</time>
      </trkpt>
      <trkpt lat="-18.08876" lon="-68.9929">
        <ele>4323</ele>
        <time>2025-10-14T19:49:54Z</time>
      </trkpt>
      <trkpt lat="-18.08874" lon="-68.99271">
        <ele>4323</ele>
        <time>2025-10-14T19:50:24Z</time>
      </trkpt>
      <trkpt lat="-18.08874" lon="-68.99267">
        <ele>4323</ele>
        <time>2025-10-14T19:50:30Z</time>
      </trkpt>
      <trkpt lat="-18.08882" lon="-68.99236">
        <ele>4322</ele>
        <time>2025-10-14T19:51:02Z</time>
      </trkpt>
      <trkpt lat="-18.08887" lon="-68.99215">
        <ele>4322</ele>
        <time>2025-10-14T19:51:36Z</time>
      </trkpt>
      <trkpt lat="-18.08891" lon="-68.99198">
        <ele>4321</ele>
        <time>2025-10-14T19:51:58Z</time>
      </trkpt>
      <trkpt lat="-18.08893" lon="-68.99195">
        <ele>4322</ele>
        <time>2025-10-14T19:52:02Z</time>
      </trkpt>
      <trkpt lat="-18.08897" lon="-68.99192">
        <ele>4320</ele>
        <time>2025-10-14T19:52:42Z</time>
      </trkpt>
      <trkpt lat="-18.089" lon="-68.99179">
        <ele>4321</ele>
        <time>2025-10-14T19:52:54Z</time>
      </trkpt>
      <trkpt lat="-18.08898" lon="-68.99176">
        <ele>4321</ele>
        <time>2025-10-14T19:53:00Z</time>
      </trkpt>
      <trkpt lat="-18.08902" lon="-68.99174">
        <ele>4320</ele>
        <time>2025-10-14T19:53:06Z</time>
      </trkpt>
      <trkpt lat="-18.08917" lon="-68.99139">
        <ele>4320</ele>
        <time>2025-10-14T19:53:38Z</time>
      </trkpt>
      <trkpt lat="-18.0892" lon="-68.99134">
        <ele>4320</ele>
        <time>2025-10-14T19:53:42Z</time>
      </trkpt>
      <trkpt lat="-18.08922" lon="-68.99135">
        <ele>4320</ele>
        <time>2025-10-14T19:53:52Z</time>
      </trkpt>
      <trkpt lat="-18.08929" lon="-68.99119">
        <ele>4319</ele>
        <time>2025-10-14T19:54:26Z</time>
      </trkpt>
      <trkpt lat="-18.0894" lon="-68.99087">
        <ele>4318</ele>
        <time>2025-10-14T19:54:58Z</time>
      </trkpt>
      <trkpt lat="-18.08947" lon="-68.99068">
        <ele>4317</ele>
        <time>2025-10-14T19:55:14Z</time>
      </trkpt>
      <trkpt lat="-18.0896" lon="-68.9903">
        <ele>4315</ele>
        <time>2025-10-14T19:55:46Z</time>
      </trkpt>
      <trkpt lat="-18.08974" lon="-68.98989">
        <ele>4315</ele>
        <time>2025-10-14T19:56:18Z</time>
      </trkpt>
      <trkpt lat="-18.08986" lon="-68.98949">
        <ele>4315</ele>
        <time>2025-10-14T19:56:50Z</time>
      </trkpt>
      <trkpt lat="-18.08999" lon="-68.98915">
        <ele>4314</ele>
        <time>2025-10-14T19:57:20Z</time>
      </trkpt>
      <trkpt lat="-18.09013" lon="-68.98877">
        <ele>4313</ele>
        <time>2025-10-14T19:57:52Z</time>
      </trkpt>
      <trkpt lat="-18.09027" lon="-68.98838">
        <ele>4312</ele>
        <time>2025-10-14T19:58:24Z</time>
      </trkpt>
      <trkpt lat="-18.09042" lon="-68.988">
        <ele>4310</ele>
        <time>2025-10-14T19:58:56Z</time>
      </trkpt>
      <trkpt lat="-18.09056" lon="-68.98764">
        <ele>4310</ele>
        <time>2025-10-14T19:59:28Z</time>
      </trkpt>
      <trkpt lat="-18.09072" lon="-68.98729">
        <ele>4311</ele>
        <time>2025-10-14T20:00:00Z</time>
      </trkpt>
      <trkpt lat="-18.09089" lon="-68.98694">
        <ele>4311</ele>
        <time>2025-10-14T20:00:32Z</time>
      </trkpt>
      <trkpt lat="-18.09094" lon="-68.98679">
        <ele>4311</ele>
        <time>2025-10-14T20:00:44Z</time>
      </trkpt>
      <trkpt lat="-18.09099" lon="-68.98638">
        <ele>4311</ele>
        <time>2025-10-14T20:01:16Z</time>
      </trkpt>
      <trkpt lat="-18.091" lon="-68.98617">
        <ele>4310</ele>
        <time>2025-10-14T20:01:32Z</time>
      </trkpt>
      <trkpt lat="-18.09106" lon="-68.98578">
        <ele>4308</ele>
        <time>2025-10-14T20:02:04Z</time>
      </trkpt>
      <trkpt lat="-18.09115" lon="-68.9854">
        <ele>4306</ele>
        <time>2025-10-14T20:02:36Z</time>
      </trkpt>
      <trkpt lat="-18.0912" lon="-68.98513">
        <ele>4307</ele>
        <time>2025-10-14T20:03:00Z</time>
      </trkpt>
      <trkpt lat="-18.09121" lon="-68.98499">
        <ele>4307</ele>
        <time>2025-10-14T20:03:12Z</time>
      </trkpt>
      <trkpt lat="-18.09118" lon="-68.98495">
        <ele>4307</ele>
        <time>2025-10-14T20:03:16Z</time>
      </trkpt>
      <trkpt lat="-18.09117" lon="-68.98486">
        <ele>4306</ele>
        <time>2025-10-14T20:03:24Z</time>
      </trkpt>
      <trkpt lat="-18.09114" lon="-68.98484">
        <ele>4306</ele>
        <time>2025-10-14T20:03:28Z</time>
      </trkpt>
      <trkpt lat="-18.0911" lon="-68.98486">
        <ele>4307</ele>
        <time>2025-10-14T20:03:30Z</time>
      </trkpt>
      <trkpt lat="-18.09115" lon="-68.9849">
        <ele>4307</ele>
        <time>2025-10-14T20:03:32Z</time>
      </trkpt>
      <trkpt lat="-18.09117" lon="-68.98485">
        <ele>4307</ele>
        <time>2025-10-14T20:03:34Z</time>
      </trkpt>
      <trkpt lat="-18.09116" lon="-68.98477">
        <ele>4307</ele>
        <time>2025-10-14T20:03:38Z</time>
      </trkpt>
      <trkpt lat="-18.09117" lon="-68.98449">
        <ele>4307</ele>
        <time>2025-10-14T20:03:58Z</time>
      </trkpt>
      <trkpt lat="-18.09117" lon="-68.98443">
        <ele>4306</ele>
        <time>2025-10-14T20:04:02Z</time>
      </trkpt>
      <trkpt lat="-18.09115" lon="-68.98438">
        <ele>4306</ele>
        <time>2025-10-14T20:04:06Z</time>
      </trkpt>
      <trkpt lat="-18.09115" lon="-68.98433">
        <ele>4304</ele>
        <time>2025-10-14T20:04:12Z</time>
      </trkpt>
      <trkpt lat="-18.09116" lon="-68.98393">
        <ele>4304</ele>
        <time>2025-10-14T20:04:44Z</time>
      </trkpt>
      <trkpt lat="-18.09119" lon="-68.98352">
        <ele>4305</ele>
        <time>2025-10-14T20:05:16Z</time>
      </trkpt>
      <trkpt lat="-18.09119" lon="-68.9831">
        <ele>4306</ele>
        <time>2025-10-14T20:05:48Z</time>
      </trkpt>
      <trkpt lat="-18.09119" lon="-68.98295">
        <ele>4306</ele>
        <time>2025-10-14T20:06:00Z</time>
      </trkpt>
      <trkpt lat="-18.09126" lon="-68.98255">
        <ele>4305</ele>
        <time>2025-10-14T20:06:32Z</time>
      </trkpt>
      <trkpt lat="-18.09126" lon="-68.98251">
        <ele>4304</ele>
        <time>2025-10-14T20:06:34Z</time>
      </trkpt>
      <trkpt lat="-18.09127" lon="-68.98247">
        <ele>4304</ele>
        <time>2025-10-14T20:06:38Z</time>
      </trkpt>
      <trkpt lat="-18.09127" lon="-68.98245">
        <ele>4303</ele>
        <time>2025-10-14T20:06:46Z</time>
      </trkpt>
      <trkpt lat="-18.0913" lon="-68.9823">
        <ele>4305</ele>
        <time>2025-10-14T20:07:18Z</time>
      </trkpt>
      <trkpt lat="-18.09137" lon="-68.98185">
        <ele>4304</ele>
        <time>2025-10-14T20:07:50Z</time>
      </trkpt>
      <trkpt lat="-18.0914" lon="-68.98175">
        <ele>4304</ele>
        <time>2025-10-14T20:07:58Z</time>
      </trkpt>
      <trkpt lat="-18.09139" lon="-68.98171">
        <ele>4304</ele>
        <time>2025-10-14T20:08:02Z</time>
      </trkpt>
      <trkpt lat="-18.09146" lon="-68.98152">
        <ele>4303</ele>
        <time>2025-10-14T20:08:20Z</time>
      </trkpt>
      <trkpt lat="-18.09155" lon="-68.98138">
        <ele>4302</ele>
        <time>2025-10-14T20:08:32Z</time>
      </trkpt>
      <trkpt lat="-18.09165" lon="-68.98095">
        <ele>4300</ele>
        <time>2025-10-14T20:09:04Z</time>
      </trkpt>
      <trkpt lat="-18.09175" lon="-68.9807">
        <ele>4301</ele>
        <time>2025-10-14T20:09:24Z</time>
      </trkpt>
      <trkpt lat="-18.09177" lon="-68.98066">
        <ele>4301</ele>
        <time>2025-10-14T20:09:28Z</time>
      </trkpt>
      <trkpt lat="-18.0918" lon="-68.98061">
        <ele>4301</ele>
        <time>2025-10-14T20:09:32Z</time>
      </trkpt>
      <trkpt lat="-18.09185" lon="-68.98052">
        <ele>4302</ele>
        <time>2025-10-14T20:09:40Z</time>
      </trkpt>
      <trkpt lat="-18.09188" lon="-68.98048">
        <ele>4302</ele>
        <time>2025-10-14T20:09:44Z</time>
      </trkpt>
      <trkpt lat="-18.09193" lon="-68.98039">
        <ele>4302</ele>
        <time>2025-10-14T20:09:52Z</time>
      </trkpt>
      <trkpt lat="-18.09225" lon="-68.98013">
        <ele>4301</ele>
        <time>2025-10-14T20:10:24Z</time>
      </trkpt>
      <trkpt lat="-18.09262" lon="-68.97992">
        <ele>4299</ele>
        <time>2025-10-14T20:10:56Z</time>
      </trkpt>
      <trkpt lat="-18.09266" lon="-68.9799">
        <ele>4300</ele>
        <time>2025-10-14T20:11:00Z</time>
      </trkpt>
      <trkpt lat="-18.09273" lon="-68.97992">
        <ele>4300</ele>
        <time>2025-10-14T20:11:08Z</time>
      </trkpt>
      <trkpt lat="-18.09277" lon="-68.97991">
        <ele>4301</ele>
        <time>2025-10-14T20:11:12Z</time>
      </trkpt>
      <trkpt lat="-18.09281" lon="-68.97989">
        <ele>4301</ele>
        <time>2025-10-14T20:11:18Z</time>
      </trkpt>
      <trkpt lat="-18.09284" lon="-68.97984">
        <ele>4300</ele>
        <time>2025-10-14T20:11:30Z</time>
      </trkpt>
      <trkpt lat="-18.09282" lon="-68.97981">
        <ele>4300</ele>
        <time>2025-10-14T20:11:34Z</time>
      </trkpt>
      <trkpt lat="-18.09283" lon="-68.97977">
        <ele>4299</ele>
        <time>2025-10-14T20:11:38Z</time>
      </trkpt>
      <trkpt lat="-18.09283" lon="-68.97972">
        <ele>4299</ele>
        <time>2025-10-14T20:11:42Z</time>
      </trkpt>
      <trkpt lat="-18.09283" lon="-68.97962">
        <ele>4299</ele>
        <time>2025-10-14T20:11:50Z</time>
      </trkpt>
      <trkpt lat="-18.09279" lon="-68.97958">
        <ele>4299</ele>
        <time>2025-10-14T20:11:54Z</time>
      </trkpt>
      <trkpt lat="-18.09279" lon="-68.97954">
        <ele>4298</ele>
        <time>2025-10-14T20:11:58Z</time>
      </trkpt>
      <trkpt lat="-18.09281" lon="-68.97951">
        <ele>4298</ele>
        <time>2025-10-14T20:12:02Z</time>
      </trkpt>
      <trkpt lat="-18.09285" lon="-68.97948">
        <ele>4298</ele>
        <time>2025-10-14T20:12:08Z</time>
      </trkpt>
      <trkpt lat="-18.09287" lon="-68.97941">
        <ele>4297</ele>
        <time>2025-10-14T20:12:18Z</time>
      </trkpt>
      <trkpt lat="-18.09287" lon="-68.97936">
        <ele>4296</ele>
        <time>2025-10-14T20:12:24Z</time>
      </trkpt>
      <trkpt lat="-18.09287" lon="-68.97927">
        <ele>4295</ele>
        <time>2025-10-14T20:12:36Z</time>
      </trkpt>
      <trkpt lat="-18.09286" lon="-68.97924">
        <ele>4295</ele>
        <time>2025-10-14T20:12:40Z</time>
      </trkpt>
      <trkpt lat="-18.09284" lon="-68.97919">
        <ele>4294</ele>
        <time>2025-10-14T20:12:46Z</time>
      </trkpt>
      <trkpt lat="-18.09292" lon="-68.97909">
        <ele>4293</ele>
        <time>2025-10-14T20:13:02Z</time>
      </trkpt>
      <trkpt lat="-18.09293" lon="-68.97906">
        <ele>4293</ele>
        <time>2025-10-14T20:13:06Z</time>
      </trkpt>
      <trkpt lat="-18.09296" lon="-68.97903">
        <ele>4293</ele>
        <time>2025-10-14T20:13:10Z</time>
      </trkpt>
      <trkpt lat="-18.09291" lon="-68.979">
        <ele>4293</ele>
        <time>2025-10-14T20:14:08Z</time>
      </trkpt>
      <trkpt lat="-18.09288" lon="-68.97897">
        <ele>4292</ele>
        <time>2025-10-14T20:14:12Z</time>
      </trkpt>
      <trkpt lat="-18.09283" lon="-68.97897">
        <ele>4291</ele>
        <time>2025-10-14T20:14:24Z</time>
      </trkpt>
      <trkpt lat="-18.09279" lon="-68.97898">
        <ele>4292</ele>
        <time>2025-10-14T20:14:28Z</time>
      </trkpt>
      <trkpt lat="-18.09274" lon="-68.97899">
        <ele>4292</ele>
        <time>2025-10-14T20:14:32Z</time>
      </trkpt>
      <trkpt lat="-18.0927" lon="-68.97901">
        <ele>4292</ele>
        <time>2025-10-14T20:14:36Z</time>
      </trkpt>
      <trkpt lat="-18.09268" lon="-68.97904">
        <ele>4293</ele>
        <time>2025-10-14T20:14:42Z</time>
      </trkpt>
      <trkpt lat="-18.09251" lon="-68.97912">
        <ele>4295</ele>
        <time>2025-10-14T20:15:04Z</time>
      </trkpt>
      <trkpt lat="-18.09232" lon="-68.97913">
        <ele>4294</ele>
        <time>2025-10-14T20:15:22Z</time>
      </trkpt>
      <trkpt lat="-18.09219" lon="-68.97917">
        <ele>4294</ele>
        <time>2025-10-14T20:15:36Z</time>
      </trkpt>
      <trkpt lat="-18.09205" lon="-68.97915">
        <ele>4292</ele>
        <time>2025-10-14T20:15:52Z</time>
      </trkpt>
      <trkpt lat="-18.09192" lon="-68.97915">
        <ele>4290</ele>
        <time>2025-10-14T20:16:04Z</time>
      </trkpt>
      <trkpt lat="-18.09188" lon="-68.97914">
        <ele>4290</ele>
        <time>2025-10-14T20:16:08Z</time>
      </trkpt>
      <trkpt lat="-18.09174" lon="-68.97913">
        <ele>4290</ele>
        <time>2025-10-14T20:16:20Z</time>
      </trkpt>
      <trkpt lat="-18.09166" lon="-68.97916">
        <ele>4289</ele>
        <time>2025-10-14T20:16:28Z</time>
      </trkpt>
      <trkpt lat="-18.09161" lon="-68.97916">
        <ele>4290</ele>
        <time>2025-10-14T20:16:32Z</time>
      </trkpt>
      <trkpt lat="-18.09151" lon="-68.97909">
        <ele>4289</ele>
        <time>2025-10-14T20:16:44Z</time>
      </trkpt>
      <trkpt lat="-18.09143" lon="-68.97909">
        <ele>4289</ele>
        <time>2025-10-14T20:16:52Z</time>
      </trkpt>
      <trkpt lat="-18.09127" lon="-68.97905">
        <ele>4288</ele>
        <time>2025-10-14T20:17:08Z</time>
      </trkpt>
      <trkpt lat="-18.09114" lon="-68.97881">
        <ele>4288</ele>
        <time>2025-10-14T20:17:32Z</time>
      </trkpt>
      <trkpt lat="-18.09112" lon="-68.97877">
        <ele>4288</ele>
        <time>2025-10-14T20:17:36Z</time>
      </trkpt>
      <trkpt lat="-18.09109" lon="-68.97875">
        <ele>4288</ele>
        <time>2025-10-14T20:17:40Z</time>
      </trkpt>
      <trkpt lat="-18.09106" lon="-68.97872">
        <ele>4287</ele>
        <time>2025-10-14T20:17:44Z</time>
      </trkpt>
      <trkpt lat="-18.09103" lon="-68.97864">
        <ele>4286</ele>
        <time>2025-10-14T20:17:52Z</time>
      </trkpt>
      <trkpt lat="-18.091" lon="-68.97861">
        <ele>4286</ele>
        <time>2025-10-14T20:17:56Z</time>
      </trkpt>
      <trkpt lat="-18.09098" lon="-68.97858">
        <ele>4286</ele>
        <time>2025-10-14T20:18:00Z</time>
      </trkpt>
      <trkpt lat="-18.09094" lon="-68.97854">
        <ele>4287</ele>
        <time>2025-10-14T20:18:06Z</time>
      </trkpt>
      <trkpt lat="-18.09093" lon="-68.97851">
        <ele>4288</ele>
        <time>2025-10-14T20:18:12Z</time>
      </trkpt>
      <trkpt lat="-18.09091" lon="-68.97847">
        <ele>4290</ele>
        <time>2025-10-14T20:19:02Z</time>
      </trkpt>
      <trkpt lat="-18.09089" lon="-68.97843">
        <ele>4291</ele>
        <time>2025-10-14T20:19:08Z</time>
      </trkpt>
      <trkpt lat="-18.09081" lon="-68.97843">
        <ele>4290</ele>
        <time>2025-10-14T20:19:22Z</time>
      </trkpt>
      <trkpt lat="-18.09077" lon="-68.97843">
        <ele>4290</ele>
        <time>2025-10-14T20:19:26Z</time>
      </trkpt>
      <trkpt lat="-18.09073" lon="-68.9785">
        <ele>4291</ele>
        <time>2025-10-14T20:19:38Z</time>
      </trkpt>
      <trkpt lat="-18.09072" lon="-68.97854">
        <ele>4292</ele>
        <time>2025-10-14T20:19:44Z</time>
      </trkpt>
      <trkpt lat="-18.09071" lon="-68.97853">
        <ele>4291</ele>
        <time>2025-10-14T20:20:50Z</time>
      </trkpt>
      <trkpt lat="-18.0907" lon="-68.97849">
        <ele>4290</ele>
        <time>2025-10-14T20:20:54Z</time>
      </trkpt>
      <trkpt lat="-18.09073" lon="-68.97836">
        <ele>4293</ele>
        <time>2025-10-14T20:21:18Z</time>
      </trkpt>
      <trkpt lat="-18.09073" lon="-68.97832">
        <ele>4294</ele>
        <time>2025-10-14T20:21:22Z</time>
      </trkpt>
      <trkpt lat="-18.09073" lon="-68.97828">
        <ele>4294</ele>
        <time>2025-10-14T20:21:26Z</time>
      </trkpt>
      <trkpt lat="-18.09066" lon="-68.97813">
        <ele>4293</ele>
        <time>2025-10-14T20:21:48Z</time>
      </trkpt>
      <trkpt lat="-18.09063" lon="-68.97811">
        <ele>4293</ele>
        <time>2025-10-14T20:22:08Z</time>
      </trkpt>
      <trkpt lat="-18.09061" lon="-68.97807">
        <ele>4294</ele>
        <time>2025-10-14T20:22:20Z</time>
      </trkpt>
      <trkpt lat="-18.09057" lon="-68.97804">
        <ele>4294</ele>
        <time>2025-10-14T20:22:26Z</time>
      </trkpt>
      <trkpt lat="-18.09053" lon="-68.97803">
        <ele>4294</ele>
        <time>2025-10-14T20:22:32Z</time>
      </trkpt>
      <trkpt lat="-18.09046" lon="-68.97797">
        <ele>4294</ele>
        <time>2025-10-14T20:22:44Z</time>
      </trkpt>
      <trkpt lat="-18.09043" lon="-68.97797">
        <ele>4294</ele>
        <time>2025-10-14T20:22:48Z</time>
      </trkpt>
      <trkpt lat="-18.09038" lon="-68.97794">
        <ele>4294</ele>
        <time>2025-10-14T20:22:56Z</time>
      </trkpt>
      <trkpt lat="-18.09034" lon="-68.97795">
        <ele>4294</ele>
        <time>2025-10-14T20:23:00Z</time>
      </trkpt>
      <trkpt lat="-18.09013" lon="-68.97795">
        <ele>4293</ele>
        <time>2025-10-14T20:23:20Z</time>
      </trkpt>
      <trkpt lat="-18.0901" lon="-68.97797">
        <ele>4293</ele>
        <time>2025-10-14T20:23:24Z</time>
      </trkpt>
      <trkpt lat="-18.09008" lon="-68.978">
        <ele>4293</ele>
        <time>2025-10-14T20:23:28Z</time>
      </trkpt>
      <trkpt lat="-18.09004" lon="-68.97799">
        <ele>4293</ele>
        <time>2025-10-14T20:23:32Z</time>
      </trkpt>
      <trkpt lat="-18.09" lon="-68.97798">
        <ele>4293</ele>
        <time>2025-10-14T20:23:36Z</time>
      </trkpt>
      <trkpt lat="-18.08997" lon="-68.97796">
        <ele>4293</ele>
        <time>2025-10-14T20:23:40Z</time>
      </trkpt>
      <trkpt lat="-18.08983" lon="-68.97777">
        <ele>4294</ele>
        <time>2025-10-14T20:24:00Z</time>
      </trkpt>
      <trkpt lat="-18.08979" lon="-68.97775">
        <ele>4294</ele>
        <time>2025-10-14T20:24:04Z</time>
      </trkpt>
      <trkpt lat="-18.08971" lon="-68.97766">
        <ele>4294</ele>
        <time>2025-10-14T20:24:16Z</time>
      </trkpt>
      <trkpt lat="-18.08968" lon="-68.97759">
        <ele>4296</ele>
        <time>2025-10-14T20:24:24Z</time>
      </trkpt>
      <trkpt lat="-18.08967" lon="-68.97755">
        <ele>4296</ele>
        <time>2025-10-14T20:24:28Z</time>
      </trkpt>
      <trkpt lat="-18.08965" lon="-68.97752">
        <ele>4296</ele>
        <time>2025-10-14T20:24:32Z</time>
      </trkpt>
      <trkpt lat="-18.08962" lon="-68.9775">
        <ele>4296</ele>
        <time>2025-10-14T20:24:36Z</time>
      </trkpt>
      <trkpt lat="-18.08958" lon="-68.97748">
        <ele>4295</ele>
        <time>2025-10-14T20:24:40Z</time>
      </trkpt>
      <trkpt lat="-18.08956" lon="-68.97744">
        <ele>4295</ele>
        <time>2025-10-14T20:24:44Z</time>
      </trkpt>
      <trkpt lat="-18.08954" lon="-68.97741">
        <ele>4295</ele>
        <time>2025-10-14T20:24:48Z</time>
      </trkpt>
      <trkpt lat="-18.08952" lon="-68.97738">
        <ele>4295</ele>
        <time>2025-10-14T20:24:52Z</time>
      </trkpt>
      <trkpt lat="-18.0895" lon="-68.97734">
        <ele>4296</ele>
        <time>2025-10-14T20:24:56Z</time>
      </trkpt>
      <trkpt lat="-18.08946" lon="-68.97728">
        <ele>4297</ele>
        <time>2025-10-14T20:25:04Z</time>
      </trkpt>
      <trkpt lat="-18.08942" lon="-68.9773">
        <ele>4297</ele>
        <time>2025-10-14T20:25:10Z</time>
      </trkpt>
      <trkpt lat="-18.08937" lon="-68.9773">
        <ele>4297</ele>
        <time>2025-10-14T20:25:20Z</time>
      </trkpt>
      <trkpt lat="-18.08934" lon="-68.97731">
        <ele>4296</ele>
        <time>2025-10-14T20:25:24Z</time>
      </trkpt>
      <trkpt lat="-18.08929" lon="-68.97734">
        <ele>4296</ele>
        <time>2025-10-14T20:25:30Z</time>
      </trkpt>
      <trkpt lat="-18.08931" lon="-68.97733">
        <ele>4295</ele>
        <time>2025-10-14T20:27:04Z</time>
      </trkpt>
      <trkpt lat="-18.08933" lon="-68.9773">
        <ele>4294</ele>
        <time>2025-10-14T20:27:26Z</time>
      </trkpt>
      <trkpt lat="-18.08935" lon="-68.97733">
        <ele>4294</ele>
        <time>2025-10-14T20:28:10Z</time>
      </trkpt>
      <trkpt lat="-18.08937" lon="-68.97736">
        <ele>4294</ele>
        <time>2025-10-14T20:28:28Z</time>
      </trkpt>
      <trkpt lat="-18.08941" lon="-68.97734">
        <ele>4298</ele>
        <time>2025-10-14T20:29:34Z</time>
      </trkpt>
      <trkpt lat="-18.08944" lon="-68.9773">
        <ele>4297</ele>
        <time>2025-10-14T20:29:38Z</time>
      </trkpt>
      <trkpt lat="-18.08943" lon="-68.97732">
        <ele>4299</ele>
        <time>2025-10-14T20:30:12Z</time>
      </trkpt>
      <trkpt lat="-18.08943" lon="-68.97733">
        <ele>4297</ele>
        <time>2025-10-14T20:33:06Z</time>
      </trkpt>
      <trkpt lat="-18.08946" lon="-68.9773">
        <ele>4297</ele>
        <time>2025-10-14T20:33:16Z</time>
      </trkpt>
      <trkpt lat="-18.08949" lon="-68.97733">
        <ele>4297</ele>
        <time>2025-10-14T20:33:32Z</time>
      </trkpt>
      <trkpt lat="-18.08948" lon="-68.97737">
        <ele>4296</ele>
        <time>2025-10-14T20:33:38Z</time>
      </trkpt>
      <trkpt lat="-18.0895" lon="-68.97741">
        <ele>4296</ele>
        <time>2025-10-14T20:33:44Z</time>
      </trkpt>
      <trkpt lat="-18.08956" lon="-68.97749">
        <ele>4296</ele>
        <time>2025-10-14T20:33:54Z</time>
      </trkpt>
      <trkpt lat="-18.08959" lon="-68.97749">
        <ele>4297</ele>
        <time>2025-10-14T20:33:58Z</time>
      </trkpt>
      <trkpt lat="-18.08963" lon="-68.97752">
        <ele>4297</ele>
        <time>2025-10-14T20:34:04Z</time>
      </trkpt>
      <trkpt lat="-18.08967" lon="-68.97761">
        <ele>4298</ele>
        <time>2025-10-14T20:34:14Z</time>
      </trkpt>
      <trkpt lat="-18.08968" lon="-68.97766">
        <ele>4298</ele>
        <time>2025-10-14T20:34:18Z</time>
      </trkpt>
      <trkpt lat="-18.08984" lon="-68.97783">
        <ele>4298</ele>
        <time>2025-10-14T20:34:42Z</time>
      </trkpt>
      <trkpt lat="-18.08987" lon="-68.97786">
        <ele>4299</ele>
        <time>2025-10-14T20:34:46Z</time>
      </trkpt>
      <trkpt lat="-18.08993" lon="-68.97792">
        <ele>4299</ele>
        <time>2025-10-14T20:34:54Z</time>
      </trkpt>
      <trkpt lat="-18.08996" lon="-68.97795">
        <ele>4299</ele>
        <time>2025-10-14T20:34:58Z</time>
      </trkpt>
      <trkpt lat="-18.09" lon="-68.97796">
        <ele>4299</ele>
        <time>2025-10-14T20:35:02Z</time>
      </trkpt>
      <trkpt lat="-18.09005" lon="-68.97796">
        <ele>4298</ele>
        <time>2025-10-14T20:35:08Z</time>
      </trkpt>
      <trkpt lat="-18.09026" lon="-68.978">
        <ele>4297</ele>
        <time>2025-10-14T20:35:32Z</time>
      </trkpt>
      <trkpt lat="-18.09043" lon="-68.97807">
        <ele>4297</ele>
        <time>2025-10-14T20:35:52Z</time>
      </trkpt>
      <trkpt lat="-18.09055" lon="-68.97808">
        <ele>4296</ele>
        <time>2025-10-14T20:36:04Z</time>
      </trkpt>
      <trkpt lat="-18.09059" lon="-68.97809">
        <ele>4295</ele>
        <time>2025-10-14T20:36:08Z</time>
      </trkpt>
      <trkpt lat="-18.09063" lon="-68.97814">
        <ele>4295</ele>
        <time>2025-10-14T20:36:18Z</time>
      </trkpt>
      <trkpt lat="-18.09063" lon="-68.97818">
        <ele>4295</ele>
        <time>2025-10-14T20:36:22Z</time>
      </trkpt>
      <trkpt lat="-18.09074" lon="-68.97835">
        <ele>4295</ele>
        <time>2025-10-14T20:36:50Z</time>
      </trkpt>
      <trkpt lat="-18.09075" lon="-68.97839">
        <ele>4295</ele>
        <time>2025-10-14T20:36:54Z</time>
      </trkpt>
      <trkpt lat="-18.09079" lon="-68.97843">
        <ele>4294</ele>
        <time>2025-10-14T20:37:00Z</time>
      </trkpt>
      <trkpt lat="-18.09083" lon="-68.97843">
        <ele>4294</ele>
        <time>2025-10-14T20:37:06Z</time>
      </trkpt>
      <trkpt lat="-18.09088" lon="-68.97845">
        <ele>4293</ele>
        <time>2025-10-14T20:37:12Z</time>
      </trkpt>
      <trkpt lat="-18.0909" lon="-68.9785">
        <ele>4292</ele>
        <time>2025-10-14T20:37:18Z</time>
      </trkpt>
      <trkpt lat="-18.09091" lon="-68.97854">
        <ele>4292</ele>
        <time>2025-10-14T20:37:22Z</time>
      </trkpt>
      <trkpt lat="-18.09093" lon="-68.97858">
        <ele>4291</ele>
        <time>2025-10-14T20:37:26Z</time>
      </trkpt>
      <trkpt lat="-18.09102" lon="-68.97862">
        <ele>4290</ele>
        <time>2025-10-14T20:37:38Z</time>
      </trkpt>
      <trkpt lat="-18.09104" lon="-68.97866">
        <ele>4290</ele>
        <time>2025-10-14T20:37:44Z</time>
      </trkpt>
      <trkpt lat="-18.09104" lon="-68.97871">
        <ele>4290</ele>
        <time>2025-10-14T20:37:50Z</time>
      </trkpt>
      <trkpt lat="-18.09106" lon="-68.97875">
        <ele>4290</ele>
        <time>2025-10-14T20:37:56Z</time>
      </trkpt>
      <trkpt lat="-18.09109" lon="-68.97876">
        <ele>4291</ele>
        <time>2025-10-14T20:38:00Z</time>
      </trkpt>
      <trkpt lat="-18.0911" lon="-68.9788">
        <ele>4291</ele>
        <time>2025-10-14T20:38:04Z</time>
      </trkpt>
      <trkpt lat="-18.09115" lon="-68.97891">
        <ele>4291</ele>
        <time>2025-10-14T20:38:20Z</time>
      </trkpt>
      <trkpt lat="-18.09118" lon="-68.97894">
        <ele>4291</ele>
        <time>2025-10-14T20:38:24Z</time>
      </trkpt>
      <trkpt lat="-18.09123" lon="-68.97902">
        <ele>4292</ele>
        <time>2025-10-14T20:38:34Z</time>
      </trkpt>
      <trkpt lat="-18.09126" lon="-68.97906">
        <ele>4292</ele>
        <time>2025-10-14T20:38:40Z</time>
      </trkpt>
      <trkpt lat="-18.09129" lon="-68.97908">
        <ele>4292</ele>
        <time>2025-10-14T20:38:44Z</time>
      </trkpt>
      <trkpt lat="-18.09133" lon="-68.97905">
        <ele>4292</ele>
        <time>2025-10-14T20:38:50Z</time>
      </trkpt>
      <trkpt lat="-18.09153" lon="-68.97916">
        <ele>4292</ele>
        <time>2025-10-14T20:39:20Z</time>
      </trkpt>
      <trkpt lat="-18.09156" lon="-68.97916">
        <ele>4292</ele>
        <time>2025-10-14T20:39:24Z</time>
      </trkpt>
      <trkpt lat="-18.0916" lon="-68.97917">
        <ele>4292</ele>
        <time>2025-10-14T20:39:28Z</time>
      </trkpt>
      <trkpt lat="-18.09166" lon="-68.97917">
        <ele>4292</ele>
        <time>2025-10-14T20:39:34Z</time>
      </trkpt>
      <trkpt lat="-18.09174" lon="-68.97916">
        <ele>4292</ele>
        <time>2025-10-14T20:39:48Z</time>
      </trkpt>
      <trkpt lat="-18.09179" lon="-68.97915">
        <ele>4292</ele>
        <time>2025-10-14T20:39:54Z</time>
      </trkpt>
      <trkpt lat="-18.09184" lon="-68.97914">
        <ele>4292</ele>
        <time>2025-10-14T20:40:00Z</time>
      </trkpt>
      <trkpt lat="-18.09187" lon="-68.97916">
        <ele>4292</ele>
        <time>2025-10-14T20:40:02Z</time>
      </trkpt>
      <trkpt lat="-18.09191" lon="-68.97913">
        <ele>4292</ele>
        <time>2025-10-14T20:40:08Z</time>
      </trkpt>
      <trkpt lat="-18.09194" lon="-68.97915">
        <ele>4292</ele>
        <time>2025-10-14T20:40:12Z</time>
      </trkpt>
      <trkpt lat="-18.09211" lon="-68.97914">
        <ele>4292</ele>
        <time>2025-10-14T20:40:28Z</time>
      </trkpt>
      <trkpt lat="-18.09215" lon="-68.97916">
        <ele>4292</ele>
        <time>2025-10-14T20:40:32Z</time>
      </trkpt>
      <trkpt lat="-18.09219" lon="-68.97916">
        <ele>4292</ele>
        <time>2025-10-14T20:40:36Z</time>
      </trkpt>
      <trkpt lat="-18.09222" lon="-68.97913">
        <ele>4293</ele>
        <time>2025-10-14T20:40:40Z</time>
      </trkpt>
      <trkpt lat="-18.0923" lon="-68.97912">
        <ele>4292</ele>
        <time>2025-10-14T20:40:48Z</time>
      </trkpt>
      <trkpt lat="-18.09238" lon="-68.97911">
        <ele>4292</ele>
        <time>2025-10-14T20:40:56Z</time>
      </trkpt>
      <trkpt lat="-18.09243" lon="-68.9791">
        <ele>4292</ele>
        <time>2025-10-14T20:41:00Z</time>
      </trkpt>
      <trkpt lat="-18.09247" lon="-68.9791">
        <ele>4293</ele>
        <time>2025-10-14T20:41:04Z</time>
      </trkpt>
      <trkpt lat="-18.09255" lon="-68.97906">
        <ele>4293</ele>
        <time>2025-10-14T20:41:12Z</time>
      </trkpt>
      <trkpt lat="-18.09259" lon="-68.97905">
        <ele>4293</ele>
        <time>2025-10-14T20:41:16Z</time>
      </trkpt>
      <trkpt lat="-18.09263" lon="-68.97904">
        <ele>4293</ele>
        <time>2025-10-14T20:41:20Z</time>
      </trkpt>
      <trkpt lat="-18.09261" lon="-68.97905">
        <ele>4294</ele>
        <time>2025-10-14T20:42:02Z</time>
      </trkpt>
      <trkpt lat="-18.09266" lon="-68.97901">
        <ele>4294</ele>
        <time>2025-10-14T20:42:06Z</time>
      </trkpt>
      <trkpt lat="-18.09274" lon="-68.97897">
        <ele>4294</ele>
        <time>2025-10-14T20:42:14Z</time>
      </trkpt>
      <trkpt lat="-18.09283" lon="-68.97896">
        <ele>4293</ele>
        <time>2025-10-14T20:42:22Z</time>
      </trkpt>
      <trkpt lat="-18.09287" lon="-68.97894">
        <ele>4293</ele>
        <time>2025-10-14T20:42:28Z</time>
      </trkpt>
      <trkpt lat="-18.09292" lon="-68.97897">
        <ele>4293</ele>
        <time>2025-10-14T20:42:34Z</time>
      </trkpt>
      <trkpt lat="-18.09294" lon="-68.979">
        <ele>4293</ele>
        <time>2025-10-14T20:42:38Z</time>
      </trkpt>
      <trkpt lat="-18.09297" lon="-68.97903">
        <ele>4294</ele>
        <time>2025-10-14T20:42:42Z</time>
      </trkpt>
    </trkseg>
  </trk>
</gpx>